[[{"header":{"parameterUnit":"m.s-1","parameterCategory":1,"la1":30.6,"la2":28.766,"lo1":-90.7593,"lo2":-88.6598,"dy":0.0162,"dx":0.0183,"nx":116,"ny":114,"refTime":"2024-06-29T06:00:00:Z","depth":0,"parameterNumber":2,"parameterNumberName":"U-component_of_WINDS"},"data":[0.0,0.0,0.0,0.0,0.0,0.0,0.0,0.0,0.0,0.0,0.0,0.0,0.0,0.0,0.0,0.0,0.0,0.0,0.0,0.0,0.0,0.0,0.0,0.0,0.0,0.0,0.0,0.0,0.0,0.0,0.0,0.0,0.0,0.0,0.0,0.0,0.0,0.0,0.0,0.0,0.0,0.0,0.0,0.0,0.0,0.0,0.0,0.0,0.0,0.0,0.0,0.0,0.0,0.0,0.0,0.0,0.0,0.0,0.0,0.0,0.0,0.0,0.0,0.0,0.0,0.0,0.0,0.0,0.0,0.0,0.0,0.0,0.0,0.0,0.0,0.0,0.0,0.0,0.0,0.0,0.0,0.0,0.0,0.0,0.0,0.0,0.0,0.0,0.0,0.0,0.0,0.0,0.0,0.0,0.0,0.0,0.0,0.0,0.0,0.0,0.0,0.0,0.0,0.0,0.0,0.0,0.0,0.0,0.0,0.0,0.0,0.0,0.0,0.0,0.0,0.0,0.0,0.0,0.0,0.0,0.0,0.0,0.0,0.0,0.0,0.0,0.0,0.0,0.0,0.0,0.0,0.0,0.0,0.0,0.0,0.0,0.0,0.0,0.0,0.0,0.0,0.0,0.0,0.0,0.0,0.0,0.0,0.0,0.0,0.0,0.0,0.0,0.0,0.0,0.0,0.0,0.0,0.0,0.0,0.0,0.0,0.0,0.0,0.0,0.0,0.0,0.0,0.0,0.0,0.0,0.0,0.0,0.0,0.0,0.0,0.0,0.0,0.0,0.0,0.0,0.0,0.0,0.0,0.0,0.0,0.0,0.0,0.0,0.0,0.0,0.0,0.0,0.0,0.0,0.0,0.0,0.0,0.0,0.0,0.0,0.0,0.0,0.0,0.0,0.0,0.0,0.0,0.0,0.0,0.0,0.0,0.0,0.0,0.0,0.0,0.0,0.0,0.0,0.0,0.0,0.0,0.0,0.0,0.0,0.0,0.0,0.0,0.0,0.0,0.0,0.0,0.0,0.0,0.0,0.0,0.0,0.0,0.0,0.0,0.0,0.0,0.0,0.0,0.0,0.0,0.0,0.0,0.0,0.0,0.0,0.0,0.0,0.0,0.0,0.0,0.0,0.0,0.0,0.0,0.0,0.0,0.0,0.0,0.0,0.0,0.0,0.0,0.0,0.0,0.0,0.0,0.0,0.0,0.0,0.0,0.0,0.0,0.0,0.0,0.0,0.0,0.0,0.0,0.0,0.0,0.0,0.0,0.0,0.0,0.0,0.0,0.0,0.0,0.0,0.0,0.0,0.0,0.0,0.0,0.0,0.0,0.0,0.0,0.0,0.0,0.0,0.0,0.0,0.0,0.0,0.0,0.0,0.0,0.0,0.0,0.0,0.0,0.0,0.0,0.0,0.0,0.0,0.0,0.0,0.0,0.0,0.0,0.0,0.0,0.0,0.0,0.0,0.0,0.0,0.0,0.0,0.0,0.0,0.0,0.0,0.0,0.0,0.0,0.0,0.0,0.0,0.0,0.0,0.0,0.0,0.0,0.0,0.0,0.0,0.0,0.0,0.0,0.0,0.0,0.0,0.0,0.0,0.0,0.0,0.0,0.0,0.0,0.0,0.0,0.0,0.0,0.0,0.0,0.0,0.0,0.0,0.0,0.0,0.0,0.0,0.0,0.0,0.0,0.0,0.0,0.0,0.0,0.0,0.0,0.0,0.0,0.0,0.0,0.0,0.0,0.0,0.0,0.0,0.0,0.0,0.0,0.0,0.0,0.0,0.0,0.0,0.0,0.0,0.0,0.0,0.0,0.0,0.0,0.0,0.0,0.0,0.0,0.0,0.0,0.0,0.0,0.0,0.0,0.0,0.0,0.0,0.0,0.0,0.0,0.0,0.0,0.0,0.0,0.0,0.0,0.0,0.0,0.0,0.0,0.0,0.0,0.0,0.0,0.0,0.0,0.0,0.0,0.0,0.0,0.0,0.0,0.0,0.0,0.0,0.0,0.0,0.0,0.0,0.0,0.0,0.0,0.0,0.0,0.0,0.0,0.0,0.0,0.0,0.0,0.0,0.0,0.0,0.0,0.0,0.0,0.0,0.0,0.0,0.0,0.0,0.0,0.0,0.0,0.0,0.0,0.0,0.0,0.0,0.0,0.0,0.0,0.0,0.0,0.0,0.0,0.0,0.0,0.0,0.0,0.0,0.0,0.0,0.0,0.0,0.0,0.0,0.0,0.0,0.0,0.0,0.0,0.0,0.0,0.0,0.0,0.0,0.0,0.0,0.0,0.0,0.0,0.0,0.0,0.0,0.0,0.0,0.0,0.0,0.0,0.0,0.0,0.0,0.0,0.0,0.0,0.0,0.0,0.0,0.0,0.0,0.0,0.0,0.0,0.0,0.0,0.0,0.0,0.0,0.0,0.0,0.0,0.0,0.0,0.0,0.0,0.0,0.0,0.0,0.0,0.0,0.0,0.0,0.0,0.0,0.0,0.0,0.0,0.0,0.0,0.0,0.0,0.0,0.0,0.0,0.0,0.0,0.0,0.0,0.0,0.0,0.0,0.0,0.0,0.0,0.0,0.0,0.0,0.0,0.0,0.0,0.0,0.0,0.0,0.0,0.0,0.0,0.0,0.0,0.0,0.0,0.0,0.0,0.0,0.0,0.0,0.0,0.0,0.0,0.0,0.0,0.0,0.0,0.0,0.0,0.0,0.0,0.0,0.0,0.0,0.0,0.0,0.0,0.0,0.0,0.0,0.0,0.0,0.0,0.0,0.0,0.0,0.0,0.0,0.0,0.0,0.0,0.0,0.0,0.0,0.0,0.0,0.0,0.0,0.0,0.0,0.0,0.0,0.0,0.0,0.0,0.0,0.0,0.0,0.0,0.0,0.0,0.0,0.0,0.0,0.0,0.0,0.0,0.0,0.0,0.0,0.0,0.0,0.0,0.0,0.0,0.0,0.0,0.0,0.0,0.0,0.0,0.0,0.0,0.0,0.0,0.0,0.0,0.0,0.0,0.0,0.0,0.0,0.0,0.0,0.0,0.0,0.0,0.0,0.0,0.0,0.0,0.0,0.0,0.0,0.0,0.0,0.0,0.0,0.0,0.0,0.0,0.0,0.0,0.0,0.0,0.0,0.0,0.0,0.0,0.0,0.0,0.0,0.0,0.0,0.0,0.0,0.0,0.0,0.0,0.0,0.0,0.0,0.0,0.0,0.0,0.0,0.0,0.0,0.0,0.0,0.0,0.0,0.0,0.0,0.0,0.0,0.0,0.0,0.0,0.0,0.0,0.0,0.0,0.0,0.0,0.0,0.0,0.0,0.0,0.0,0.0,0.0,0.0,0.0,0.0,0.0,0.0,0.0,0.0,0.0,0.0,0.0,0.0,0.0,0.0,0.0,0.0,0.0,0.0,0.0,0.0,0.0,0.0,0.0,0.0,0.0,0.0,0.0,0.0,0.0,0.0,0.0,0.0,0.0,0.0,0.0,0.0,0.0,0.0,0.0,0.0,0.0,0.0,0.0,0.0,0.0,0.0,0.0,0.0,0.0,0.0,0.0,0.0,0.0,0.0,0.0,0.0,0.0,0.0,0.0,0.0,0.0,0.0,0.0,0.0,0.0,0.0,0.0,0.0,0.0,0.0,0.0,0.0,0.0,0.0,0.0,0.0,0.0,0.0,0.0,0.0,0.0,0.0,0.0,0.0,0.0,0.0,0.0,0.0,0.0,0.0,0.0,0.0,0.0,0.0,0.0,0.0,0.0,0.0,0.0,0.0,0.0,0.0,0.0,0.0,0.0,0.0,0.0,0.0,0.0,0.0,0.0,0.0,0.0,0.0,0.0,0.0,0.0,0.0,0.0,0.0,0.0,0.0,0.0,0.0,0.0,0.0,0.0,0.0,0.0,0.0,0.0,0.0,0.0,0.0,0.0,0.0,0.0,0.0,0.0,0.0,0.0,0.0,0.0,0.0,0.0,0.0,0.0,0.0,0.0,0.0,0.0,0.0,0.0,0.0,0.0,0.0,0.0,0.0,0.0,0.0,0.0,0.0,0.0,0.0,0.0,0.0,0.0,0.0,0.0,0.0,0.0,0.0,0.0,0.0,0.0,0.0,0.0,0.0,0.0,0.0,0.0,0.0,0.0,0.0,0.0,0.0,0.0,0.0,0.0,0.0,0.0,0.0,0.0,0.0,0.0,0.0,0.0,0.0,0.0,0.0,0.0,0.0,0.0,0.0,0.0,0.0,0.0,0.0,0.0,0.0,0.0,0.0,0.0,0.0,0.0,0.0,0.0,0.0,0.0,0.0,0.0,0.0,0.0,0.0,0.0,0.0,0.0,0.0,0.0,0.0,0.0,0.0,0.0,0.0,0.0,0.0,0.0,0.0,0.0,0.0,0.0,0.0,0.0,0.0,0.0,0.0,0.0,0.0,0.0,0.0,0.0,0.0,0.0,0.0,0.0,0.0,0.0,0.0,0.0,0.0,0.0,0.0,0.0,0.0,0.0,0.0,0.0,0.0,0.0,0.0,0.0,0.0,0.0,0.0,0.0,0.0,0.0,0.0,0.0,0.0,0.0,0.0,0.0,0.0,0.0,0.0,0.0,0.0,0.0,0.0,0.0,0.0,0.0,0.0,0.0,0.0,0.0,0.0,0.0,0.0,0.0,0.0,0.0,0.0,0.0,0.0,0.0,0.0,0.0,0.0,0.0,0.0,0.0,0.0,0.0,0.0,0.0,0.0,0.0,0.0,0.0,0.0,0.0,0.0,0.0,0.0,0.0,0.0,0.0,0.0,0.0,0.0,0.0,0.0,0.0,0.0,0.0,0.0,0.0,0.0,0.0,0.0,0.0,0.0,0.0,0.0,0.0,0.0,0.0,0.0,0.0,0.0,0.0,0.0,0.0,0.0,0.0,0.0,0.0,0.0,0.0,0.0,0.0,0.0,0.0,0.0,0.0,0.0,0.0,0.0,0.0,0.0,0.0,0.0,0.0,0.0,0.0,0.0,0.0,0.0,0.0,0.0,0.0,0.0,0.0,0.0,0.0,0.0,0.0,0.0,0.0,0.0,0.0,0.0,0.0,0.0,0.0,0.0,0.0,0.0,0.0,0.0,0.0,0.0,0.0,0.0,0.0,0.0,0.0,0.0,0.0,0.0,0.0,0.0,0.0,0.0,0.0,0.0,0.0,0.0,0.0,0.0,0.0,0.0,0.0,0.0,0.0,0.0,0.0,0.0,0.0,0.0,0.0,0.0,0.0,0.0,0.0,0.0,0.0,0.0,0.0,0.0,0.0,0.0,0.0,0.0,0.0,0.0,0.0,0.0,0.0,0.0,0.0,0.0,0.0,0.0,0.0,0.0,0.0,0.0,0.0,0.0,0.0,0.0,0.0,0.0,0.0,0.0,0.0,0.0,0.0,0.0,0.0,0.0,0.0,0.0,0.0,0.0,0.0,0.0,0.0,0.0,0.0,0.0,0.0,0.0,0.0,0.0,0.0,0.0,0.0,0.0,0.0,0.0,0.0,0.0,0.0,0.0,0.0,0.0,0.0,0.0,0.0,0.0,0.0,0.0,0.0,0.0,0.0,0.0,0.0,0.0,0.0,0.0,0.0,0.0,0.0,0.0,0.0,0.0,0.0,0.0,0.0,0.0,0.0,0.0,0.0,0.0,0.0,0.0,0.0,0.0,0.0,0.0,0.0,0.0,0.0,0.0,0.0,0.0,0.0,0.0,0.0,0.0,0.0,0.0,0.0,0.0,0.0,0.0,0.0,0.0,0.0,0.0,0.0,0.0,0.0,0.0,0.0,0.0,0.0,0.0,0.0,0.0,0.0,0.0,0.0,0.0,0.0,0.0,0.0,0.0,0.0,0.0,0.0,0.0,0.0,0.0,0.0,0.0,0.0,0.0,0.0,0.0,0.0,0.0,0.0,0.0,0.0,0.0,0.0,0.0,0.0,0.0,0.0,0.0,0.0,0.0,0.0,0.0,0.0,0.0,0.0,0.0,0.0,0.0,0.0,0.0,0.0,0.0,0.0,0.0,0.0,0.0,0.0,0.0,0.0,0.0,0.0,0.0,0.0,0.0,0.0,0.0,-2.2672,0.0,0.0,0.0,0.0,0.0,0.0,0.0,0.0,0.0,0.0,0.0,0.0,0.0,0.0,0.0,0.0,0.0,0.0,0.0,0.0,0.0,0.0,0.0,0.0,2.1839,2.2971,2.2502,2.2483,2.2112,2.1234,0.0,0.0,0.0,0.0,0.0,1.6999,1.6406,1.6211,1.6402,1.6394,1.6243,1.596,1.5526,1.5355,1.5358,0.0,0.0,0.0,0.0,0.0,0.0,0.0,0.0,0.0,0.0,0.0,0.0,0.0,0.0,0.0,0.0,0.0,0.0,0.0,0.0,0.0,0.0,0.0,0.0,0.0,0.0,0.0,0.0,0.0,0.0,0.0,0.0,0.0,0.0,0.0,0.0,0.0,0.0,0.0,0.0,0.0,0.0,0.0,0.0,0.0,0.0,0.0,0.0,0.0,0.0,0.0,0.0,0.0,0.0,0.0,0.0,0.0,0.0,0.0,0.0,0.0,0.0,0.0,0.0,0.0,0.0,0.0,0.0,0.0,0.0,0.0,-2.2836,0.0,0.0,0.0,0.0,0.0,0.0,0.0,0.0,0.0,0.0,0.0,0.0,0.0,0.0,0.0,0.0,0.0,0.0,0.0,0.0,0.0,1.7282,1.8824,2.0533,2.1562,2.1562,2.1554,2.1216,2.0472,0.0,0.0,0.0,0.0,1.8288,1.7605,1.7252,1.6929,1.6675,1.6638,1.6403,1.5976,1.5843,1.5913,0.0,1.5224,0.0,0.0,0.0,0.0,0.0,0.0,0.0,0.0,0.0,0.0,0.0,0.0,0.0,0.0,0.0,0.0,0.0,0.0,0.0,0.0,0.0,0.0,0.0,0.0,0.0,0.0,0.0,0.0,0.0,0.0,0.0,0.0,0.0,0.0,0.0,0.0,0.0,0.0,0.0,0.0,0.0,0.0,0.0,0.0,0.0,0.0,0.0,0.0,0.0,0.0,0.0,0.0,0.0,0.0,0.0,0.0,0.0,0.0,0.0,0.0,0.0,0.0,0.0,-2.3876,-2.4221,-2.4863,-2.3805,-2.3704,-2.4298,-2.3231,-2.277,-2.2813,0.0,0.0,0.0,0.0,0.0,0.0,0.0,0.0,0.0,0.0,0.0,0.0,0.0,0.0,0.0,0.0,0.0,0.0,0.0,0.0,1.7077,1.8052,1.9616,2.0584,2.0584,2.054,2.0405,2.0178,0.0,0.0,0.0,1.8609,1.8526,1.835,1.7415,1.7211,1.7784,1.7099,1.6875,1.7087,0.0,0.0,0.0,1.5085,1.4514,0.0,0.0,0.0,0.0,0.0,0.0,0.0,0.0,0.0,0.0,0.0,0.0,0.0,0.0,0.0,0.0,0.0,0.0,0.0,0.0,0.0,0.0,0.0,0.0,0.0,0.0,0.0,0.0,0.0,0.0,0.0,0.0,0.0,0.0,0.0,0.0,0.0,0.0,0.0,0.0,0.0,0.0,-1.2235,-1.3628,0.0,0.0,0.0,0.0,0.0,0.0,0.0,0.0,0.0,0.0,0.0,0.0,0.0,-2.307,-2.3436,-2.4486,-2.4754,-2.4229,-2.4171,-2.4265,-2.4467,-2.4316,-2.4344,-2.4551,-2.4321,0.0,-2.3483,-2.3562,0.0,0.0,0.0,0.0,0.0,0.0,0.0,0.0,0.0,0.0,0.0,0.0,0.0,0.0,0.0,0.0,0.0,0.0,0.0,0.0,0.0,1.8945,1.9856,2.0291,2.032,2.0237,0.0,0.0,0.0,1.9185,1.8946,1.8813,1.8781,1.8138,1.7737,1.7668,1.7418,1.7028,0.0,0.0,0.0,0.0,1.4601,1.4409,0.0,0.0,0.0,0.0,0.0,0.0,0.0,0.0,0.0,0.0,0.0,0.0,0.0,0.0,0.0,0.0,0.0,0.0,0.0,0.0,0.0,0.0,0.0,0.0,0.0,0.0,0.0,0.0,0.0,0.0,0.0,0.0,0.0,0.0,0.0,0.0,0.0,0.0,0.0,0.0,0.0,-1.2098,-1.3563,-1.5056,-1.5744,-1.657,0.0,0.0,0.0,0.0,0.0,0.0,0.0,0.0,0.0,-2.2825,-2.315,-2.3547,-2.4063,-2.4635,-2.4811,-2.4582,-2.4503,-2.4519,-2.4576,-2.4714,-2.4776,-2.4776,-2.493,-2.4855,-2.4602,-2.4378,-2.4401,-2.4619,0.0,0.0,0.0,0.0,0.0,-2.5126,0.0,0.0,0.0,0.0,0.0,0.0,0.0,0.0,0.0,0.0,0.0,0.0,1.7626,1.836,1.9155,2.0179,0.0,0.0,0.0,0.0,0.0,1.9447,1.9123,1.8947,1.8947,1.8604,1.8151,1.7583,1.738,0.0,0.0,0.0,0.0,0.0,0.0,0.0,0.0,0.0,0.0,0.0,0.0,0.0,0.0,0.0,0.0,0.0,0.0,0.0,0.0,0.0,0.0,0.0,0.0,0.0,0.0,0.0,0.0,0.0,0.0,0.0,0.0,0.0,0.0,0.0,0.0,0.0,0.0,0.0,0.0,0.0,0.0,0.0,0.0,0.0,0.0,0.0,0.0,-1.3716,-1.5026,-1.6571,-1.7518,-1.8419,0.0,0.0,0.0,0.0,0.0,0.0,-2.3328,-2.3141,-2.3305,-2.393,-2.3704,-2.3867,-2.4463,-2.4666,-2.4785,-2.4853,-2.4793,-2.4788,-2.4841,-2.505,-2.5122,-2.5069,-2.5321,-2.5429,-2.5393,-2.508,-2.5392,-2.6075,-2.6113,-2.6156,-2.6177,-2.6227,-2.5867,-2.5352,0.0,0.0,0.0,0.0,0.0,0.0,0.0,0.0,0.0,0.0,0.0,1.5942,0.0,0.0,0.0,0.0,0.0,0.0,0.0,0.0,0.0,1.9046,1.8895,1.8807,1.8807,1.841,0.0,0.0,0.0,0.0,0.0,0.0,0.0,0.0,0.0,0.0,0.0,0.0,0.0,0.0,0.0,0.0,0.0,0.0,0.0,0.0,0.0,0.0,0.0,0.0,0.0,0.0,0.0,0.0,0.0,0.0,0.0,0.0,0.0,0.0,0.0,0.0,0.0,0.0,0.0,0.0,0.0,0.0,0.0,0.0,0.0,0.0,0.0,0.0,0.0,0.0,0.0,0.0,0.0,-1.8303,-1.877,0.0,0.0,0.0,0.0,-2.1995,-2.2901,-2.3538,-2.385,-2.4026,-2.4278,-2.4644,-2.4622,-2.4743,-2.4949,-2.4915,-2.4929,-2.4994,-2.4991,-2.5061,-2.5175,-2.5244,-2.5368,-2.5478,-2.5485,-2.5492,-2.5485,-2.5395,-2.539,-2.5448,-2.5456,-2.5488,-2.5543,-2.5543,-2.5518,-2.5488,0.0,0.0,0.0,1.2124,1.2222,1.2576,1.3167,1.3483,1.4064,1.5253,1.5332,0.0,0.0,0.0,0.0,0.0,0.0,0.0,0.0,0.0,0.0,1.8256,1.8339,1.8252,1.7898,1.8217,1.7823,0.0,0.0,0.0,0.0,0.0,0.0,0.0,0.0,0.0,0.0,0.0,0.0,0.0,0.0,0.0,0.0,0.0,0.0,0.0,0.0,0.0,0.0,0.0,0.0,0.0,0.0,0.0,0.0,0.0,0.0,0.0,0.0,0.0,0.0,0.0,0.0,0.0,0.0,0.0,0.0,0.0,0.0,0.0,0.0,0.0,0.0,0.0,0.0,0.0,0.0,0.0,0.0,-1.9562,-2.0432,0.0,-2.2315,-2.2461,-2.2676,-2.3167,-2.3624,-2.4026,-2.4344,-2.4618,-2.5088,-2.5757,-2.539,-2.5444,-2.6092,-2.5505,-2.5272,-2.5328,-2.5318,-2.5348,-2.5408,-2.5451,-2.5496,-2.5504,-2.5552,-2.555,-2.557,-2.5593,-2.5542,-2.546,-2.546,-2.5515,-2.5556,-2.5565,-2.5586,-2.5626,1.2336,1.2157,0.0,1.1254,1.1856,1.2481,1.2762,1.3544,1.4417,1.5295,0.0,0.0,0.0,0.0,0.0,0.0,0.0,0.0,0.0,0.0,1.8804,1.7743,1.8009,1.8112,1.7876,1.8012,0.0,0.0,0.0,0.0,0.0,0.0,0.0,0.0,0.0,0.0,0.0,0.0,0.0,0.0,0.0,0.0,1.163,0.0,0.0,0.0,0.0,0.0,0.0,0.0,0.0,0.0,0.0,0.0,0.0,0.0,0.0,0.0,0.0,0.0,0.0,0.0,0.0,0.0,0.0,0.0,0.0,0.0,0.0,0.0,0.0,0.0,0.0,0.0,0.0,0.0,0.0,0.0,-1.9654,-2.0702,-2.1606,-2.2439,-2.3227,-2.3337,-2.354,-2.3925,-2.4155,-2.4404,-2.4777,-2.5031,-2.5582,-2.6511,-2.5812,-2.5855,-2.6726,-2.5867,-2.5471,-2.5492,-2.552,-2.5515,-2.5495,-2.5564,-2.5595,-2.557,-2.5586,-2.5613,-2.5648,-2.5657,-2.5611,-2.5548,-2.5563,-2.5593,-2.5637,-2.564,-2.567,-2.5699,1.1424,1.0913,1.0344,1.0344,1.1063,1.19,1.2685,1.3565,1.4439,1.5297,0.0,0.0,0.0,0.0,0.0,0.0,0.0,0.0,0.0,0.0,1.8551,1.7576,1.7964,1.8374,1.8737,0.0,0.0,0.0,0.0,0.0,0.0,0.0,0.0,0.0,0.0,0.0,0.0,0.0,0.0,0.0,0.0,0.0,1.2174,0.0,0.0,0.0,0.0,0.0,0.0,0.0,0.0,0.0,0.0,0.0,0.0,0.0,0.0,0.0,0.0,0.0,0.0,0.0,0.0,0.0,0.0,0.0,0.0,0.0,0.0,0.0,0.0,0.0,0.0,0.0,0.0,0.0,-1.9578,-1.9736,-2.0376,-2.1674,-2.2186,-2.2617,-2.3069,-2.3482,-2.3885,-2.4279,-2.4507,-2.479,-2.5197,-2.528,-2.5774,-2.6798,-2.5976,-2.5918,-2.6823,-2.5955,-2.5508,-2.5492,-2.556,-2.5566,-2.5508,-2.5562,-2.5641,-2.5683,-2.5623,-2.5643,-2.5683,-2.5623,-2.5598,-2.5613,-2.5661,-2.5694,-2.57,-2.5697,-2.5702,-2.5699,1.1543,1.1406,1.123,1.123,1.1911,1.2532,1.2771,1.4077,1.5127,0.0,0.0,0.0,0.0,0.0,0.0,0.0,0.0,0.0,0.0,0.0,1.8272,1.8232,1.8151,0.0,0.0,0.0,0.0,0.0,0.0,0.0,0.0,0.0,0.0,0.0,0.0,0.0,0.0,0.0,0.0,0.0,0.0,0.0,1.2389,0.0,0.0,0.0,0.0,0.0,0.0,0.0,0.0,0.0,0.0,0.0,0.0,0.0,0.0,0.0,0.0,0.0,0.0,0.0,0.0,0.0,0.0,0.0,0.0,0.0,0.0,0.0,0.0,0.0,0.0,0.0,0.0,-2.0208,-2.0118,-2.0911,-2.1714,-2.2169,-2.2789,-2.3289,-2.3522,-2.3888,-2.4262,-2.4584,-2.4879,-2.5149,-2.5401,-2.5479,-2.6252,-2.7842,-2.6373,-2.6292,-2.7799,-2.6366,-2.5619,-2.5577,-2.5583,-2.5597,-2.5567,-2.5584,-2.5606,-2.5634,-2.5609,-2.5609,-2.5634,-2.5609,-2.5603,-2.5603,-2.566,-2.5703,-2.57,-2.5699,-2.5668,-2.5616,1.1599,1.1874,1.2108,1.2106,1.2793,1.334,1.3339,1.4511,1.5407,0.0,0.0,0.0,0.0,0.0,0.0,0.0,0.0,0.0,1.5872,1.6873,1.786,0.0,0.0,0.0,0.0,0.0,0.0,0.0,0.0,0.0,0.0,0.0,0.0,0.0,0.0,0.0,0.0,0.0,0.0,0.0,0.0,0.0,1.2953,1.2975,1.2859,1.2671,1.2207,1.1929,1.1698,1.0985,0.0,0.0,0.0,0.0,0.0,0.0,0.0,0.0,0.0,0.0,0.0,0.0,0.0,0.0,0.0,0.0,0.0,0.0,0.0,0.0,0.0,0.0,0.0,0.0,-2.0541,-2.1249,-2.1345,-2.1866,-2.2358,-2.2695,-2.3212,-2.362,-2.3795,-2.4155,-2.4495,-2.4809,-2.507,-2.5333,-2.5522,-2.5617,-2.6289,-2.7713,-2.6384,-2.6296,-2.7676,-2.6365,-2.5663,-2.5605,-2.5593,-2.5597,-2.5565,-2.5551,-2.5566,0.0,-2.5561,-2.5566,-2.5595,-2.5561,-2.5556,0.0,0.0,0.0,0.0,0.0,-2.5574,-2.5512,1.1887,1.2457,1.2945,1.2959,1.3588,1.4097,1.4109,1.4918,1.5508,1.541,0.0,0.0,0.0,0.0,0.0,0.0,0.0,0.0,0.0,0.0,0.0,0.0,0.0,0.0,0.0,0.0,0.0,0.0,0.0,0.0,0.0,0.0,0.0,0.0,0.0,0.0,0.0,0.0,0.0,0.0,0.0,0.0,1.3702,1.3709,1.3842,1.3973,1.3352,1.3162,1.3078,1.2404,0.0,0.0,0.0,0.0,0.0,0.0,0.0,0.0,0.0,0.0,0.0,0.0,0.0,0.0,0.0,0.0,0.0,0.0,0.0,0.0,0.0,0.0,0.0,0.0,-2.1786,-2.2579,-2.2764,-2.2581,-2.2599,-2.3175,-2.3458,-2.3728,-2.4036,-2.4336,-2.467,-2.5019,-2.5215,-2.5415,-2.5593,0.0,0.0,0.0,0.0,-2.6107,-2.6973,-2.6133,-2.5655,-2.558,-2.5604,-2.5556,-2.5492,-2.5492,-2.5538,-2.5593,-2.5531,-2.5538,-2.5587,-2.5525,-2.5511,-2.5506,-2.5561,-2.5601,-2.5589,-2.5537,-2.5465,0.0,1.362,1.3737,1.3848,1.3843,1.3985,1.4103,1.4097,1.5434,1.6205,1.5488,1.6015,0.0,0.0,0.0,0.0,0.0,0.0,0.0,0.0,0.0,0.0,0.0,0.0,0.0,0.0,0.0,0.0,0.0,0.0,0.0,0.0,0.0,0.0,0.0,0.0,0.0,0.0,0.0,0.0,0.0,0.0,0.0,1.4342,1.4342,1.4537,1.4864,1.4713,1.4715,1.4706,1.422,1.3856,1.3446,1.2481,0.0,0.0,0.0,0.0,0.0,0.0,0.0,0.0,0.0,0.0,0.0,0.0,0.0,0.0,0.0,0.0,0.0,0.0,0.0,0.0,-2.1123,-2.1939,-2.2632,-2.279,-2.2927,-2.3126,-2.3407,-2.362,-2.3919,-2.4284,-2.4586,-2.4879,-2.5226,-2.5379,-2.5532,-2.5665,-2.5701,0.0,-2.6962,-2.6146,-2.6093,-2.6912,-2.6113,-2.5637,-2.5512,0.0,0.0,-2.5503,-2.5503,-2.5505,-2.5525,-2.5517,-2.551,-2.5517,-2.5515,-2.5495,-2.551,-2.5574,-2.5595,-2.559,-2.5593,-2.5544,-2.5466,1.4603,1.4708,1.471,1.4732,1.5078,1.5346,1.5357,1.6466,1.7144,1.6704,1.7023,0.0,0.0,0.0,0.0,0.0,0.0,0.0,0.0,0.0,0.0,0.0,0.0,0.0,0.0,0.0,0.0,0.0,0.0,0.0,0.0,0.0,0.0,0.0,0.0,0.0,0.0,0.0,0.0,0.0,0.0,0.0,1.5636,1.5506,1.5606,1.579,1.5918,1.5846,1.5704,1.5728,1.5445,1.4992,1.4667,1.4223,1.3625,0.0,0.0,0.0,0.0,0.0,0.0,0.0,0.0,0.0,0.0,0.0,0.0,0.0,0.0,-2.0401,-2.0371,0.0,-2.168,-2.1817,-2.2231,-2.2632,-2.2919,-2.3077,-2.3265,-2.3471,-2.3725,-2.3981,-2.4318,-2.4629,-2.4917,-2.5216,-2.5413,-2.5537,-2.5636,-2.5671,-2.5874,-2.6298,-2.5874,-2.5844,-2.6246,-2.5859,-2.5623,-2.5554,-2.5579,-2.5577,-2.5549,-2.5544,-2.5556,-2.5546,-2.5554,-2.5554,-2.5549,-2.5557,-2.5544,-2.5557,-2.5595,-2.5531,-2.5444,-2.5483,-2.5437,-2.5351,1.5365,1.5536,1.555,1.5604,1.6272,1.6821,1.6833,1.7579,1.8085,1.7919,1.805,1.7558,1.605,1.5895,1.5409,0.0,0.0,0.0,0.0,0.0,0.0,0.0,0.0,0.0,0.0,0.0,0.0,0.0,0.0,0.0,0.0,0.0,0.0,0.0,0.0,0.0,0.0,0.0,0.0,0.0,0.0,0.0,1.706,1.6887,1.6744,1.6684,1.6843,1.6735,1.66,1.6969,1.6735,1.6349,1.656,1.6041,1.53,1.4911,1.3674,0.0,0.0,0.0,0.0,0.0,0.0,0.0,0.0,0.0,-2.0161,-1.9981,-2.0517,-2.1,-2.1094,-2.168,-2.2209,-2.246,-2.2515,-2.2659,-2.3045,-2.3168,-2.3289,-2.3499,-2.3789,-2.4059,-2.4317,-2.4644,-2.4962,-2.5226,-2.5398,-2.551,-2.5609,-2.5648,-2.5668,-2.5593,-2.5589,-2.5598,-2.5577,-2.558,-2.5587,-2.5602,-2.5604,-2.5597,-2.5597,-2.5593,-2.5598,-2.5587,-2.5587,-2.5584,-2.558,-2.5589,-2.5576,-2.5571,-2.5585,-2.5499,-2.5343,-2.5401,-2.5351,-2.5252,1.6198,1.6375,1.637,1.6372,1.7048,1.7597,1.7655,1.8406,1.8712,1.7994,1.8523,1.8624,1.7716,1.761,1.7852,1.8437,0.0,0.0,0.0,0.0,0.0,0.0,0.0,0.0,0.0,0.0,0.0,0.0,0.0,0.0,0.0,0.0,0.0,0.0,0.0,0.0,0.0,0.0,0.0,0.0,0.0,0.0,1.8149,1.8229,1.7832,1.7207,1.7248,1.7476,1.7793,1.78,1.7788,1.7698,1.7197,1.7181,1.7195,1.6216,0.0,1.5082,1.3553,0.7232,-0.0291,-0.6005,-1.1137,-1.6038,0.0,0.0,-2.0183,-2.1012,-2.1098,-2.11,-2.1409,-2.1715,-2.2061,-2.2443,-2.2569,-2.2712,-2.3045,-2.3168,-2.3336,-2.3634,-2.3958,-2.4247,-2.4468,-2.4776,-2.5084,-2.5357,-2.5406,-2.5466,-2.5585,-2.5609,-2.5609,-2.5609,-2.5609,-2.5565,-2.5515,-2.551,-2.5531,-2.5599,-2.5599,-2.5605,-2.5599,-2.5598,-2.5564,-2.5507,-2.5508,-2.5508,-2.5507,-2.5517,-2.5512,-2.5529,-2.557,-2.5543,-2.5479,-2.5493,-2.5485,-2.5452,1.6285,1.6843,1.7341,1.7816,1.821,1.8474,1.8493,1.9239,1.9695,1.9391,1.9653,1.9556,1.8743,1.8191,1.8438,1.9778,1.9922,0.0,0.0,0.0,0.0,0.0,0.0,0.0,0.0,0.0,0.0,0.0,0.0,0.0,0.0,0.0,0.0,0.0,0.0,0.0,0.0,0.0,0.0,0.0,0.0,0.0,1.9724,1.9926,1.9832,1.951,1.8957,1.9177,0.0,0.0,1.8895,1.8766,1.8031,1.7569,1.7285,1.727,1.6569,0.0,1.0088,0.4269,-0.2136,0.0,-1.3754,-1.762,-2.079,-2.0677,-1.9969,-2.0241,-2.0305,-2.0414,-2.0839,-2.1212,-2.1612,0.0,-2.2215,-2.2326,-2.2756,-2.2927,-2.3151,-2.3476,-2.3795,-2.4099,-2.447,-2.4799,-2.5087,-2.5264,-2.533,-2.5382,-2.5476,-2.5471,-2.5464,-2.543,-2.5426,-2.539,-2.5337,-2.5337,-2.5329,-2.5318,-2.5396,-2.541,-2.5364,-2.5456,-2.5476,-2.5449,-2.5434,-2.5447,-2.5444,-2.5476,-2.55,-2.5502,-2.5527,-2.5545,-2.5544,-2.5516,-2.5479,-2.5427,1.6247,1.7109,1.7872,1.8442,1.8785,1.9049,1.9295,1.9861,2.0294,2.0366,2.036,2.0127,1.956,1.8961,1.9183,2.0653,2.1045,2.1756,0.0,0.0,0.0,0.0,0.0,0.0,0.0,0.0,0.0,0.0,0.0,0.0,0.0,0.0,0.0,0.0,0.0,0.0,0.0,0.0,0.0,0.0,0.0,0.0,2.1084,2.1274,2.1552,2.1662,2.0584,2.0471,0.0,0.0,1.9657,1.933,1.8651,1.799,1.7584,1.8101,1.7412,1.5125,0.8911,0.3155,0.0,-0.9778,-1.5024,-1.8821,-2.0131,-1.983,-1.9218,-1.9107,-1.917,-1.9452,-2.0084,-2.0458,-2.0923,-2.1711,-2.1866,-2.2027,-2.2446,-2.2677,-2.297,-2.3289,-2.3544,-2.3868,-2.4316,-2.4693,-2.4994,-2.516,-2.5234,-2.5284,-2.5351,-2.5331,-2.5293,-2.5225,-2.5203,-2.5149,-2.5091,-2.5072,-2.5057,-2.5018,-2.511,-2.5144,-2.5144,-2.5272,-2.5331,-2.5335,-2.5335,-2.5337,-2.5356,-2.5415,-2.5469,-2.5479,-2.5492,-2.554,-2.5595,-2.5545,-2.5496,-2.5432,1.6234,1.709,1.77,1.7646,1.8338,1.9197,2.003,2.0192,2.0235,2.0294,2.025,2.0223,2.0255,2.0299,2.0711,2.1675,2.2535,2.304,2.3096,2.3867,0.0,0.0,0.0,0.0,0.0,0.0,0.0,0.0,0.0,0.0,0.0,0.0,0.0,0.0,0.0,0.0,0.0,0.0,0.0,0.0,0.0,0.0,2.1969,2.205,2.2603,2.3138,2.168,0.0,0.0,0.0,1.9906,1.9255,1.8895,1.8717,0.0,1.8609,1.8483,0.0,0.0,0.0,-0.1585,-0.5988,-1.2792,-1.846,-1.8724,-1.8144,-1.7665,-1.7987,-1.7938,-1.8167,-1.9229,-1.9562,-1.9972,-2.1051,-2.1612,-2.1969,-2.2164,-2.249,-2.2816,-2.3095,-2.33,-2.3563,0.0,-2.4447,-2.4812,-2.5084,-2.5157,-2.5209,-2.5212,-2.5149,-2.5091,-2.5019,-2.4955,-2.4888,-2.4818,-2.4756,-2.4738,-2.481,-2.4752,-2.4816,-2.5007,-2.5135,-2.5203,-2.5203,-2.5203,-2.5203,-2.5214,-2.5283,-2.5335,-2.5398,-2.548,-2.5546,-2.5595,-2.5609,-2.5556,-2.5492,1.6994,1.7497,1.8002,1.8964,1.944,1.9774,1.9964,1.9124,1.8677,1.923,1.9869,0.0,0.0,0.0,0.0,0.0,2.2503,2.3274,2.3851,2.4741,0.0,0.0,0.0,0.0,0.0,0.0,0.0,0.0,0.0,0.0,0.0,0.0,0.0,0.0,0.0,0.0,0.0,0.0,0.0,0.0,0.0,0.0,2.4538,2.406,2.415,2.4461,0.0,0.0,0.0,0.0,2.0968,2.0177,1.9592,0.0,0.0,1.8145,1.8244,1.6642,0.8393,0.0,-0.0278,-0.9025,-1.3262,-1.5428,-1.6042,-1.6003,-1.5925,-1.6141,-1.6369,-1.6846,-1.7762,-1.8529,-1.9269,-2.0004,-2.0607,-2.115,-2.1642,-2.1924,-2.2237,-2.2773,-2.2892,0.0,0.0,0.0,0.0,-2.4883,-2.4929,-2.4915,-2.4861,-2.4799,-2.4741,-2.467,-2.4604,-2.4556,-2.4472,-2.4456,-2.4385,-2.4279,-2.4381,-2.4545,-2.4728,-2.4864,-2.4923,-2.4923,-2.4923,-2.4923,-2.4936,-2.5041,-2.5118,-2.516,-2.5265,-2.5346,-2.5403,-2.5444,-2.5473,-2.55,1.6982,1.7455,1.7924,1.8858,1.9294,0.0,0.0,0.0,0.0,0.0,0.0,0.0,0.0,0.0,0.0,0.0,0.0,2.3669,2.4219,0.0,0.0,0.0,0.0,0.0,0.0,0.0,0.0,0.0,0.0,0.0,0.0,0.0,0.0,0.0,0.0,0.0,0.0,0.0,0.0,0.0,0.0,0.0,2.5676,2.5187,2.5089,0.0,0.0,0.0,0.0,0.0,0.0,0.0,0.0,0.0,0.0,0.0,1.8638,1.6918,0.8252,0.4591,0.101,-0.8175,-1.1713,-1.3193,-1.4099,-1.4187,-1.4329,-1.5071,-1.5524,-1.6041,-1.673,-1.7855,-1.8771,-1.903,-1.988,-2.0648,-2.1071,-2.143,-2.179,-2.2281,-2.2453,-2.2703,0.0,0.0,0.0,-2.4484,-2.4586,-2.4604,-2.4575,-2.4474,-2.4389,-2.4355,-2.4284,-2.4192,-2.4118,-2.4136,-2.404,-2.3899,-2.4155,-2.4337,-2.4459,-2.467,-2.476,-2.476,-2.476,-2.476,-2.476,-2.4879,-2.4934,-2.4942,-2.5087,-2.5171,-2.5235,-2.5303,-2.5378,-2.5434,1.6285,1.7044,1.7558,0.0,0.0,0.0,0.0,0.0,0.0,0.0,0.0,0.0,0.0,0.0,0.0,0.0,0.0,0.0,2.4193,0.0,0.0,0.0,0.0,0.0,2.5685,2.5687,0.0,0.0,0.0,0.0,0.0,0.0,0.0,0.0,0.0,0.0,0.0,0.0,0.0,0.0,0.0,0.0,2.5467,2.544,0.0,0.0,0.0,0.0,0.0,0.0,0.0,0.0,0.0,0.0,0.0,0.0,1.9545,1.8089,1.2153,0.7174,0.2213,-0.3762,-0.838,-1.1699,-1.2738,-1.2706,-1.291,-1.4627,-1.5291,-1.5682,-1.6165,0.0,-1.8475,-1.822,-1.9474,-2.0481,-2.0481,-2.1071,-2.1538,0.0,0.0,0.0,0.0,0.0,0.0,-2.3891,0.0,-2.4301,-2.4372,-2.4192,-2.4078,-2.4078,-2.3958,-2.3837,-2.3774,-2.3786,-2.3721,-2.3678,-2.3998,-2.4135,-2.4173,-2.4512,-2.4657,-2.4657,-2.4676,-2.4676,-2.4692,-2.4757,-2.4783,-2.4804,-2.4921,-2.5025,-2.5084,-2.516,-2.5233,-2.5303,0.0,0.0,0.0,0.0,0.0,0.0,0.0,0.0,0.0,0.0,0.0,0.0,0.0,0.0,0.0,0.0,0.0,0.0,0.0,0.0,0.0,0.0,0.0,0.0,0.0,0.0,0.0,0.0,0.0,0.0,0.0,0.0,0.0,0.0,0.0,0.0,0.0,0.0,0.0,0.0,0.0,0.0,2.6387,0.0,0.0,0.0,0.0,0.0,0.0,0.0,0.0,0.0,0.0,2.0904,1.9892,0.0,0.0,1.6409,0.9003,0.57,0.271,-0.4151,-0.7595,-0.9398,-0.981,-1.0709,-1.1852,-1.3251,-1.4131,-1.4878,-1.5691,-1.694,0.0,-1.7921,-1.9034,0.0,-2.033,-2.078,0.0,-2.1507,0.0,-2.2113,-2.222,-2.2422,0.0,0.0,-2.3592,-2.3883,-2.3941,-2.3901,-2.3795,-2.366,-2.3634,-2.3504,-2.3348,-2.3295,-2.3271,-2.3247,-2.3432,-2.3526,-2.3548,-2.3981,-2.4173,-2.4192,-2.4339,-2.441,-2.441,-2.453,-2.4578,-2.4575,-2.4719,-2.4813,-2.4884,-2.4942,-2.5025,-2.5106,0.0,0.0,0.0,0.0,0.0,0.0,0.0,0.0,0.0,0.0,0.0,0.0,0.0,0.0,0.0,0.0,0.0,0.0,0.0,0.0,0.0,0.0,0.0,0.0,0.0,0.0,0.0,0.0,0.0,0.0,0.0,0.0,0.0,0.0,0.0,0.0,0.0,0.0,0.0,0.0,0.0,0.0,0.0,0.0,0.0,0.0,0.0,0.0,0.0,0.0,0.0,2.1424,2.1311,2.0239,1.8901,1.8433,0.0,1.5267,0.9043,0.6175,0.343,-0.2802,-0.5698,-0.7328,-0.8425,-0.9634,-1.0977,-1.2579,-1.3757,-1.4728,-1.5348,-1.6815,0.0,0.0,0.0,0.0,-2.0,-2.0311,-2.073,0.0,-2.1524,0.0,-2.194,-2.2096,-2.233,0.0,-2.3194,-2.3535,-2.3664,-2.362,-2.3526,-2.336,-2.3336,-2.3265,-2.3102,-2.3102,-2.307,-2.302,-2.3312,-2.3414,-2.3455,-2.3896,-2.4095,-2.4134,0.0,-2.4266,-2.4321,-2.4393,-2.4428,-2.4462,-2.4561,-2.4642,-2.4723,-2.4851,-2.4921,-2.4993,0.0,0.0,0.0,0.0,0.0,0.0,0.0,0.0,0.0,2.0714,2.1041,2.2096,2.4507,2.4266,0.0,0.0,0.0,0.0,0.0,0.0,0.0,0.0,0.0,0.0,0.0,0.0,0.0,0.0,0.0,0.0,0.0,0.0,0.0,0.0,0.0,0.0,0.0,0.0,0.0,0.0,0.0,0.0,0.0,0.0,0.0,0.0,0.0,0.0,0.0,0.0,2.1549,2.0354,2.0022,1.8797,1.738,1.6905,1.586,1.4015,1.0257,0.7246,0.4032,-0.0644,-0.3467,-0.5609,-0.7723,-0.905,-1.0337,-1.2183,0.0,-1.4837,-1.5127,-1.6847,-1.7954,-1.7301,0.0,-1.945,-1.9617,-1.9889,-2.0258,-2.0795,-2.115,-2.1462,-2.184,-2.1869,-2.2015,-2.2409,-2.2841,-2.3182,-2.343,-2.3336,-2.3241,-2.3168,-2.3095,-2.302,-2.2944,-2.2995,-2.297,-2.285,-2.3265,-2.3477,-2.3518,-2.3917,-2.4152,-2.4229,0.0,0.0,-2.4303,-2.4284,-2.4321,-2.4375,-2.4462,-2.4528,-2.461,-2.4798,-2.4851,-2.4874,0.0,0.0,0.0,0.0,0.0,0.0,0.0,1.9504,1.9777,2.0486,2.1221,2.2685,2.5305,2.5385,0.0,0.0,0.0,0.0,0.0,0.0,0.0,0.0,0.0,0.0,0.0,0.0,0.0,0.0,0.0,0.0,0.0,0.0,0.0,0.0,0.0,0.0,0.0,0.0,0.0,0.0,0.0,0.0,0.0,0.0,0.0,0.0,0.0,0.0,0.0,0.0,2.1942,2.1209,1.998,1.7996,1.5987,1.5334,1.3371,1.0894,0.844,0.6105,0.362,0.0417,-0.2353,-0.4697,-0.6327,-0.8283,0.0,0.0,-1.2999,-1.4449,-1.5025,-1.6498,-1.7639,-1.7691,-1.8608,-1.9339,-1.945,-1.9732,-2.0074,0.0,-2.0878,-2.1214,-2.1603,0.0,0.0,0.0,0.0,-2.2616,-2.3126,-2.3144,-2.3095,-2.297,-2.279,-2.2685,-2.2659,-2.2649,-2.2579,-2.2569,-2.2694,-2.2876,-2.3035,-2.3364,-2.3649,-2.3837,0.0,0.0,-2.4228,-2.421,-2.421,-2.4247,-2.4375,-2.4411,-2.4446,-2.4615,-2.4645,-2.466,0.0,0.0,0.0,0.0,0.0,0.0,0.0,1.9446,2.0169,2.2152,2.2428,2.3235,2.5356,2.5987,2.6488,0.0,0.0,0.0,0.0,0.0,0.0,0.0,0.0,0.0,0.0,0.0,0.0,0.0,0.0,0.0,0.0,0.0,0.0,0.0,0.0,0.0,0.0,0.0,0.0,0.0,0.0,0.0,0.0,0.0,0.0,0.0,0.0,0.0,0.0,0.0,2.0195,1.9114,1.8305,1.6352,1.4136,1.2769,1.0909,0.8791,0.6497,0.4459,0.2313,-0.041,-0.2493,-0.4247,-0.5756,0.0,0.0,0.0,-1.2518,-1.4258,-1.4789,-1.6102,0.0,-1.7244,-1.812,-1.8822,-1.8959,-1.9317,0.0,-2.0447,-2.0632,-2.0942,0.0,0.0,0.0,0.0,0.0,-2.2265,-2.2756,-2.279,-2.2764,-2.2685,-2.2605,-2.2542,-2.2487,-2.2515,-2.246,-2.2405,-2.2623,-2.2825,-2.3025,-2.3312,-2.3602,-2.3858,-2.3996,0.0,-2.4094,-2.4134,-2.4172,-2.4209,-2.4266,-2.4339,-2.4412,-2.4513,-2.4564,-2.4615,0.0,0.0,0.0,0.0,0.0,0.0,0.0,1.9129,2.0055,2.2813,2.2923,2.3364,2.498,2.6317,2.7267,0.0,0.0,0.0,0.0,0.0,0.0,0.0,0.0,0.0,0.0,0.0,0.0,0.0,0.0,0.0,0.0,0.0,0.0,0.0,0.0,0.0,0.0,0.0,0.0,0.0,0.0,0.0,0.0,0.0,0.0,0.0,0.0,0.0,0.0,0.0,1.8531,1.7013,1.6389,1.4482,1.2119,1.0404,0.8738,0.6943,0.4865,0.2944,0.1021,-0.118,-0.2819,-0.4212,-0.5475,-0.7423,0.0,-1.0052,-1.2061,-1.3815,-1.4422,-1.5599,-1.6527,0.0,-1.7598,-1.8305,-1.8511,-1.8936,-1.953,0.0,-2.0413,0.0,-2.1261,0.0,0.0,0.0,0.0,0.0,-2.248,-2.2497,-2.2515,-2.2515,-2.2487,-2.246,-2.2405,-2.2432,-2.2405,-2.231,-2.2579,-2.2833,-2.3014,-2.333,-2.362,-2.3896,-2.3917,0.0,0.0,-2.4074,-2.4151,-2.419,-2.421,-2.4266,-2.4358,-2.4445,-2.4497,-2.4549,0.0,0.0,0.0,0.0,0.0,0.0,0.0,1.8264,1.8679,1.9703,2.1066,2.252,2.4135,2.634,2.7485,0.0,0.0,0.0,0.0,0.0,0.0,0.0,0.0,0.0,0.0,0.0,0.0,0.0,0.0,0.0,0.0,0.0,0.0,0.0,0.0,0.0,0.0,0.0,0.0,0.0,0.0,0.0,0.0,0.0,0.0,0.0,0.0,0.0,0.0,0.0,0.0,1.7194,1.5155,1.2617,1.0203,0.9293,0.0,0.0,0.3958,0.2239,0.0507,-0.0355,-0.2654,-0.4796,-0.5264,0.0,-0.9332,-0.9899,-1.1275,-1.2696,-1.3862,-1.496,-1.5896,0.0,0.0,-1.8108,-1.8305,-1.8736,-1.9339,-2.0139,0.0,0.0,0.0,0.0,0.0,0.0,0.0,0.0,-2.247,-2.2515,-2.2515,-2.2515,-2.2432,-2.2422,-2.2405,-2.2338,-2.231,-2.231,-2.2377,-2.2525,-2.2747,-2.3133,-2.3399,-2.3566,0.0,0.0,0.0,-2.4094,-2.4151,-2.419,-2.421,-2.421,-2.4229,-2.4303,-2.4321,-2.4339,0.0,0.0,0.0,0.0,0.0,0.0,1.7969,1.8441,1.9243,2.0664,2.0958,2.1657,2.3309,2.5199,2.6835,0.0,0.0,0.0,0.0,0.0,0.0,0.0,0.0,0.0,0.0,0.0,0.0,0.0,0.0,0.0,0.0,0.0,0.0,0.0,0.0,0.0,0.0,0.0,0.0,0.0,0.0,0.0,0.0,0.0,0.0,0.0,0.0,0.0,0.0,0.0,0.0,0.0,1.4032,1.1664,0.0,0.0,0.6607,0.4831,0.3344,0.1663,0.0142,-0.071,-0.2384,-0.4111,-0.5242,-0.6901,-0.8552,-0.9753,-1.1252,-1.256,-1.3351,-1.4468,-1.54,0.0,-1.6769,-1.7612,-1.768,-1.8705,-1.9484,-1.969,-2.0113,0.0,0.0,0.0,0.0,0.0,0.0,0.0,-2.2349,-2.2338,-2.231,-2.231,-2.222,-2.2158,-2.2158,-2.213,-2.2118,-2.2118,-2.2237,-2.236,-2.2537,-2.2807,-2.3116,-2.3392,0.0,0.0,0.0,-2.3958,-2.3996,-2.4016,-2.4095,-2.4153,-2.4209,-2.4229,-2.4284,-2.4358,0.0,0.0,0.0,0.0,0.0,1.7082,1.7548,1.8337,1.9408,2.0884,2.0976,2.1418,2.285,2.4649,2.6539,2.8484,0.0,0.0,0.0,0.0,0.0,0.0,0.0,0.0,0.0,0.0,0.0,0.0,0.0,0.0,0.0,0.0,0.0,0.0,0.0,0.0,0.0,0.0,0.0,0.0,0.0,0.0,0.0,0.0,0.0,0.0,0.0,0.0,0.0,0.0,0.0,0.0,0.0,0.0,0.0,0.0,0.6165,0.4479,0.2699,0.1108,-0.0307,-0.1329,-0.2607,-0.3986,-0.5489,-0.68,-0.8171,-0.9654,-1.0995,-1.2169,-1.2871,-1.4014,-1.488,0.0,-1.6349,-1.7366,-1.7521,-1.8796,-1.9772,0.0,0.0,0.0,0.0,0.0,0.0,0.0,0.0,0.0,0.0,-2.2007,-2.2053,-2.2225,-2.2089,-2.2027,-2.2073,-2.2073,-2.2073,-2.2073,-2.218,-2.2276,-2.2375,-2.2588,-2.2859,-2.3129,0.0,0.0,0.0,-2.3855,-2.3917,-2.3976,-2.4074,-2.4151,-2.419,-2.4209,-2.4266,-2.434,0.0,0.0,0.0,0.0,0.0,0.0,1.6584,1.7615,1.8587,1.9331,2.0804,2.2094,2.2905,2.5162,2.6924,2.7732,0.0,0.0,0.0,0.0,0.0,0.0,0.0,0.0,0.0,0.0,0.0,0.0,0.0,0.0,0.0,0.0,0.0,0.0,0.0,0.0,0.0,0.0,0.0,0.0,0.0,0.0,0.0,0.0,0.0,0.0,0.0,0.0,0.0,0.0,0.0,0.0,0.0,1.0814,0.9235,0.0,0.5743,0.3586,0.2022,0.0518,-0.0846,-0.1987,-0.3394,-0.4802,-0.6036,-0.7246,-0.8435,-0.9547,-1.0328,-1.1191,-1.2374,-1.3484,-1.4408,-1.5006,-1.6336,-1.7492,-1.8113,-1.9068,-2.0059,0.0,0.0,0.0,0.0,0.0,0.0,0.0,0.0,0.0,0.0,-2.1432,-2.1678,-2.2282,-2.2101,-2.2101,-2.2282,-2.2225,-2.2225,-2.231,-2.231,-2.231,-2.231,-2.2579,-2.2712,0.0,0.0,0.0,0.0,-2.3795,-2.3976,-2.4094,-2.4094,-2.4151,-2.419,-2.419,-2.419,-2.4209,0.0,0.0,0.0,0.0,0.0,0.0,0.0,1.8273,1.9073,2.0092,2.1156,2.2115,2.2923,2.5162,2.6704,2.6961,0.0,0.0,0.0,0.0,0.0,0.0,0.0,0.0,0.0,0.0,0.0,0.0,0.0,0.0,0.0,0.0,0.0,0.0,0.0,0.0,0.0,0.0,0.0,0.0,0.0,0.0,0.0,0.0,0.0,0.0,0.0,0.0,0.0,0.0,0.0,0.0,0.0,0.0,0.0,0.6206,0.4841,0.3462,0.1938,0.0461,-0.0964,-0.2092,-0.3161,-0.4379,-0.5923,-0.6896,-0.7871,-0.9444,-1.032,-1.1082,-1.195,-1.3304,-1.446,-1.5026,0.0,0.0,0.0,0.0,0.0,-1.9946,0.0,0.0,0.0,0.0,0.0,0.0,0.0,0.0,0.0,-2.1479,-2.1601,-2.2003,-2.1928,-2.1899,-2.1961,-2.1974,-2.2003,-2.2032,-2.2152,-2.218,-2.2101,-2.2349,0.0,0.0,0.0,0.0,0.0,-2.3531,-2.3642,-2.3725,-2.3876,-2.3976,-2.3996,-2.4094,-2.417,-2.419,0.0,0.0,0.0,0.0,0.0,0.0,0.0,1.8718,1.9397,2.0071,2.1395,2.2353,2.252,2.5236,2.6753,2.6045,0.0,0.0,0.0,0.0,0.0,0.0,0.0,0.0,0.0,0.0,0.0,0.0,0.0,0.0,0.0,0.0,0.0,0.0,0.0,0.0,0.0,0.0,0.0,0.0,0.0,0.0,1.8361,0.0,0.0,0.0,0.0,0.0,0.0,0.0,0.0,0.0,0.0,0.0,0.0,0.0,0.3932,0.2766,0.161,0.0298,-0.1043,-0.2329,-0.3274,-0.4386,-0.6266,-0.7072,-0.7818,-0.9347,-1.032,-1.1082,-1.156,-1.3102,-1.4457,-1.5033,-1.6374,0.0,0.0,0.0,0.0,-2.026,0.0,0.0,0.0,0.0,0.0,0.0,0.0,0.0,0.0,-2.1055,-2.1166,-2.1661,-2.1751,-2.1811,-2.1869,-2.1899,-2.1911,-2.194,-2.2061,-2.2089,-2.1998,-2.2118,0.0,0.0,0.0,0.0,0.0,-2.3348,-2.3508,-2.3535,-2.3813,-2.3917,-2.3955,-2.4016,-2.4094,-2.417,0.0,0.0,0.0,0.0,0.0,0.0,0.0,0.0,1.9489,1.9494,2.1576,2.2774,2.2024,2.5417,2.7031,2.5298,0.0,0.0,0.0,0.0,0.0,0.0,0.0,0.0,0.0,0.0,0.0,0.0,2.4078,2.3979,2.3774,0.0,0.0,0.0,0.0,0.0,0.0,0.0,0.0,0.0,1.8361,1.7317,0.0,0.0,0.0,0.0,0.0,0.0,0.0,0.0,0.0,0.0,0.0,0.0,0.0,0.0,0.0,0.0,0.0,0.0053,-0.1174,-0.2709,-0.3664,-0.4812,-0.6806,-0.7551,0.0,-0.9145,-1.0328,-1.1209,-1.1243,-1.2939,-1.4522,-1.5121,0.0,0.0,0.0,-2.0253,0.0,0.0,0.0,0.0,0.0,0.0,0.0,0.0,0.0,0.0,0.0,-2.0292,-2.053,-2.1246,-2.1587,-2.184,-2.1998,-2.194,-2.194,-2.1982,-2.1998,-2.1998,-2.1998,-2.1998,0.0,0.0,0.0,0.0,0.0,-2.3253,-2.3491,-2.3522,-2.3795,-2.3917,-2.3996,-2.3996,-2.4016,-2.4094,0.0,0.0,0.0,0.0,0.0,0.0,0.0,0.0,0.0,0.0,2.1752,2.2861,2.3297,2.5646,2.7022,0.0,0.0,0.0,0.0,0.0,0.0,0.0,0.0,0.0,0.0,0.0,0.0,2.3878,2.3878,2.3756,2.3566,2.3566,0.0,0.0,0.0,0.0,0.0,0.0,0.0,0.0,1.6275,1.5622,0.0,0.0,0.0,0.0,1.0554,0.966,0.0,0.0,0.0,0.0,0.0,0.0,0.0,0.0,0.1766,0.101,0.0401,0.0,-0.1325,-0.3309,-0.3917,-0.4525,0.0,-0.7128,-0.7711,-0.8718,-1.0056,-1.1167,-1.1636,-1.3491,-1.5219,-1.6074,0.0,0.0,-2.0174,0.0,0.0,0.0,0.0,0.0,0.0,0.0,0.0,0.0,0.0,0.0,0.0,-2.0292,-2.0429,-2.0893,-2.1246,-2.1556,-2.184,-2.1899,-2.1911,-2.1911,-2.1969,-2.1998,-2.1998,-2.1998,0.0,0.0,0.0,0.0,-2.2738,-2.306,-2.3307,-2.3531,-2.3732,-2.3837,-2.3837,-2.3896,-2.3937,-2.3937,0.0,0.0,0.0,0.0,0.0,0.0,0.0,0.0,0.0,0.0,0.0,0.0,0.0,0.0,0.0,0.0,0.0,0.0,0.0,0.0,0.0,0.0,0.0,0.0,0.0,0.0,0.0,0.0,0.0,2.3387,0.0,0.0,0.0,0.0,0.0,0.0,0.0,0.0,0.0,0.0,1.436,0.0,0.0,0.0,0.0,0.0,0.8658,0.7944,0.0,0.6121,0.5549,0.5207,0.0,0.0,0.0,0.0,0.0986,0.0115,-0.0351,-0.0986,-0.1885,-0.3532,-0.4273,-0.5009,-0.6683,-0.7426,-0.7984,-0.8732,-1.0064,-1.1251,-1.1799,-1.3498,-1.5228,0.0,-1.7369,0.0,0.0,0.0,0.0,0.0,0.0,0.0,0.0,0.0,0.0,0.0,0.0,0.0,0.0,-2.003,-2.0154,-2.0496,-2.0877,-2.1246,-2.1587,-2.1751,-2.184,-2.184,-2.1899,-2.1911,-2.194,-2.194,0.0,0.0,0.0,0.0,-2.2569,-2.2935,-2.3206,-2.3348,-2.3667,-2.3795,-2.3795,-2.3837,-2.3858,-2.3896,0.0,0.0,0.0,0.0,0.0,0.0,0.0,0.0,0.0,0.0,0.0,0.0,0.0,0.0,0.0,0.0,0.0,0.0,0.0,0.0,0.0,0.0,0.0,0.0,0.0,0.0,0.0,0.0,0.0,0.0,0.0,0.0,0.0,0.0,0.0,0.0,0.0,0.0,0.0,0.0,1.2426,0.0,0.0,0.0,0.0,0.0,0.0,0.0,0.0,0.4891,0.4638,0.4396,0.294,0.0,0.0,0.0,0.0,0.0,-0.1179,-0.1951,-0.283,-0.3773,-0.4592,-0.5649,-0.7217,0.0,0.0,0.0,0.0,-1.1285,-1.1938,-1.3349,0.0,0.0,0.0,0.0,-1.9471,0.0,0.0,0.0,0.0,0.0,0.0,0.0,0.0,0.0,0.0,0.0,0.0,-1.9726,-1.9818,-2.0104,-2.0496,-2.0844,-2.1151,-2.157,-2.1827,-2.1827,-2.1827,-2.184,-2.1928,-2.1928,-2.2003,0.0,0.0,0.0,-2.2405,-2.2833,-2.3109,-2.3188,-2.3602,-2.3774,-2.3795,-2.3795,-2.3837,-2.3896,0.0,0.0,0.0,0.0,0.0,0.0,0.0,0.0,0.0,0.0,0.0,0.0,0.0,0.0,0.0,0.0,0.0,0.0,0.0,0.0,0.0,0.0,0.0,0.0,0.0,0.0,0.0,0.0,0.0,0.0,2.0911,2.0158,1.9636,0.0,0.0,0.0,0.0,0.0,0.0,1.1273,1.0191,0.0,0.0,0.0,0.0,0.0,0.0,0.0,0.0,0.3764,0.32,0.2583,0.2078,0.0,0.0,0.0,0.0,0.0,-0.2045,-0.329,-0.4386,-0.4386,-0.4699,-0.5388,-0.7007,-0.7687,0.0,0.0,0.0,0.0,0.0,-1.3516,-1.491,0.0,0.0,0.0,0.0,0.0,0.0,0.0,0.0,0.0,0.0,0.0,0.0,0.0,0.0,0.0,0.0,0.0,-1.9711,-1.9782,-2.012,-2.0311,-2.0379,-2.1339,-2.184,-2.1882,-2.1882,-2.1911,-2.1998,-2.1998,-2.2061,0.0,0.0,-2.2366,-2.2632,-2.2738,-2.301,-2.3458,-2.3508,-2.3664,-2.3795,-2.3795,-2.3816,-2.3816,0.0,0.0,0.0,0.0,0.0,0.0,0.0,0.0,0.0,0.0,0.0,0.0,0.0,0.0,0.0,0.0,0.0,0.0,0.0,0.0,0.0,0.0,0.0,0.0,0.0,0.0,0.0,0.0,0.0,1.9443,1.9483,1.8703,1.808,1.7611,0.0,0.0,0.0,0.0,0.0,0.9761,0.0,0.0,0.0,0.0,0.0,0.0,0.0,0.0,0.0,0.0,0.2499,0.2311,0.1358,0.0,0.0,0.0,0.0,0.0,-0.238,-0.3334,-0.4429,-0.503,-0.5631,-0.6529,-0.8079,-0.8689,0.0,0.0,0.0,0.0,0.0,0.0,-1.5427,-1.7269,0.0,0.0,0.0,0.0,0.0,0.0,0.0,0.0,0.0,0.0,0.0,0.0,0.0,0.0,0.0,0.0,-1.969,-1.969,-2.0015,-2.0208,-2.0208,-2.0893,-2.1355,-2.157,-2.1751,-2.1899,-2.194,-2.1998,-2.2089,-2.2214,0.0,-2.2338,-2.2487,-2.2632,-2.285,-2.3102,-2.3389,-2.3553,-2.3664,-2.3753,-2.3795,-2.3795,0.0,0.0,0.0,0.0,0.0,0.0,0.0,0.0,0.0,0.0,0.0,0.0,0.0,0.0,0.0,0.0,0.0,0.0,0.0,0.0,0.0,0.0,0.0,0.0,0.0,0.0,0.0,2.025,1.8474,1.7543,1.7455,1.6894,1.6363,0.0,0.0,0.0,0.0,0.0,0.0,0.8359,0.0,0.0,0.0,0.0,0.0,0.0,0.0,0.0,0.0,0.0,0.0,0.0,0.0,0.0,0.0,-0.0739,-0.1778,-0.2644,-0.2721,-0.35,-0.4524,-0.5455,-0.6228,-0.7196,-0.9071,-0.959,0.0,0.0,0.0,0.0,0.0,-1.46,0.0,-1.7124,0.0,0.0,0.0,0.0,0.0,0.0,0.0,0.0,0.0,0.0,0.0,0.0,0.0,0.0,0.0,0.0,-1.969,-1.969,-1.9945,-2.007,-2.007,-2.0478,-2.0844,-2.1214,-2.154,-2.1751,-2.1794,-2.194,-2.2089,-2.2214,-2.2254,-2.2282,-2.231,-2.2515,-2.2632,-2.2738,-2.3133,-2.3389,-2.3526,-2.3667,-2.3753,-2.3795,0.0,0.0,0.0,0.0,0.0,0.0,0.0,0.0,0.0,0.0,0.0,0.0,0.0,0.0,0.0,0.0,0.0,0.0,0.0,0.0,0.0,0.0,0.0,0.0,0.0,2.0171,1.9157,1.8028,1.5738,1.4445,1.4151,1.4285,1.4115,1.3676,0.0,0.0,0.0,0.0,0.0,0.6638,0.5193,0.0,0.0,0.0,0.0,0.0,0.0,0.0,0.0,0.0,0.0,0.0,0.0,0.0,-0.0205,-0.1377,-0.1819,-0.2101,-0.3229,-0.4525,-0.5612,-0.5657,-0.5678,-0.6374,-0.9195,-0.9566,0.0,-1.1207,0.0,0.0,0.0,-1.5305,-1.6588,0.0,0.0,0.0,0.0,0.0,0.0,0.0,0.0,0.0,0.0,0.0,0.0,0.0,0.0,0.0,0.0,0.0,0.0,-1.969,-1.9711,-1.9762,-1.9762,-2.0085,-2.0481,-2.0926,-2.1293,-2.1462,-2.1554,-2.1853,-2.2089,-2.2214,-2.2214,-2.2225,-2.231,-2.231,-2.2487,-2.2712,-2.2738,-2.306,-2.3504,-2.3526,-2.3642,-2.3795,0.0,0.0,0.0,0.0,0.0,0.0,0.0,0.0,0.0,0.0,0.0,0.0,0.0,0.0,0.0,0.0,0.0,0.0,0.0,0.0,0.0,0.0,0.0,2.0457,1.9547,1.8476,1.733,1.6124,1.3718,1.2768,1.3182,1.2785,0.0,0.0,0.0,0.0,0.0,0.0,0.0,0.0,0.3727,0.3342,0.0,0.0,0.0,0.0,0.0,0.0,0.0,0.0,0.0782,0.0479,0.0,-0.01,-0.071,-0.1471,-0.2017,-0.2501,-0.3294,-0.4265,-0.5177,-0.5686,-0.6027,0.0,0.0,-1.0251,-1.061,-1.2142,-1.2806,0.0,0.0,0.0,0.0,0.0,0.0,0.0,0.0,0.0,0.0,0.0,0.0,0.0,0.0,0.0,0.0,0.0,0.0,0.0,0.0,0.0,0.0,-1.969,-1.969,-1.969,-1.969,-1.9818,-1.998,-2.0154,-2.0745,-2.1135,-2.1386,-2.1554,-2.1811,-2.2089,-2.2168,-2.2225,-2.231,-2.231,-2.246,-2.2738,-2.3077,-2.3324,-2.3504,-2.3504,-2.3553,-2.362,0.0,0.0,0.0,0.0,0.0,0.0,0.0,0.0,0.0,0.0,0.0,0.0,0.0,0.0,0.0,0.0,0.0,0.0,0.0,0.0,0.0,0.0,0.0,1.8342,1.7403,1.6218,1.5251,1.4485,1.2086,1.1077,1.1389,0.0,0.0,0.0,0.0,0.0,0.0,0.0,0.0,0.0,0.2379,0.2158,0.0,0.0,0.0,0.0,0.0,0.0,0.0,0.0,0.0457,0.0423,0.0,-0.0292,-0.0736,-0.1424,-0.2035,-0.2713,-0.3655,-0.4361,-0.5057,-0.6028,0.0,0.0,-0.9666,-1.034,-1.099,-1.265,-1.3408,0.0,0.0,0.0,0.0,0.0,0.0,0.0,0.0,0.0,0.0,0.0,0.0,0.0,0.0,0.0,0.0,0.0,0.0,0.0,0.0,0.0,0.0,0.0,-1.969,-1.969,-1.969,-1.969,-1.969,-1.9726,-2.0204,-2.0646,-2.0974,-2.115,-2.1462,-2.1853,-2.1991,-2.214,-2.231,-2.231,-2.2405,-2.2605,-2.306,-2.3301,-2.3371,-2.3481,-2.3531,-2.3598,0.0,0.0,0.0,0.0,0.0,0.0,0.0,0.0,0.0,0.0,0.0,0.0,0.0,0.0,0.0,0.0,0.0,0.0,0.0,0.0,0.0,0.0,0.0,1.5586,1.4698,1.3415,1.2911,1.3171,1.0751,0.917,0.8359,0.0,0.0,0.0,0.0,0.0,0.0,0.0,0.0,0.0,0.1097,0.092,0.0942,0.0,0.0,0.0,0.0,0.0,0.0,0.0,0.0,0.0,0.0,0.0,0.0,-0.1273,-0.186,-0.2568,-0.4412,-0.5016,-0.5431,-0.6682,0.0,0.0,-0.875,-0.959,-1.0557,-1.2579,0.0,-1.3387,0.0,0.0,0.0,0.0,0.0,0.0,0.0,0.0,0.0,0.0,0.0,0.0,0.0,0.0,0.0,0.0,0.0,0.0,0.0,0.0,0.0,0.0,-1.969,-1.969,-1.969,-1.969,-1.969,-1.969,-1.969,-1.9889,-2.0208,-2.0681,-2.1119,-2.1493,-2.1648,-2.1932,-2.2282,-2.231,-2.231,-2.2338,-2.2605,-2.2876,-2.3116,-2.3394,-2.362,-2.3795,0.0,0.0,0.0,0.0,0.0,0.0,0.0,0.0,0.0,0.0,0.0,0.0,0.0,0.0,0.0,0.0,0.0,0.0,0.0,0.0,0.0,0.0,0.0,0.0,0.0,0.0,1.0005,1.0169,0.8219,0.6982,0.0,0.0,0.0,0.326,0.0,0.0,0.0,0.0,0.0,0.0,0.0,-0.0209,-0.0268,0.0,0.0,0.0,0.0,0.0,0.0,0.0,0.0,0.0,0.0,0.0,0.0,-0.1283,-0.1741,-0.2236,-0.3601,-0.4794,-0.5695,-0.6078,0.0,0.0,0.0,-0.9225,0.0,0.0,0.0,0.0,0.0,0.0,0.0,0.0,0.0,0.0,0.0,0.0,0.0,0.0,0.0,0.0,0.0,0.0,0.0,0.0,0.0,0.0,0.0,0.0,0.0,0.0,-1.9288,-1.942,-1.969,-1.969,-1.969,-1.969,-1.969,-1.9925,-2.0361,-2.0462,-2.0828,-2.1308,-2.1587,-2.1797,-2.1974,-2.2415,-2.2579,-2.2605,-2.2876,-2.291,-2.285,-2.3133,-2.3259,-2.3312,0.0,0.0,0.0,0.0,0.0,0.0,0.0,0.0,0.0,0.0,0.0,0.0,0.0,0.0,0.0,0.0,0.0,0.0,0.0,0.0,0.0,0.0,0.0,0.0,0.0,0.8201,0.6674,0.0,0.0,0.0,0.0,0.0,0.0,0.1049,0.0,0.0181,0.0,0.0,0.0,0.0,0.0,-0.0994,-0.1086,0.0,0.0,0.0,0.0,0.0,0.0,0.0,0.0,0.0,0.0,0.0,-0.0254,-0.1434,-0.1897,-0.2391,-0.3963,-0.4868,-0.5557,-0.6276,-0.6944,-0.7548,-0.8317,0.0,0.0,0.0,0.0,0.0,0.0,0.0,0.0,0.0,0.0,0.0,0.0,0.0,0.0,0.0,0.0,0.0,0.0,0.0,0.0,0.0,0.0,0.0,0.0,0.0,0.0,0.0,-1.886,-1.8974,-1.9221,-1.9221,-1.9221,-1.9221,-1.9384,-1.9639,-1.9929,-2.0135,-2.0478,-2.0958,-2.1355,-2.1631,-2.1827,-2.2186,-2.2415,-2.2569,-2.285,-2.285,-2.2738,-2.301,-2.3182,-2.3277,0.0,0.0,1.8453,1.8348,0.0,0.0,0.0,0.0,0.0,0.0,0.0,1.7555,0.0,0.0,0.0,1.5565,0.0,0.0,0.0,0.0,0.0,0.0,0.0,0.0,0.0,0.0,0.0,0.0,0.0,0.0,0.0,0.0,0.0176,-0.0661,0.0,-0.1548,0.0,0.0,0.0,0.0,-0.168,-0.164,-0.1743,-0.1199,0.0,0.0,0.0,0.0,0.0,0.0,0.0,0.0,0.0,0.0,-0.0258,-0.1536,-0.2186,-0.2876,-0.4754,-0.502,-0.5182,-0.6946,-0.7054,0.0,-0.8026,-0.9555,-1.08,-1.0862,0.0,0.0,0.0,0.0,0.0,0.0,0.0,0.0,0.0,0.0,0.0,0.0,0.0,0.0,0.0,0.0,0.0,0.0,0.0,0.0,0.0,0.0,0.0,0.0,-1.8422,-1.8461,-1.85,-1.8458,-1.8458,0.0,-1.8803,-1.9029,-1.9169,-1.9726,-2.017,-2.0565,-2.1103,-2.1524,-2.1857,-2.1857,-2.202,-2.2338,-2.2569,-2.2659,-2.2712,-2.296,-2.323,-2.3417,0.0,0.0,1.8485,1.8458,0.0,0.0,0.0,0.0,1.843,1.781,1.767,1.7215,1.6157,1.5662,0.0,1.4206,1.3183,0.0,0.0,0.0,0.0,0.0,0.0,0.0,0.0,0.0,0.0,0.0,0.0,0.0,0.0,0.0,0.0,-0.2368,0.0,-0.2581,0.0,0.0,0.0,-0.2985,-0.3087,-0.2898,-0.2542,-0.2342,-0.1743,0.0,0.0,0.0,0.0,0.0,0.0,0.0,0.0,0.0,-0.0171,-0.0892,-0.1586,-0.2324,-0.3336,-0.4305,0.0,-0.622,-0.7046,-0.7709,-0.7931,-0.8665,-0.9394,-0.9821,0.0,0.0,0.0,0.0,0.0,0.0,0.0,0.0,0.0,0.0,0.0,0.0,0.0,0.0,0.0,0.0,0.0,0.0,0.0,0.0,0.0,0.0,0.0,-1.7558,-1.7814,-1.8108,-1.85,-1.8021,-1.8021,0.0,-1.8097,-1.8186,-1.8693,-1.9457,-2.0258,-2.1007,-2.1493,-2.1886,-2.218,-2.218,-2.2237,-2.231,-2.2349,-2.2394,-2.2405,-2.2685,-2.2825,-2.2927,0.0,0.0,0.0,0.0,0.0,0.0,0.0,0.0,1.8482,1.7704,1.7304,1.6556,1.5188,1.453,0.0,0.0,1.1024,0.9853,0.0,0.0,0.0,0.0,0.0,0.0,0.0,0.0,0.0,0.0,0.0,0.0,0.0,0.0,0.0,-0.3945,0.0,-0.3864,0.0,0.0,0.0,-0.3767,-0.3493,-0.3184,-0.2901,-0.3015,-0.2431,-0.1574,-0.119,0.0,0.0,0.0,0.0,0.0,0.0,0.0,-0.0115,-0.0803,-0.1261,-0.1839,-0.2919,-0.3772,0.0,-0.5496,0.0,-0.7079,-0.7079,-0.7759,-0.8442,-0.8751,0.0,0.0,0.0,0.0,0.0,0.0,0.0,0.0,0.0,0.0,0.0,0.0,0.0,0.0,0.0,0.0,0.0,0.0,0.0,0.0,0.0,-1.6076,-1.6243,-1.6386,-1.6673,-1.6864,-1.6883,-1.6674,-1.69,-1.7499,-1.7491,-1.7909,-1.8822,-1.9347,-2.007,-2.0862,-2.1182,-2.1601,-2.2049,-2.2049,-2.2152,-2.231,-2.231,-2.231,-2.2338,-2.2605,-2.2773,-2.2935,0.0,0.0,0.0,0.0,0.0,0.0,0.0,0.0,0.0,1.7496,1.6693,1.5628,1.4083,1.3136,1.1852,0.0,0.0,0.0,0.5367,0.0,0.0,0.0,0.0,0.0,0.0,0.0,0.0,0.0,0.0,0.0,0.0,0.0,0.0,-0.5152,0.0,0.0,0.0,0.0,-0.4037,-0.4452,-0.3866,-0.3468,-0.3211,-0.3483,-0.3004,-0.2131,-0.1692,-0.1177,-0.0665,-0.0264,0.0,0.0,0.0,0.0,-0.0114,-0.0758,-0.0983,-0.1372,-0.2638,-0.3285,-0.3814,-0.5007,-0.5769,0.0,-0.6209,-0.6891,-0.7581,0.0,0.0,0.0,0.0,0.0,0.0,0.0,0.0,0.0,0.0,0.0,0.0,0.0,0.0,0.0,0.0,0.0,0.0,0.0,0.0,0.0,-1.522,-1.5318,-1.529,-1.5174,-1.5458,-1.5409,-1.5018,-1.5195,-1.5568,-1.6192,-1.6867,-1.7777,-1.8829,-1.914,-1.9717,-2.0548,-2.0778,-2.1198,-2.1721,-2.1781,-2.1945,-2.2209,-2.2282,-2.231,-2.2338,-2.2569,-2.2799,-2.3084,0.0,0.0,0.0,0.0,0.0,0.0,0.0,0.0,0.0,0.0,1.5722,1.4426,1.2605,1.1165,0.9627,0.7852,0.6272,0.4837,0.0,0.0,0.0,0.0,0.0,0.0,0.0,0.0,0.0,0.0,0.0,0.0,0.0,0.0,0.0,-0.5346,0.0,0.0,0.0,0.0,-0.5209,-0.4957,-0.5257,-0.479,-0.3961,-0.414,-0.3552,-0.2588,-0.2133,-0.1445,-0.0688,-0.0638,-0.0327,0.0,0.0,0.0,0.0,-0.0118,-0.0598,-0.1156,-0.1344,0.0,-0.426,0.0,-0.5769,-0.6209,0.0,0.0,-0.6411,0.0,0.0,0.0,0.0,0.0,0.0,0.0,0.0,0.0,0.0,0.0,0.0,0.0,0.0,0.0,0.0,0.0,0.0,0.0,0.0,0.0,-1.3836,-1.415,-1.4275,-1.4293,-1.4643,-1.4809,-1.4773,-1.4512,-1.4699,-1.5287,-1.6282,-1.7115,-1.7805,-1.8427,-1.9266,-2.0277,-2.0942,-2.1276,-2.1401,-2.1691,-2.1827,-2.1886,-2.218,-2.231,-2.231,-2.2338,-2.2525,-2.2799,0.0,0.0,0.0,0.0,0.0,0.0,0.0,0.0,0.0,0.0,0.0,1.2205,0.9836,0.8356,0.6595,0.4187,0.2885,0.0,0.0,0.0,0.0,0.0,0.0,0.0,0.0,0.0,0.0,0.0,0.0,0.0,0.0,-0.6966,-0.665,0.0,0.0,0.0,0.0,0.0,0.0,-0.5819,-0.5607,-0.5283,-0.4853,0.0,-0.3931,-0.3269,-0.2467,0.0,-0.1502,-0.1004,-0.0654,-0.0449,-0.0112,0.0,0.0,0.0,-0.0238,-0.06,-0.108,-0.2219,-0.3323,0.0,-0.4061,-0.4323,-0.4584,0.0,0.0,0.0,0.0,0.0,0.0,0.0,0.0,0.0,0.0,0.0,0.0,0.0,0.0,0.0,0.0,0.0,0.0,0.0,0.0,0.0,0.0,-1.3263,-1.3263,-1.3416,-1.3368,-1.304,-1.3379,-1.3521,-1.3471,-1.3482,-1.3919,-1.4758,-1.5565,-1.6431,-1.7465,-1.7881,-1.887,-2.0208,-2.0583,-2.0959,-2.1339,-2.1661,-2.1797,-2.1827,-2.218,-2.231,-2.231,-2.246,-2.2605,-2.2764,0.0,0.0,0.0,0.0,0.0,0.0,0.0,0.0,0.0,0.0,0.0,0.957,0.6738,0.0,0.0,0.0,-0.0203,0.0,0.0,0.0,0.0,0.0,0.0,0.0,0.0,0.0,0.0,0.0,0.0,0.0,-0.8606,-0.8438,-0.8175,0.0,-0.7418,0.0,0.0,0.0,0.0,-0.6634,-0.6121,-0.5826,-0.5631,-0.5029,-0.4533,-0.3989,0.0,0.0,0.0,0.0,0.0,0.0,0.0,0.0,0.0,0.0,0.0,0.0298,0.0,0.0,-0.1715,-0.2262,-0.2387,-0.2534,0.0,0.0,0.0,0.0,0.0,0.0,0.0,0.0,0.0,0.0,0.0,0.0,0.0,0.0,0.0,0.0,0.0,0.0,0.0,0.0,0.0,0.0,0.0,-1.2273,-1.2273,-1.2396,-1.2297,-1.1863,-1.2224,-1.237,-1.2246,-1.2615,-1.3303,-1.4284,-1.4818,-1.5801,-1.7066,-1.7441,-1.8426,-1.9894,-2.0074,-2.0449,-2.0959,-2.137,-2.1601,-2.1721,-2.2049,-2.2209,-2.2338,-2.2525,-2.2632,-2.2764,0.0,0.0,0.0,0.0,0.0,0.0,0.0,0.0,0.0,0.0,0.0,0.657,0.3577,0.2144,0.0618,-0.1464,-0.2425,0.0,0.0,0.0,0.0,0.0,0.0,0.0,0.0,0.0,0.0,0.0,0.0,0.0,-0.9456,-0.9539,-0.9138,-0.8255,-0.799,-0.7992,-0.8234,0.0,0.0,-0.716,-0.7308,-0.6891,-0.6173,-0.6197,-0.5605,-0.4689,0.0,0.0,0.0,0.0,0.0,0.0,0.0,0.0,0.0112,0.0,0.0,0.0,0.0,0.0812,0.0,-0.1104,-0.1462,0.0,0.0,0.0,0.0,0.0,0.0,0.0,0.0,0.0,0.0,0.0,0.0,0.0,0.0,0.0,0.0,0.0,0.0,0.0,0.0,0.0,0.0,0.0,0.0,-1.0363,-1.0363,-1.0756,-1.0998,-1.0949,-1.1358,-1.1575,-1.1553,-1.221,-1.2896,-1.3667,-1.4258,-1.5189,-1.6457,-1.7061,-1.7923,-1.9011,-1.9573,-1.9859,-1.9929,-2.0579,-2.1039,-2.137,-2.1691,-2.202,-2.231,-2.231,-2.2487,-2.2712,0.0,0.0,0.0,0.0,0.0,0.0,0.0,0.0,0.0,0.0,0.0,0.0,0.0,-0.211,-0.3141,-0.455,-0.5132,0.0,0.0,0.0,0.0,0.0,0.0,0.0,0.0,0.0,0.0,0.0,0.0,-1.0311,-1.0406,-1.0453,-0.9999,-0.9164,-0.8514,-0.8158,-0.8063,-0.8221,0.0,0.0,-0.799,-0.7827,0.0,-0.6633,-0.5957,-0.5318,0.0,0.0,0.0,0.0,0.0,0.0,0.0,0.028,0.0675,0.1322,0.1729,0.191,0.0,0.0,0.0,0.0667,0.0184,-0.025,-0.0903,0.0,0.0,0.0,0.0,0.0,0.0,0.0,0.0,0.0,0.0,0.0,0.0,0.0,0.0,0.0,0.0,0.0,0.0,0.0,0.0,0.0,0.0,0.0,-0.9821,-1.024,-1.0504,-1.0508,-1.0663,-1.0992,-1.1479,-1.1993,-1.2461,-1.2883,-1.3233,-1.395,-1.4935,-1.5673,-1.6612,-1.7671,-1.847,-1.9109,-1.9603,-2.0208,-2.0565,-2.0715,-2.1493,-2.1886,-2.202,-2.2209,-2.2366,-2.246,0.0,0.0,0.0,2.2213,0.0,1.8904,1.6224,1.1093,0.0,0.0,0.0,0.0,0.0,0.0,0.0,0.0,0.0,0.0,0.0,0.0,0.0,0.0,0.0,0.0,0.0,0.0,0.0,0.0,0.0,0.0,0.0,-1.0983,-1.0531,-0.9823,-0.916,-0.8688,0.0,0.0,0.0,-0.8928,0.0,0.0,-0.8448,0.0,-0.6743,0.0,0.0,0.0,0.0,0.0,0.0,0.0,0.0,0.0392,0.1294,0.1953,0.2383,0.2584,0.2461,0.0,0.0,0.0,0.0,0.1402,0.0618,0.0,0.0,0.0,0.0,0.0,0.0,0.0,0.0,0.0,0.0,0.0,0.0,0.0,0.0,0.0,0.0,0.0,0.0,0.0,0.0,0.0,0.0,0.0,-0.897,-0.9551,-1.0012,-1.0293,-1.0283,-1.0621,-1.1292,-1.17,-1.2029,-1.2318,-1.2579,-1.3201,-1.4132,-1.4852,-1.5698,-1.6703,-1.7689,-1.8539,-1.9288,-1.9879,-2.0212,-2.0382,-2.1118,-2.157,-2.1827,-2.2003,-2.2163,-2.2338,2.101,2.1458,2.1328,1.9564,1.702,1.4043,1.0564,0.5301,0.0728,0.0,0.0,0.0,0.0,0.0,0.0,0.0,0.0,0.0,0.0,0.0,0.0,0.0,0.0,0.0,0.0,0.0,0.0,0.0,0.0,0.0,0.0,0.0,-1.0653,-1.0135,-0.9924,-0.9639,-0.9245,0.0,-0.9536,-0.9537,0.0,-0.9082,-0.8751,0.0,0.0,0.0,-0.6794,-0.5819,0.0,-0.3837,0.0,0.0,0.0,0.0392,0.1903,0.2573,0.328,0.3872,0.0,0.0,0.0,0.0,0.0,0.0,0.0,0.0,0.0,0.0,0.0,0.0,0.0,0.0,0.0,0.0,0.0,0.0,0.0,0.0,0.0,0.0,0.0,0.0,0.0,0.0,0.0,0.0,0.0,-0.7416,-0.767,-0.8521,-0.9377,-1.0244,-1.0283,-1.0477,-1.0878,-1.1292,-1.1616,-1.1872,-1.2282,-1.301,-1.4035,-1.4576,-1.5324,-1.6191,-1.7223,-1.8133,-1.8898,-1.95,-1.9984,-2.028,-2.0514,-2.1071,-2.1751,-2.1628,-2.1899,-2.2282,1.8004,1.7405,1.6576,1.5771,1.4239,1.211,0.9046,0.3482,-0.1281,0.0,0.0,0.0,0.0,0.0,0.0,0.0,0.0,0.0,0.0,0.0,0.0,0.0,0.0,0.0,0.0,0.0,0.0,0.0,0.0,0.0,0.0,0.0,0.0,0.0,-1.1053,-1.075,-1.019,-1.0012,0.0,0.0,-1.0039,-0.9885,0.0,0.0,0.0,0.0,0.0,-0.6249,-0.5378,0.0,-0.3392,-0.267,0.0,0.0,0.0,0.3184,0.3693,0.3994,0.4299,0.0,0.0,0.0,0.0,0.0,0.0,0.0,0.0,0.0,0.0,0.0,0.0,0.0,0.0,0.0,0.0,0.0,0.0,0.0,0.0,0.0,0.0,0.0,0.0,0.0,0.0,0.0,-0.711,-0.7537,-0.7423,-0.8443,-0.9096,-0.9337,-0.9971,-1.0351,-1.0467,-1.0878,-1.1105,-1.1169,-1.1356,-1.1719,-1.2235,-1.2942,-1.3859,-1.5024,-1.6138,-1.7143,-1.8068,-1.8846,-1.9347,-1.9711,-2.0139,-2.0581,-2.0942,-2.1118,-2.1446,-2.1794,1.4633,1.4029,1.31,1.1775,1.0163,0.787,0.4256,-0.0421,-0.4397,0.0,0.0,0.0,0.0,0.0,0.0,0.0,0.0,0.0,0.0,0.0,0.0,-1.2053,-1.2845,-1.3505,0.0,0.0,0.0,0.0,0.0,0.0,0.0,0.0,0.0,0.0,-1.1892,-1.1642,-1.1229,-1.0839,0.0,0.0,-1.0293,0.0,0.0,-0.964,-0.9091,0.0,0.0,0.0,-0.6195,-0.5257,-0.4158,0.0,0.0,0.1188,0.2131,0.3046,0.3587,0.0,0.0,0.0,0.0,0.0,0.0,0.0,0.0,0.362,0.0,0.0,0.0,0.0,0.0,0.0,0.0,0.0,0.0,0.0,0.0,0.0,0.0,0.0,0.0,0.0,0.0,0.0,0.0,-0.5284,-0.6112,-0.6721,-0.7006,-0.7846,-0.8325,-0.8439,-0.9288,-0.9646,-0.9478,-1.0264,-1.0534,-1.037,-1.0753,-1.1057,-1.1266,-1.2048,-1.2855,-1.3729,-1.5197,-1.6333,-1.7156,-1.8076,-1.8822,-1.945,-1.9854,-2.0258,-2.063,-2.0747,-2.1118,-2.1582,0.0,1.0967,1.0175,0.7724,0.545,0.2472,-0.1881,-0.4979,-0.7639,0.0,0.0,0.0,0.0,0.0,0.0,0.0,0.0,0.0,0.0,0.0,-1.2511,-1.2357,-1.3035,-1.3664,-1.4231,0.0,0.0,0.0,0.0,0.0,0.0,0.0,0.0,0.0,-1.2532,-1.2318,-1.2306,-1.1799,0.0,-1.105,-1.0493,-1.0284,0.0,0.0,-0.969,0.0,-0.9116,-0.8218,-0.7111,-0.6897,-0.5031,0.0,0.0,0.0672,0.18,0.2527,0.3211,0.0,0.4738,0.535,0.0,0.0,0.0,0.0,0.47,0.3915,0.0,0.0,0.0,0.0,0.0,0.0,0.0,0.0,0.0,0.0,0.0,0.0,0.0,0.0,0.0,0.0,0.0,-0.224,-0.2811,-0.4078,-0.4714,-0.5458,-0.6418,-0.6941,-0.7311,-0.7657,-0.8446,-0.8684,-0.8316,-0.9527,-0.9961,-0.954,-1.037,-1.0812,-1.086,-1.1694,-1.2184,-1.2508,-1.4437,-1.5605,-1.623,-1.7344,-1.8383,-1.9339,-1.9545,-1.998,-2.0447,-2.0413,-2.0894,-2.1521,0.8078,0.7034,0.5703,0.4481,0.1847,-0.0922,-0.3511,-0.5609,-0.7942,0.0,0.0,0.0,0.0,0.0,0.0,0.0,0.0,0.0,0.0,0.0,-1.3666,-1.3261,-1.3408,-1.3782,-1.4435,-1.5182,0.0,0.0,0.0,0.0,0.0,0.0,0.0,0.0,-1.3204,-1.3045,-1.3032,-1.2531,0.0,-1.2211,-1.1518,0.0,-1.1695,-1.0845,-1.0436,-1.0197,-0.9452,-0.9184,-0.8967,0.0,-0.5416,-0.3492,0.0,0.0,0.0988,0.2441,0.0,0.3401,0.497,0.5409,0.5698,0.7006,0.0,0.0,0.7234,0.7084,0.6776,0.0,0.0,0.0,0.0,0.0,0.0,0.0,0.0,0.0,0.0,0.0,0.0,0.0,0.0,0.0,0.0,-0.1157,-0.1977,-0.2709,-0.3869,-0.4856,-0.5673,-0.6171,-0.6713,-0.7368,-0.7874,-0.8187,-0.8283,-0.8926,-0.9217,-0.9128,-0.9734,-1.0166,-1.0438,-1.0961,-1.1598,-1.2311,-1.3974,-1.5094,-1.5896,-1.7169,-1.8108,-1.8784,-1.9101,-1.9332,-1.9485,-1.9767,-2.0361,-2.1039,0.5716,0.498,0.3767,0.1912,0.0109,-0.1873,-0.4104,-0.5569,0.0,0.0,0.0,0.0,0.0,0.0,0.0,0.0,0.0,0.0,0.0,0.0,-1.3076,-1.2487,-1.2539,-1.2764,-1.3099,-1.3924,0.0,0.0,0.0,0.0,0.0,0.0,0.0,0.0,0.0,-1.4106,-1.4128,0.0,-1.332,-1.3346,-1.2036,0.0,-1.1778,-1.1236,-1.087,-1.0561,-1.0077,-0.9713,-0.9286,-0.7911,-0.6161,0.0,0.0,-0.1347,0.0515,0.0,0.2518,0.3377,0.5237,0.5673,0.5955,0.729,0.0,0.0,0.0,0.0,0.717,0.6636,0.0,0.0,0.0,0.0,0.0,0.0,0.0,0.0,0.0,0.0,0.0,0.0,0.0,0.0,0.0,0.0188,-0.08,-0.2294,-0.3008,-0.3752,-0.4586,-0.527,-0.5722,-0.5957,-0.702,-0.7513,-0.7308,-0.8185,-0.8561,-0.8349,-0.8846,-0.9248,-0.9646,-1.0099,-1.075,-1.1602,-1.2687,-1.3907,-1.5172,-1.6117,-1.7007,-1.7894,-1.8793,-1.9184,-1.9244,-1.9603,-2.0224,-2.0893,0.3778,0.3454,0.2556,0.0112,-0.084,-0.2044,-0.4264,-0.5272,0.0,0.0,0.0,0.0,0.0,0.0,0.0,0.0,0.0,0.0,0.0,0.0,0.0,-1.1506,-1.1421,-1.1524,-1.1809,-1.2389,-1.3153,0.0,0.0,0.0,0.0,0.0,0.0,0.0,0.0,0.0,0.0,0.0,0.0,-1.4178,0.0,-1.1929,-1.192,-1.1718,-1.1445,-1.1195,-1.1113,-1.0507,-0.9596,-0.8933,0.0,-0.5653,-0.4682,-0.2709,0.0,0.0,0.0,0.0,0.0,0.0,0.0,0.0,0.0,0.7396,0.0,0.0,0.0,0.6678,0.0,0.0,0.0,0.0,0.0,0.0,0.0,0.0,0.0,0.0,0.0,0.0,0.0,0.0,0.0,0.1797,0.069,-0.1556,-0.1709,-0.2229,-0.3471,-0.4231,-0.4605,-0.4689,-0.622,-0.6814,-0.6373,-0.7609,-0.8089,-0.7724,-0.8103,-0.848,-0.8895,-0.931,-0.9894,-1.0708,-1.1373,-1.26,-1.4221,-1.4959,-1.5874,-1.6925,-1.8496,-1.9095,-1.9132,-1.9603,-2.0204,-2.0795,0.26,0.16,0.0528,-0.0477,-0.1686,-0.2986,-0.4301,-0.5011,0.0,0.0,0.0,0.0,0.0,0.0,0.0,0.0,0.0,0.0,-1.281,0.0,0.0,-1.177,-1.0819,-1.0886,-1.2196,-1.1971,-1.2405,0.0,0.0,0.0,0.0,0.0,-1.6544,-1.8022,-1.6955,0.0,0.0,0.0,-1.4415,0.0,-1.3594,-1.3436,0.0,-1.3067,-1.2902,-1.2935,-1.2989,-1.2303,-1.1351,0.0,-0.9724,-0.8109,0.0,-0.5375,-0.3481,0.0,0.0,0.0,0.0,0.0,0.0,0.0,0.6372,0.0,0.0,0.0,0.7694,0.7984,0.0,0.0,0.0,0.0,0.0,0.0,0.0,0.0,0.0,0.0,0.0,0.0,0.0,0.0,0.0,0.0,0.2415,0.0889,0.0842,-0.0116,-0.2436,-0.2705,-0.3479,-0.5007,-0.5766,-0.6271,-0.6564,-0.7592,-0.7982,-0.7724,-0.8103,-0.8316,-0.8398,-0.8869,-0.9301,-0.9795,-1.0714,-1.1809,-1.3098,-1.4524,-1.5471,-1.6207,-1.8106,-1.8745,-1.8655,-1.942,-1.9945,-2.0345,0.2097,0.137,0.0605,-0.0532,-0.1548,-0.26,-0.3571,-0.4982,0.0,0.0,0.0,0.0,0.0,0.0,0.0,0.0,0.0,-1.0897,0.0,0.0,0.0,-1.0648,-0.9738,-0.9517,-1.0147,-0.9993,-1.0495,-1.169,-1.2191,0.0,0.0,0.0,-1.7541,-1.8266,-1.8877,0.0,-1.8891,0.0,-1.6222,0.0,0.0,0.0,0.0,-1.3993,-1.333,-1.3143,-1.3099,-1.2474,-1.1737,0.0,-1.0924,0.0,0.0,0.0,0.0,0.0,0.0,0.0,0.0,0.0,0.0,0.0,0.0,0.0,0.5612,0.0,0.6806,0.0,0.0,0.0,0.0,0.0,0.0,0.0,0.0,0.0,0.0,0.0,0.0,0.0,0.0,0.0,0.0,0.0,0.0,0.0,0.0,0.1025,-0.1823,-0.2257,-0.2914,-0.3921,-0.4956,-0.5695,-0.6065,-0.6579,-0.6944,-0.7174,-0.7137,-0.7301,-0.7543,-0.8039,-0.861,-0.927,-0.9672,-1.0579,-1.1871,-1.347,-1.4583,-1.5447,-1.7451,-1.8344,-1.8592,-1.9124,-1.9696,-2.0277,0.1737,0.0,0.0962,-0.0175,-0.1018,-0.1924,-0.3203,-0.496,-0.6663,0.0,0.0,0.0,-1.0286,-1.0073,0.0,0.0,-0.9971,-0.973,0.0,0.0,-0.9346,-0.9291,-0.8749,0.0,0.0,-0.8651,-0.9194,-1.0129,-1.087,0.0,0.0,0.0,0.0,-1.822,0.0,-2.0517,-2.0141,0.0,-1.7883,-1.7228,-1.7492,-1.7466,-1.7,-1.5184,-1.4299,-1.4012,-1.3772,-1.3213,-1.2635,-1.3008,-1.2252,0.0,-1.0708,0.0,0.0,0.0,0.0,0.0,-0.0708,0.0,0.0,0.0,0.0,0.0,0.0,0.0,0.0,0.0,0.0,0.0,0.0,0.0,0.0,0.0,0.0,0.0,0.0,0.0,0.0,0.0,0.0,0.0,0.0,0.0,0.0,0.0,0.0,0.0,-0.1268,-0.1777,-0.2354,-0.3175,-0.4414,-0.5199,-0.5507,-0.5886,-0.6263,-0.6736,-0.6458,-0.6537,-0.7001,-0.7342,-0.7964,-0.8829,-0.8805,-0.9635,-1.1064,-1.2474,-1.367,-1.4783,-1.6494,-1.7626,-1.8408,-1.8898,-1.953,-2.012,0.1382,0.1311,0.0,0.0,0.0,-0.1277,-0.3429,-0.4783,-0.5923,0.0,0.0,0.0,0.0,0.0,0.0,0.0,0.0,-0.8709,-0.8363,0.0,-0.8243,-0.7986,-0.8049,-0.8165,0.0,-0.8751,-0.9143,-0.9452,-1.0054,-1.0843,0.0,0.0,0.0,0.0,0.0,-2.0364,-2.0694,-1.9398,-1.8808,-1.8686,-1.8313,-1.8207,-1.8115,0.0,-1.6404,-1.6342,-1.5862,0.0,0.0,-1.4525,-1.4151,0.0,0.0,0.0,0.0,0.0,0.0,0.0,0.0,0.0,0.0,-0.0767,0.0,0.0,0.0,0.0,0.2824,0.0,0.0,0.0,0.0,0.0,0.0,0.0,0.0,0.0,0.0,0.0,0.0,0.0,0.0,0.0,0.0,0.0,0.0,0.0,0.0,0.0,-0.0705,-0.0911,-0.17,-0.3457,-0.4406,-0.4958,-0.5103,-0.5972,-0.6476,-0.6606,-0.6377,-0.655,-0.7021,-0.7021,-0.7482,-0.8316,-0.8316,-0.93,-1.0962,-1.185,-1.2975,-1.4218,-1.5139,-1.6481,-1.8025,-1.8793,-1.9347,-1.9833,0.0,0.0,0.0,0.0,0.0,-0.1657,-0.3194,-0.4347,0.0,0.0,0.0,0.0,0.0,-0.796,-0.7913,0.0,0.0,-0.7717,-0.753,-0.785,0.0,0.0,0.0,-0.8,0.0,0.0,-0.8665,-0.9011,-0.9237,-0.969,0.0,0.0,0.0,0.0,0.0,-2.1033,0.0,0.0,0.0,0.0,0.0,-1.9929,-2.0219,0.0,0.0,-1.6939,-1.6668,-1.5991,0.0,-1.5369,-1.51,-1.4673,-1.4457,-1.3673,-1.2656,-1.1525,-1.0183,0.0,0.0,0.0,-0.5691,-0.3997,0.0,0.0,0.0,0.0,0.0,0.0,0.0,0.0,0.0,0.0,0.0,0.0,0.0,0.0,0.0,0.0,0.0,0.0,0.0,0.0,0.0,0.0,0.0,0.0,0.0,0.0,0.0,-0.0248,-0.1019,-0.27,-0.3398,-0.4252,-0.5342,-0.5483,-0.5843,-0.6482,-0.6185,-0.62,-0.655,-0.6852,-0.7314,-0.7889,-0.7889,-0.8738,-1.0169,-1.1634,-1.2839,-1.3849,-1.5336,-1.6744,-1.7932,-1.8196,-1.8916,-1.9797,0.0953,0.0,0.0,0.0,0.0,0.0,0.0,0.0,0.0,0.0,-0.6086,0.0,-0.7101,0.0,-0.716,0.0,-0.7058,-0.7004,-0.6902,-0.723,0.0,-0.6745,-0.7396,0.0,0.0,0.0,-0.812,-0.8222,-0.8875,-0.9232,0.0,0.0,0.0,0.0,0.0,-1.9462,-2.0988,0.0,-2.1167,0.0,0.0,-2.149,0.0,0.0,-1.9119,-1.8039,0.0,-1.6818,-1.5985,-1.601,-1.5897,-1.5744,-1.5647,-1.5125,-1.4461,-1.3622,-1.2404,-1.1118,-1.0075,-0.9338,0.0,-0.6952,-0.663,0.0,-0.5362,0.0,0.0,0.0,0.0,0.0,0.0,0.0,0.0,0.0,0.0,0.0,0.0,0.0,0.0,0.0,0.0,0.0,0.0,0.0,0.8085,0.4552,0.0,0.0,0.0,0.0,-0.0487,-0.1851,-0.2569,-0.3392,-0.444,-0.4573,-0.4978,-0.5668,-0.5368,-0.538,-0.5722,-0.6283,-0.6833,-0.7294,-0.7673,-0.8602,-0.9917,-1.1202,-1.2333,-1.3373,-1.4518,-1.5847,-1.7124,-1.7679,-1.8722,-1.996,0.0,0.0,0.0,0.0,-0.0955,0.0,0.0,0.0,-0.3516,0.0,-0.4846,-0.5281,-0.6367,-0.6534,-0.6534,-0.6534,-0.6534,0.0,-0.6534,-0.6534,0.0,0.0,-0.6475,-0.643,-0.5708,0.0,0.0,0.0,-0.883,-0.9354,0.0,0.0,0.0,0.0,-1.3569,0.0,-1.863,-1.8971,-2.0417,-2.25,-2.2428,-2.2363,-2.2345,-2.2345,0.0,-1.9328,-1.8575,-1.7748,-1.6945,-1.6278,-1.6432,-1.682,-1.6451,-1.6529,-1.6479,-1.5096,-1.4287,-1.3533,-1.2224,-1.1142,-1.0302,-0.9592,0.0,0.0,0.0,0.0,-0.5885,0.0,0.0,0.0,0.0,0.0,0.0,0.0,0.0,0.0,0.0,0.0,0.0,0.0,0.0,0.0,0.0,1.0762,0.9077,0.347,0.4804,0.0,0.0,0.0,-0.0123,-0.0985,-0.1967,-0.2516,-0.2567,-0.3404,-0.3959,-0.4299,-0.4098,-0.4256,-0.4696,-0.5475,-0.6118,-0.6628,-0.7656,-0.8917,-1.0262,-1.0578,-1.1529,-1.2812,-1.2812,-1.3939,-1.5755,-1.7342,-1.8896,-2.0243,0.0579,0.0239,-0.0,0.0,-0.1299,-0.2361,0.0,0.0,0.0,0.0,-0.4405,-0.468,-0.478,-0.5332,-0.566,-0.566,-0.566,0.0,0.0,0.0,0.0,-0.523,-0.615,-0.6239,-0.5275,-0.6221,0.0,-0.7489,0.0,0.0,-0.8666,0.0,0.0,0.0,0.0,0.0,-1.6137,-1.6373,-1.6657,-1.6943,-1.6926,-1.7048,0.0,0.0,-1.6545,-1.583,-1.7539,-1.7287,-1.5938,-1.4685,-1.4816,-1.5329,-1.4302,-1.4973,-1.5955,-1.5098,-1.463,-1.4346,-1.4075,-1.3245,-1.2228,-1.1328,-1.101,-1.0682,0.0,0.0,0.0,0.0,0.0,0.0,0.0,0.0,0.0,0.0,0.0,0.0,0.0,0.0,0.0,0.0,0.0,0.0,1.0973,0.9028,0.6979,0.5516,0.3973,0.0,0.0,0.0,0.0,-0.129,-0.1595,-0.2343,-0.363,-0.3822,-0.411,-0.4367,-0.426,-0.4716,-0.5676,-0.599,-0.6704,-0.7713,-0.7859,-0.8949,-1.0587,-1.0729,-1.1558,-1.2861,-1.3266,-1.4619,-1.6574,-1.7918,-1.9029,-1.9945,0.0239,0.0,0.0,-0.0432,0.0,0.0,-0.3047,0.0,0.0,-0.319,-0.3716,0.0,-0.4291,-0.4677,-0.4952,-0.4952,-0.4952,0.0,-0.4849,0.0,0.0,-0.4629,-0.5113,-0.5058,-0.4457,-0.4923,0.0,-0.6142,0.0,0.0,-0.7668,0.0,0.0,0.0,0.0,-1.2252,-1.4567,-1.5399,-1.5628,-1.541,-1.541,0.0,0.0,-1.5514,-1.4994,-1.4431,-1.5095,-1.5024,-1.4585,-1.4376,-1.4336,-1.4233,-1.3298,-1.4237,-1.5471,-1.4395,-1.4673,-1.521,-1.4572,-1.4269,-1.3947,-1.3164,-1.2936,-1.2728,-1.2001,-1.1531,-1.1041,0.0,0.0,0.0,0.0,0.0,0.0,0.0,0.0,0.0,0.0,0.0,0.0,0.0,0.0,0.0,1.034,0.681,0.4572,0.5147,0.4099,0.0,0.0,0.0,0.0,-0.1168,-0.1012,-0.1556,-0.3019,-0.251,-0.2573,-0.3221,-0.2899,-0.321,-0.405,-0.4518,-0.5227,-0.6184,-0.7031,-0.8156,-0.9373,-1.0,-1.088,-1.1904,-1.3233,-1.5124,-1.7316,-1.8246,-1.854,-1.8539,0.0,0.0,0.0,0.0,0.0,0.0,0.0,-0.272,0.0,-0.2572,0.0,-0.3738,-0.4349,-0.4519,-0.4574,-0.4574,0.0,-0.4574,-0.4519,-0.4519,-0.4467,-0.4249,-0.4021,-0.3852,-0.3683,-0.3732,0.0,0.0,0.0,0.0,0.0,0.0,0.0,0.0,0.0,0.0,0.0,-1.43,-1.4931,0.0,-1.4968,-1.5021,-1.5064,-1.4824,-1.4261,-1.3406,-1.2125,-1.2122,-1.2924,-1.3959,-1.3826,-1.3143,-1.2508,-1.3605,-1.4809,-1.3198,-1.4337,-1.5798,-1.441,-1.4673,-1.5257,-1.485,-1.4589,-1.4337,-1.3871,-1.313,-1.2506,-1.2313,-1.205,-1.1631,0.0,0.0,0.0,0.0,0.0,0.0,0.0,0.0,0.0,0.0,0.0,0.0,0.0,0.5001,0.3038,0.4168,0.4827,0.0,0.0,0.0,0.0,-0.1047,-0.0478,0.0,-0.1564,0.0,-0.044,-0.1334,-0.0959,-0.11,-0.1725,-0.2421,-0.3168,-0.3926,-0.5964,-0.7183,-0.7785,-0.9057,-1.0056,-1.1023,-1.3465,-1.5825,-1.7846,-1.8086,-1.7314,-1.6317,0.0,0.0,0.0,0.0,0.0,-0.1163,-0.1855,-0.198,-0.2337,-0.3297,-0.3201,-0.3297,-0.3852,-0.4457,-0.4846,-0.4846,-0.4846,0.0,0.0,0.0,0.0,-0.4463,-0.4408,-0.4298,-0.4079,-0.3907,-0.4233,0.0,-0.4776,-0.5269,0.0,0.0,0.0,0.0,0.0,0.0,-0.8889,-0.8601,0.0,-0.9011,-0.9011,-0.9307,-0.9733,-0.9714,-0.9278,-0.893,-1.0296,-1.0921,-1.0879,-0.9847,-1.0343,-1.111,-0.9584,-1.1245,-1.343,-1.1766,-1.3065,-1.5005,-1.4718,-1.5129,-1.5593,-1.555,-1.5062,-1.454,-1.4117,-1.3728,-1.3408,-1.3134,-1.3043,-1.2742,-1.1905,0.0,0.0,0.0,0.0,0.0,0.0,0.0,0.0,0.0,0.0,0.0,0.0,0.0,0.5506,0.6434,0.0,0.0,0.0,0.0,0.0,0.0,0.0,0.0,0.0,0.0,0.0,0.0438,-0.0376,-0.1429,-0.2672,-0.298,-0.3804,-0.5062,-0.656,-0.7506,-0.8078,-0.9155,-1.0856,-1.2997,-1.5971,-1.7397,-1.7646,-1.6289,-1.4646,-1.352,0.0,0.0,0.0,0.0,0.0,0.0,0.0,-0.1155,0.0,-0.1872,-0.2308,-0.2685,-0.2963,-0.3572,-0.3959,-0.3959,-0.4239,-0.4353,-0.4242,-0.4242,-0.4187,-0.4024,-0.3852,0.0,-0.3633,-0.3299,-0.3405,-0.4064,-0.4229,-0.4666,0.0,0.0,0.0,-0.7028,0.0,-0.7544,0.0,0.0,0.0,-0.7521,-0.7521,-0.7676,-0.7931,-0.7792,-0.7496,-0.7245,-0.8059,-0.8319,-0.8315,-0.897,-0.9335,-0.9359,-0.8332,-0.9903,-1.1855,-1.0367,-1.191,-1.3965,-1.3286,-1.4244,-1.5315,-1.4788,-1.4673,-1.4589,-1.4154,-1.3881,-1.3757,-1.374,-1.4136,-1.4268,-1.3721,-1.2743,0.0,0.0,0.0,0.0,0.0,0.0,0.0,0.0,0.0,0.0,0.0,0.0,0.0,0.0,0.0,0.0,0.0,0.0,0.0,0.0,0.0,0.0,0.0,0.0,0.0,0.0445,0.0822,0.0489,-0.0432,0.0054,-0.0267,-0.1278,-0.2418,-0.3069,-0.3305,-0.2767,-0.2884,-0.3554,-0.504,-0.8571,-1.2539,-1.02,-1.0554,-1.2317,0.0,-0.0575,0.0,0.0,0.0069,0.0,-0.0672,-0.0591,-0.0638,-0.068,-0.1524,-0.2145,-0.2186,-0.2629,-0.2907,-0.2907,-0.3352,-0.3574,-0.3463,-0.3463,-0.3411,-0.3304,-0.3077,-0.2963,-0.3074,-0.2687,-0.2687,0.0,0.0,0.0,0.0,0.0,-0.6054,-0.6274,0.0,0.0,0.0,0.0,-0.6637,-0.7025,-0.7025,-0.7133,-0.7331,-0.7141,-0.6963,-0.6812,-0.6509,-0.6259,-0.6379,-0.8441,-0.8671,-0.8021,-0.7724,-0.8955,-1.0314,-0.9234,-1.0873,-1.2793,-1.1834,-1.3198,-1.4702,-1.3995,-1.4095,-1.426,-1.3975,-1.3776,-1.3712,-1.3844,-1.4517,-1.5046,-1.493,-1.4129,0.0,0.0,0.0,0.0,0.0,0.0,0.0,0.0,0.0,0.0,0.0,0.0,0.0,0.0,0.0,0.0,0.0,0.0,0.0,0.0,0.0,0.1129,0.1234,0.0,0.2341,0.0,0.25,0.272,0.2216,0.309,0.3187,0.2571,0.1517,0.1322,0.1873,0.361,0.4903,0.5665,0.5276,0.033,-0.6238,-0.3312,-0.5606,-0.9875,0.0,0.0,0.0,0.0,0.0,0.0,0.0,-0.0986,-0.1149,-0.1671,-0.1854,-0.2026,-0.2191,-0.2238,-0.2294,-0.2294,-0.235,-0.235,-0.235,-0.235,-0.235,-0.2352,-0.2294,-0.2462,-0.2905,-0.2631,-0.2965,0.0,0.0,0.0,0.0,0.0,-0.5081,-0.5579,0.0,0.0,0.0,-0.512,-0.512,-0.5496,-0.5496,-0.6036,-0.6848,-0.6827,-0.6949,-0.7025,-0.6818,-0.6561,-0.6299,-0.6355,-0.6838,-0.7419,-0.7405,-0.8125,-0.8872,-0.8755,-0.9991,-1.1468,-1.1699,-1.2785,-1.3909,-1.4174,-1.3693,-1.3234,-1.3551,-1.3437,-1.3185,-1.2898,-1.3337,-1.3882,-1.4218,-1.4292,-1.4262,0.0,0.0,0.0,0.0,0.0,0.0,0.0,0.0,0.0,0.0,0.0,0.0,0.0,0.0,0.0,0.0,0.0,0.0,0.0122,0.0,0.3463,0.5167,0.4045,0.0,0.5629,0.47,0.3923,0.3364,0.3473,0.3187,0.2571,0.1517,0.2086,0.3837,0.5027,0.5617,0.5523,0.3901,0.1387,-0.0948,0.2063,0.0191,-0.3515,0.0,0.0,0.0,0.0,0.0,0.0,0.0,-0.0133,-0.0655,-0.1273,-0.1337,-0.1337,-0.1407,-0.1736,-0.1959,-0.1959,-0.2293,-0.2462,-0.2408,-0.2352,-0.2352,-0.2184,-0.2184,-0.2294,-0.2462,-0.2577,-0.2687,0.0,0.0,0.0,0.0,0.0,0.0,0.0,0.0,-0.3738,-0.4346,-0.4128,-0.4349,-0.4846,-0.5007,-0.5277,-0.5655,-0.5655,-0.565,-0.5569,-0.5413,-0.5209,-0.5006,-0.5335,-0.6118,-0.6923,-0.6979,-0.7641,-0.839,-0.8308,-0.9198,-1.02,-1.0277,-1.1413,-1.2492,-1.2216,-1.2386,-1.2652,-1.2683,-1.2905,-1.3086,-1.3105,-1.3465,-1.3883,-1.4251,-1.4515,-1.4739,0.0,0.0,0.0,0.0,0.0,0.0,0.0,0.0,-0.4699,0.0,0.0,0.0,0.0,0.0,0.5276,0.2549,0.0,0.0,0.3171,0.0,0.3649,0.5673,0.5005,0.4761,0.514,0.5358,0.5354,0.5128,0.5837,0.6098,0.6051,0.734,0.9383,1.1964,1.4122,1.6045,1.7585,1.6889,1.2395,0.6658,0.9589,0.5745,-0.0691,0.2823,0.0,0.2548,0.0,0.1881,0.1411,0.1411,0.0538,-0.0266,-0.0712,-0.0933,-0.1013,-0.0915,-0.1296,-0.1512,-0.1512,-0.1902,-0.2125,-0.2017,-0.2017,-0.1961,-0.1849,-0.1793,0.0,-0.2015,-0.224,-0.2352,-0.2296,-0.2796,0.0,0.0,-0.3246,0.0,0.0,-0.246,-0.2687,-0.3249,-0.3186,-0.3461,-0.3849,-0.4015,-0.4288,-0.4567,-0.4567,-0.4667,-0.4763,-0.4645,-0.4508,-0.4415,-0.4776,-0.5531,-0.631,-0.6496,-0.7182,-0.7848,-0.7889,-0.8513,-0.9208,-0.9359,-1.0159,-1.0954,-1.0803,-1.1135,-1.1566,-1.1808,-1.2182,-1.2664,-1.3216,-1.3543,-1.383,-1.4182,-1.4508,-1.4911,-1.5472,0.0,0.0,0.0,0.0,0.0,0.0,-0.8296,-0.6081,-0.3682,0.0,0.0,0.0,0.0,0.5009,0.304,0.0,0.0,0.0,0.0,0.0,0.0,0.5843,0.5529,0.5412,0.6293,0.6977,0.7553,0.9283,1.0084,1.0398,1.3619,1.6212,1.8419,2.0555,2.2674,2.4512,2.3832,1.887,1.2332,1.4347,0.9831,0.28,0.3132,0.3013,0.2913,0.2913,0.2507,0.2214,0.2214,0.0805,-0.0266,-0.0194,-0.0836,-0.1196,-0.0949,-0.0915,-0.0898,-0.0898,-0.0898,-0.0898,-0.0898,-0.0898,-0.0898,0.0,0.0,-0.1121,-0.1621,-0.1621,-0.1959,-0.2691,0.0,0.0,-0.2399,-0.3074,-0.3244,-0.2905,-0.2736,-0.2629,-0.2521,-0.2296,-0.224,-0.224,-0.224,-0.2852,-0.3796,-0.3796,-0.4457,-0.5253,-0.508,-0.4968,-0.4964,-0.4614,-0.4819,-0.5327,-0.607,-0.6634,-0.7105,-0.7558,-0.8028,-0.857,-0.939,-0.9301,-0.9341,-1.0601,-1.0163,-0.9766,-1.1035,-1.133,-1.169,-1.2947,-1.3254,-1.343,-1.3829,-1.4226,-1.4687,-1.523,0.0,0.0,0.0,0.0,0.0,0.0,-0.9751,-0.709,-0.5268,0.0,0.0,0.0,0.0,0.0,0.0,0.0,0.0,0.3938,0.4464,0.0,0.8229,0.6903,0.6735,0.7848,0.7901,0.8867,1.0771,1.3761,1.5077,1.5238,1.9315,2.1109,2.1176,2.1751,2.2055,2.1915,1.9529,1.7062,1.4848,1.49,1.193,0.7984,0.3761,0.3436,0.3194,0.2628,0.2336,0.2062,0.155,0.1008,0.0469,-0.0,-0.0261,-0.0385,-0.0314,-0.0659,-0.0928,0.0,-0.108,-0.101,0.0,-0.101,-0.101,-0.0898,-0.0917,-0.0986,-0.1102,-0.1185,-0.1304,-0.1449,0.0,0.0,0.0,-0.1568,-0.1456,-0.1064,-0.0896,-0.0784,-0.0616,-0.123,-0.1341,-0.1174,-0.1902,-0.2406,-0.2685,-0.2685,-0.2905,-0.3222,-0.3542,-0.3655,-0.3684,-0.4165,-0.439,-0.467,-0.5547,-0.6136,-0.6634,-0.7098,-0.7724,-0.8308,-0.8586,-0.891,-0.9288,-0.9707,-1.0041,-1.0313,-1.0735,-1.1249,-1.1885,-1.2747,-1.272,-1.2745,-1.3301,-1.3788,-1.4399,-1.5348,-1.5669,0.0,0.0,0.0,0.0,0.0,-1.0834,-0.8689,0.0,-0.4785,0.0,0.0,0.0,0.0,0.0,0.0,0.0,0.0,0.5864,0.0,0.8285,0.7689,0.8193,0.9794,0.9809,1.1208,1.3819,1.5531,1.6332,1.6563,1.9465,2.0782,2.1004,2.2765,2.3522,2.3446,2.2689,2.0108,1.6799,1.6799,1.4017,1.0105,0.4384,0.3762,0.3231,0.2663,0.2369,0.2023,0.1575,0.1218,0.0807,0.0336,0.0066,-0.0131,-0.0131,-0.0377,0.0,-0.0945,-0.1099,-0.1194,-0.1179,-0.1022,-0.08,-0.0628,-0.0412,-0.024,-0.012,0.0,0.0,-0.0943,-0.1223,-0.1088,-0.0561,-0.0673,-0.0505,-0.0112,-0.0056,0.0056,0.0112,0.028,-0.0056,-0.0671,-0.1287,-0.1792,-0.2127,-0.2071,-0.2181,-0.2454,-0.2782,-0.2868,-0.3013,-0.3688,-0.3904,-0.4043,-0.4968,-0.5448,-0.585,-0.6649,-0.732,-0.7807,-0.8136,-0.8423,-0.8748,-0.9199,-0.9597,-1.0021,-1.0505,-1.1217,-1.192,-1.233,-1.221,-1.2215,-1.2726,-1.3362,-1.414,-1.5242,-1.5796,-1.6372,-1.7143,0.0,0.0,0.0,0.0,0.0,0.0,-0.5843,0.0,0.0,0.0,0.0,0.0,0.0,0.0,0.566,0.6041,0.0,0.9186,0.9054,1.0113,1.2353,1.3504,1.4917,1.6605,1.8427,1.9165,1.9157,2.1072,2.1946,2.2051,2.262,2.2708,2.241,2.1515,1.935,1.6742,1.6742,1.4738,1.1877,0.5004,0.3993,0.0,0.0,0.2617,0.0,0.2181,0.1442,0.0809,0.0809,0.0202,-0.0202,-0.0202,-0.0066,-0.0127,-0.0477,0.0,0.0,0.0,-0.0814,-0.0413,-0.0118,0.0364,0.0803,0.1174,0.0495,-0.0244,-0.1004,-0.1085,-0.0729,0.0056,-0.0112,-0.0112,0.0112,0.0056,-0.0,-0.0,0.1797,0.1347,-0.0561,-0.0393,-0.0952,-0.1847,-0.1734,-0.2068,-0.2569,-0.2625,-0.2625,-0.2724,-0.3181,-0.3361,-0.3603,-0.4437,-0.4729,-0.498,-0.6296,-0.6818,-0.7159,-0.7934,-0.7844,-0.7795,-0.8878,-0.8918,-0.9039,-1.0341,-1.118,-1.1737,-1.1774,-1.1774,-1.1859,-1.222,-1.3011,-1.3938,-1.4988,-1.5958,-1.6825,-1.7562,0.0,0.0,0.0,0.0,0.0,0.0,-0.6197,-0.4035,0.0,0.0,0.0,0.0,0.0,0.3696,0.3707,0.5504,0.7862,1.0656,1.0893,1.2481,1.5398,1.8409,1.9573,1.9162,2.2042,2.3085,2.2682,2.3707,2.4159,2.3973,2.1643,2.0355,1.9628,1.7334,1.6015,1.5417,1.5374,1.4485,1.3273,0.0,0.0,0.4315,0.363,0.2916,0.2436,0.2388,0.1623,0.1041,0.1041,0.0886,0.0739,0.0739,0.0468,0.0197,0.019,-0.0186,-0.0426,-0.0363,-0.0061,0.0122,0.0061,0.0627,0.0892,0.0764,0.0846,0.0257,-0.0975,-0.0058,0.0561,0.0954,0.1403,0.1515,0.1347,0.0898,0.0673,0.0673,0.0842,0.0785,0.0505,0.028,-0.0168,-0.0728,-0.0504,-0.0784,-0.14,-0.1846,-0.2014,-0.2122,-0.2658,-0.3257,-0.3799,-0.4466,-0.4955,-0.5378,-0.6154,-0.6613,-0.6939,-0.737,-0.7801,-0.8047,-0.7881,-0.8193,-0.895,-1.0495,-1.0736,-1.0878,-1.1726,-1.1616,-1.1726,-1.277,-1.3302,-1.4059,-1.5476,-1.6136,-1.6686,-1.7436,-1.655,0.0,0.0,-1.3466,-1.1886,-1.1687,-0.8982,-0.7237,0.0,0.0,0.0,0.0,0.0,0.2941,0.5494,0.8193,0.9965,1.0706,1.2925,1.538,1.7963,2.0924,2.2118,2.1748,2.3295,2.3923,2.3783,2.3686,2.3671,2.3546,2.2106,2.144,2.1196,2.0174,1.8797,1.7381,1.701,1.5721,1.4039,0.5709,0.524,0.4825,0.4378,0.3571,0.3006,0.2964,0.2508,0.2029,0.1749,0.1641,0.1411,0.1143,0.0807,0.0668,0.0725,0.0128,-0.025,-0.0247,0.0187,0.0441,0.0441,0.1165,0.1576,0.1575,0.1599,0.0914,-0.0431,0.0417,0.1327,0.2301,0.2681,0.2622,0.2188,0.185,0.1513,0.1232,0.1008,0.0784,0.0561,0.0449,0.0112,-0.028,-0.0056,-0.0336,-0.0842,-0.1176,-0.14,-0.1681,-0.2293,-0.2738,-0.3239,-0.4125,-0.4566,-0.4908,-0.5751,-0.6132,-0.6374,-0.7006,-0.7379,-0.7627,-0.7781,-0.8143,-0.8756,-0.9785,-0.9991,-1.0195,-1.097,-1.1139,-1.1481,-1.2407,-1.307,-1.3917,-1.535,-1.5905,-1.6556,-1.7635,-1.7072,0.0,-1.6625,-1.5188,-1.418,-1.4143,-1.1209,-0.9365,-0.9553,0.0,0.0,0.137,0.2582,0.3932,0.5746,0.9471,1.1863,1.2681,1.6834,1.9529,2.084,2.2897,2.3626,2.317,2.3883,2.4028,2.3676,2.3415,2.3231,2.3074,2.246,2.1874,2.1348,2.0831,1.9682,1.825,1.7755,1.6565,1.4969,0.6338,0.5709,0.516,0.516,0.4456,0.3865,0.3865,0.3632,0.3233,0.2673,0.2396,0.208,0.1478,0.1411,0.1411,0.1411,0.0657,0.0064,-0.0188,0.032,0.0714,0.0907,0.1727,0.2354,0.2621,0.2339,0.1628,0.0495,0.0863,0.1853,0.3398,0.3553,0.3302,0.2858,0.2747,0.2352,0.1734,0.1679,0.1175,0.0392,0.0449,0.0224,-0.0112,0.0056,-0.0168,-0.0617,-0.0617,-0.0841,-0.1178,-0.1792,-0.2071,-0.235,-0.3408,-0.3855,-0.4132,-0.5124,-0.5387,-0.562,-0.6569,-0.6724,-0.6919,-0.8042,-0.8387,-0.855,-0.8973,-0.9366,-0.974,-1.0185,-1.0597,-1.1049,-1.1697,-1.2515,-1.3506,-1.4796,-1.5396,-1.6164,-1.7547,0.0,-1.7449,-1.7448,-1.6824,-1.6308,-1.6095,-1.3094,-1.1195,-1.1408,-0.7591,-0.2293,0.0,0.5931,0.6711,0.7012,1.1209,1.4423,1.6311,2.1059,2.3373,2.3298,2.4197,2.4309,2.3693,2.3929,2.3666,2.3045,2.3045,2.2919,2.2685,2.2517,2.1828,2.0847,2.0325,1.9468,1.8422,1.7894,1.6983,1.5823,0.6338,0.6183,0.6103,0.6103,0.5378,0.482,0.482,0.4173,0.3608,0.3395,0.3322,0.3151,0.2882,0.2882,0.2882,0.2882,0.2736,0.2127,0.0929,0.12,0.1337,0.1069,0.1812,0.2221,0.2287,0.223,0.2126,0.1915,0.1992,0.2233,0.2621,0.3285,0.3527,0.3416,0.2914,0.2635,0.2521,0.1964,0.1625,0.1343,0.0953,0.0617,0.0336,0.0617,0.0393,-0.0112,-0.0112,-0.0168,-0.028,-0.0785,-0.1344,-0.1958,-0.2569,-0.3181,-0.3793,-0.446,-0.4535,-0.4624,-0.569,-0.5872,-0.6251,-0.8084,-0.8307,-0.8349,-0.9268,-0.9636,-0.9921,-1.0525,-1.0428,-1.0526,-1.1388,-1.1861,-1.2584,-1.3953,-1.4439,-1.4978,-1.594,0.0,-1.6267,-1.6247,-1.6069,-1.5954,-1.6009,-1.4796,-1.4104,-1.4239,-0.7453,-0.1804,0.1749,0.8011,1.2577,1.4957,1.7288,1.9601,2.1918,2.302,2.3612,2.3701,2.4085,2.3908,2.3218,2.3259,2.308,2.2764,2.2764,2.2738,2.2615,2.1606,2.1084,2.0783,1.9707,1.8945,1.8383,1.7531,1.687,1.6188,0.7099,0.6641,0.6338,0.6412,0.6173,0.5938,0.586,0.5532,0.5082,0.4576,0.4421,0.4154,0.3553,0.348,0.3416,0.3351,0.3416,0.3147,0.2281,0.2348,0.2214,0.1678,0.215,0.2487,0.2487,0.2454,0.2548,0.2702,0.2838,0.2965,0.2951,0.3438,0.3677,0.3672,0.3329,0.3112,0.2873,0.2538,0.2319,0.2063,0.1522,0.1232,0.112,0.0953,0.0561,0.0112,0.0112,-0.0056,-0.0224,-0.0449,-0.0784,-0.1175,-0.1953,-0.2454,-0.2899,-0.3685,-0.4515,-0.5265,-0.5663,-0.5864,-0.6257,-0.7345,-0.7382,-0.7313,-0.797,-0.8346,-0.8623,-0.8783,-0.9352,-0.989,-1.0148,-1.0499,-1.1195,-1.258,-1.2583,0.0,0.0,-1.4553,-1.4667,-1.4988,-1.4335,-1.3903,-1.4049,-1.37,-1.1799,-0.7805,-0.5788,-0.1031,0.7463,1.0079,1.3769,1.9158,1.9832,2.1367,2.4092,2.3774,2.3592,2.3582,2.3675,2.3491,2.3077,2.2873,2.2822,2.2876,2.2224,2.2057,2.2136,2.1271,2.0701,2.0353,1.9549,1.8636,1.7666,1.7037,1.633,1.5567,0.8012,0.7326,0.6795,0.6945,0.6868,0.6718,0.6714,0.6655,0.6426,0.5716,0.5476,0.5117,0.4333,0.4228,0.4148,0.4087,0.4082,0.4079,0.3816,0.3816,0.3349,0.248,0.2818,0.3086,0.3086,0.3153,0.3317,0.3508,0.372,0.3733,0.3547,0.3797,0.384,0.3751,0.3691,0.3527,0.3285,0.323,0.3018,0.2722,0.2121,0.1925,0.1867,0.1461,0.0953,0.0504,0.056,0.028,-0.0112,-0.0224,-0.028,-0.0448,-0.1453,-0.1786,-0.1955,-0.2963,-0.4291,-0.5445,-0.5609,-0.5717,-0.5972,-0.6696,-0.671,-0.6619,-0.6965,-0.7309,-0.7511,-0.7353,-0.8208,-0.8882,-0.8625,-0.8912,-0.9511,-1.0597,0.0,0.0,0.0,-1.2359,-1.2501,-1.2837,-1.2243,-1.1807,-1.1809,-1.1909,-0.937,-0.3051,-0.3407,0.0803,1.1602,1.261,1.5729,2.1942,2.1624,2.2297,2.4329,2.3874,2.3474,2.3125,2.3249,2.3182,2.2875,2.2565,2.2488,2.2556,2.1611,2.136,2.1546,2.0958,2.0405,1.9958,1.9513,1.844,1.7066,1.6604,1.582,1.4834,0.8922,0.8389,0.8008,0.8008,0.7395,0.6865,0.6865,0.6878,0.6767,0.6533,0.6399,0.6199,0.6054,0.5847,0.5756,0.5756,0.555,0.555,0.5686,0.555,0.4815,0.3487,0.3887,0.4154,0.4154,0.4483,0.4677,0.4668,0.4677,0.4486,0.4041,0.4226,0.4038,0.3531,0.3745,0.3852,0.3762,0.3936,0.3742,0.3243,0.2911,0.264,0.2337,0.238,0.2015,0.1511,0.1623,0.1288,0.0729,0.028,0.0168,-0.0,-0.0897,-0.1178,-0.1401,-0.246,-0.3236,-0.3956,-0.4886,-0.4772,-0.4816,-0.6617,-0.7015,-0.7036,-0.7376,-0.7588,-0.7694,-0.7664,-0.7452,-0.7197,-0.6999,-0.7362,-0.7641,-0.7639,0.0,0.0,-0.848,-0.9133,-0.9428,-0.8974,-0.9933,-1.0467,-1.0024,-1.0441,-0.9599,-0.686,-0.0514,0.4614,0.7781,1.6163,2.1851,2.4024,2.3928,2.3455,2.2676,2.3399,2.3279,2.2304,2.3041,2.2986,2.2265,2.2221,2.1786,2.1068,2.0974,2.0942,2.0927,2.032,2.0028,1.9924,1.9354,1.8302,1.7053,1.6566,1.5596,1.4373,0.9911,0.9674,0.9367,0.9064,0.914,0.914,0.8609,0.825,0.7935,0.7738,0.7244,0.6833,0.6726,0.6654,0.6545,0.6406,0.631,0.6248,0.6116,0.6011,0.5481,0.435,0.4082,0.4015,0.4287,0.442,0.4616,0.4815,0.4815,0.4791,0.4745,0.4913,0.4942,0.4839,0.4677,0.462,0.4651,0.4195,0.3985,0.3851,0.3371,0.3209,0.3193,0.2743,0.2479,0.2414,0.2364,0.1958,0.1456,0.1231,0.0952,0.0505,-0.0112,-0.028,-0.0449,-0.1064,-0.1454,-0.1843,-0.2892,-0.3506,-0.4012,-0.4721,-0.4933,-0.5039,-0.5542,-0.5864,-0.5968,-0.5475,-0.6086,-0.6367,-0.5479,-0.5751,-0.6171,-0.6279,0.0,-0.6768,-0.6738,-0.7224,-0.7354,-0.66,-0.5856,-0.5326,-0.512,-0.5298,-0.3125,0.2469,0.3462,0.6275,1.1923,1.6099,1.9037,2.0532,2.1943,2.2794,2.3065,2.2726,2.2358,2.1955,2.2262,2.2046,2.1374,2.1005,2.0863,2.0847,2.0131,1.9993,2.032,1.9671,1.9449,1.9427,1.9199,1.8118,1.665,1.6469,1.5306,1.3794,1.0781,1.0615,1.0285,0.9838,0.9974,0.9996,0.9628,0.9134,0.8768,0.8753,0.8184,0.7789,0.7588,0.7425,0.7193,0.6999,0.6676,0.6471,0.6267,0.6285,0.5947,0.5279,0.4812,0.468,0.4954,0.4954,0.5084,0.5282,0.5282,0.5282,0.5282,0.5571,0.5683,0.5572,0.5509,0.545,0.5505,0.4942,0.4662,0.4546,0.4102,0.3866,0.3853,0.3315,0.3019,0.2984,0.2974,0.2537,0.2015,0.2069,0.1679,0.1121,0.0616,0.028,-0.0056,-0.0336,-0.0393,-0.0616,-0.1453,-0.2233,-0.2959,-0.3461,-0.3624,-0.3683,-0.4125,-0.4453,-0.445,-0.3901,-0.4618,-0.5113,-0.4336,-0.4336,-0.4553,-0.4754,-0.4539,-0.4371,-0.4184,-0.413,-0.3905,-0.3294,-0.2041,-0.0995,-0.0385,-0.0542,0.1965,0.8276,0.6478,0.8162,1.5168,1.6415,1.7625,1.9144,2.0526,2.1675,2.262,2.2085,2.1622,2.1241,2.1425,2.1194,2.0603,2.0184,2.0116,2.0286,1.9449,1.9317,1.9671,1.9258,1.9026,1.8898,1.8898,1.7894,1.6409,1.6182,1.5142,1.3859,1.1638,1.1156,1.0641,1.0305,0.955,0.9129,0.9435,0.9198,0.9129,0.944,0.9346,0.9114,0.8815,0.8243,0.7817,0.7545,0.6741,0.628,0.642,0.642,0.635,0.6214,0.635,0.642,0.642,0.642,0.642,0.642,0.642,0.6148,0.5617,0.6152,0.6055,0.5449,0.6124,0.6363,0.6203,0.6319,0.6001,0.5328,0.5253,0.4753,0.4105,0.4173,0.3745,0.3173,0.3401,0.3104,0.2521,0.2683,0.2291,0.1734,0.1229,0.0448,-0.0393,-0.0393,-0.0393,-0.0505,-0.0954,-0.1066,-0.1512,-0.3181,-0.3569,-0.3569,-0.3569,-0.3569,-0.3572,-0.3413,-0.3244,-0.3241,-0.3685,-0.3183,-0.2681,-0.2681,-0.1442,-0.0498,-0.039,0.061,0.1329,0.1335,0.1225,0.1829,0.3572,0.3284,0.4495,0.7951,0.8216,1.0674,1.6184,1.7639,1.9159,2.1004,2.0356,2.0286,2.0879,2.1486,2.1194,1.9993,2.0603,2.0571,1.9993,1.9993,1.9687,1.9101,1.9101,1.9101,1.9101,1.9101,1.886,1.8514,1.8514,1.768,1.6429,1.574,1.5222,1.4729,1.2615,1.2237,1.178,1.1695,1.1293,1.1043,1.1203,1.0413,0.9857,1.0002,0.9449,0.9029,0.896,0.881,0.8646,0.8574,0.8228,0.8011,0.7852,0.7842,0.7842,0.7837,0.6937,0.6613,0.7134,0.6679,0.6679,0.7199,0.6679,0.6416,0.6548,0.6937,0.7167,0.7233,0.7167,0.7158,0.7104,0.6572,0.6264,0.6063,0.6082,0.6002,0.5856,0.5244,0.4904,0.4703,0.4309,0.3678,0.3135,0.3294,0.2959,0.2347,0.1789,0.1398,0.1064,0.0617,0.0505,0.0393,-0.0056,-0.0168,-0.0449,-0.1568,-0.1847,-0.1958,-0.2399,-0.2452,-0.251,-0.2736,-0.2792,-0.2625,-0.2011,-0.2176,-0.2176,-0.1563,-0.0723,-0.0056,0.0111,0.2443,0.3773,0.2971,0.402,0.4903,0.5089,0.6245,0.7407,0.8482,1.0237,1.2693,1.5911,1.6426,1.7437,1.9214,1.9483,1.9606,1.9651,2.0234,2.0353,1.9993,2.0184,1.9958,1.9354,1.9354,1.9258,1.9101,1.9101,1.9101,1.9064,1.8784,1.8846,1.8985,1.8273,1.78,1.7368,1.638,1.559,1.5068,1.3502,1.3057,1.2518,1.2472,1.2016,1.173,1.185,1.1101,1.0542,1.0648,1.0149,0.9769,0.967,0.9474,0.9354,0.9192,0.8853,0.8646,0.8495,0.849,0.849,0.849,0.7712,0.7456,0.7907,0.7456,0.7456,0.7907,0.7456,0.7199,0.7138,0.7652,0.7847,0.7787,0.7857,0.7917,0.7857,0.7391,0.706,0.6859,0.6859,0.6732,0.6523,0.602,0.5712,0.5615,0.5273,0.4633,0.4018,0.4233,0.3732,0.2959,0.2347,0.2014,0.1734,0.1344,0.1065,0.0785,0.0336,0.0224,0.0112,-0.0168,-0.0504,-0.0897,-0.1285,-0.1341,-0.1453,-0.162,-0.1677,-0.1564,-0.1062,-0.0893,-0.078,-0.0334,0.0833,0.1663,0.1717,0.4048,0.5437,0.4667,0.5824,0.6811,0.7041,0.8592,0.9926,1.0723,1.2714,1.454,1.6046,1.6625,1.7491,1.8693,1.908,1.9229,1.9101,1.9449,1.9636,1.9636,1.9636,1.9449,1.9101,1.9101,1.9026,1.886,1.886,1.8888,1.8906,1.8667,1.8769,1.8965,1.8358,1.8035,1.77,1.6549,1.5992,1.569,1.4335,1.3716,1.306,1.284,1.2154,1.1757,1.2036,1.1526,1.1262,1.1458,1.1263,1.0929,1.0732,1.0339,0.9988,0.9673,0.9116,0.8711,0.8711,0.8694,0.8683,0.8683,0.8683,0.8683,0.8683,0.8554,0.8554,0.8619,0.8554,0.8231,0.7652,0.8296,0.8296,0.7777,0.8312,0.8576,0.8576,0.8511,0.8117,0.7587,0.7587,0.719,0.6597,0.6531,0.6316,0.6069,0.6233,0.5706,0.503,0.523,0.4618,0.3624,0.2959,0.2402,0.1956,0.1902,0.1511,0.0953,0.056,0.0448,0.056,0.1118,0.0559,-0.0168,-0.0224,-0.028,-0.0336,-0.0393,-0.0224,-0.0168,-0.0447,0.0447,0.1171,0.0943,0.2768,0.4161,0.3944,0.5425,0.6519,0.6455,0.7026,0.7929,0.9221,1.0386,1.1844,1.3799,1.506,1.5972,1.6545,1.7666,1.8539,1.9026,1.9064,1.9064,1.9101,1.9064,1.9064,1.9101,1.9101,1.9101,1.9101,1.9064,1.8822,1.8461,1.8422,1.8533,1.8667,1.8571,1.8557,1.866,1.8511,1.8213,1.78,1.6541,1.6321,1.645,1.53,1.4782,1.4253,1.4183,1.3878,1.3592,1.3662,1.2855,1.2289,1.2362,1.171,1.1309,1.1243,1.1154,1.1099,1.0966,1.0691,1.043,1.043,1.029,1.0168,1.0168,1.0168,1.0168,1.0168,0.9069,0.8748,0.9262,0.8748,0.8619,0.8882,0.9075,0.9262,0.9442,0.9204,0.9151,0.9087,0.8705,0.8382,0.8317,0.8317,0.8182,0.7987,0.7456,0.7168,0.6926,0.635,0.5969,0.564,0.5278,0.5062,0.4728,0.3735,0.3292,0.3125,0.2625,0.2402,0.2291,0.2178,0.2178,0.2178,0.2347,0.2178,0.1788,0.095,0.0392,-0.0,-0.0336,0.0224,0.0895,0.1062,0.1676,0.223,0.2391,0.3597,0.4583,0.4801,0.6338,0.7605,0.8184,0.8652,0.9384,1.0482,1.1534,1.2745,1.4261,1.4307,1.5061,1.6938,1.698,1.7463,1.8577,1.863,1.8784,1.9101,1.8669,1.8644,1.9017,1.9078,1.9078,1.9017,1.876,1.8539,1.8344,1.7988,1.8057,1.8312,1.7539,1.7952,1.8948,1.7806,1.7994,1.8718,1.7074,1.6698,1.6883,1.6263,1.5683,1.518,1.518,1.4741,1.4401,1.4401,1.3838,1.3339,1.3339,1.2863,1.2497,1.2497,1.2497,1.2497,1.2497,1.2083,1.1791,1.1791,1.1254,1.0969,1.0969,1.0969,1.0909,1.0768,1.0043,0.978,1.004,0.9652,0.9524,0.9524,0.9722,0.9779,0.9767,0.9646,0.9646,0.9582,0.9081,0.8894,0.8829,0.8576,0.8517,0.8452,0.8117,0.784,0.769,0.7333,0.6844,0.6331,0.5836,0.5631,0.5559,0.4999,0.4666,0.4278,0.3674,0.3342,0.3065,0.279,0.2681,0.2792,0.307,0.2903,0.2569,0.2011,0.162,0.1341,0.1118,0.1509,0.1955,0.2235,0.279,0.3398,0.3947,0.4765,0.5579,0.6176,0.7272,0.8309,0.9093,0.9718,1.0685,1.212,1.2725,1.3711,1.5342,1.5174,1.5784,1.7625,1.7462,1.7733,1.8616,1.863,1.8655,1.864,1.8316,1.8365,1.8656,1.8523,1.8383,1.8266,1.8187,1.8058,1.7931,1.7457,1.7726,1.8346,1.7327,1.7797,1.9095,1.8081,1.8238,1.891,1.7418,1.6663,1.6244,1.6908,1.6403,1.5974,1.5974,1.5463,1.4966,1.4966,1.4714,1.4458,1.4458,1.413,1.3878,1.3878,1.3878,1.3878,1.3878,1.3217,1.2848,1.2848,1.2194,1.1758,1.1758,1.169,1.1512,1.1268,1.1081,1.0855,1.0624,1.0624,1.0421,1.0028,1.0358,1.0231,0.9837,1.0021,1.0148,1.0085,0.9652,0.9396,0.9396,0.8958,0.8765,0.8765,0.8641,0.8515,0.8392,0.8359,0.7871,0.7146,0.663,0.6407,0.6322,0.6313,0.5972,0.5456,0.493,0.4366,0.3863,0.3292,0.307,0.3125,0.3627,0.3403,0.3014,0.3014,0.2847,0.2681,0.2681,0.2792,0.2903,0.3128,0.379,0.4505,0.5277,0.5987,0.675,0.7616,0.8256,0.8942,0.9718,1.06,1.1701,1.3236,1.3616,1.4481,1.6071,1.6244,1.6841,1.8108,1.8082,1.8279,1.8784,1.8784,1.8616,1.8224,1.8256,1.8303,1.8385,1.8108,1.7879,1.7769,1.7731,1.7715,1.7638,1.6946,1.736,1.8435,1.7347,1.7812,1.9109,1.8564,1.8621,1.8881,1.7644,1.6415,1.541,1.6908,1.6839,1.676,1.676,1.6691,1.6621,1.6621,1.6,1.5615,1.5615,1.4923,1.4466,1.4466,1.4466,1.4466,1.4466,1.4188,1.3953,1.3953,1.3601,1.3361,1.3361,1.2766,1.2415,1.2371,1.1448,1.0855,1.0624,1.0744,1.0807,1.0933,1.1122,1.124,1.1303,1.0863,1.0674,1.0674,1.0155,0.9894,0.9894,0.9831,0.9767,0.9767,0.9332,0.9186,0.9064,0.8471,0.8166,0.8052,0.7452,0.7426,0.7565,0.7032,0.6851,0.6695,0.6406,0.5897,0.5352,0.5041,0.4622,0.4294,0.4349,0.4294,0.4239,0.4239,0.3458,0.2681,0.2681,0.3125,0.3514,0.3514,0.4567,0.5449,0.5719,0.675,0.7771,0.8514,0.919,0.9865,1.0541,1.1451,1.2107,1.2344,1.3773,1.4699,1.4926,1.5728,1.6634,1.7557,1.7544,1.7894,1.8784,1.8784,1.8784,1.8693,1.8739,1.8796,1.8794,1.894,1.8977,1.8861,1.8127,1.7894,1.8033,1.6683,1.69,1.8172,1.7111,1.7617,1.8992,1.8461,1.8518,1.8881,1.7644,1.6415,1.541,1.6908,1.6908,1.6908,1.6908,1.6908,1.6908,1.6908,1.6621,1.6403,1.6403,1.6114,1.5895,1.5895,1.5895,1.5895,1.5895,1.539,1.5088,1.5088,1.4506,1.421,1.421,1.3863,1.3639,1.3522,1.256,1.2107,1.2183,1.1255,1.0933,1.1178,1.124,1.1428,1.156,1.1373,1.1247,1.1178,1.0667,1.0478,1.0408,1.0148,1.0015,0.9958,0.9773,0.9518,0.9198,0.8579,0.8324,0.8243,0.8,0.8029,0.8091,0.7908,0.7903,0.7876,0.7475,0.6861,0.6199,0.5827,0.5167,0.4702,0.5039,0.4804,0.468,0.5281,0.478,0.4064,0.379,0.3904,0.4181,0.4508,0.512,0.5837,0.6632,0.7289,0.8037,0.9093,0.9555,1.0174,1.1309,1.2295,1.2929,1.3084,1.405,1.4869,1.5454,1.5852,1.6459,1.7325,1.7325,1.7571,1.8226,1.8226,1.8446,1.8808,1.8824,1.9062,1.9535,1.9621,1.9291,1.8608,1.8578,1.8636,1.8578,1.7302,1.7681,1.898,1.7279,1.7568,1.8939,1.841,1.8142,1.7895,1.7125,1.6262,1.5381]},{"header":{"parameterUnit":"m.s-1","parameterCategory":1,"la1":30.6,"la2":28.766,"lo1":-90.7593,"lo2":-88.6598,"dy":0.0162,"dx":0.0183,"nx":116,"ny":114,"refTime":"2024-06-29T06:00:00:Z","depth":0,"parameterNumber":3,"parameterNumberName":"V-component_of_WINDS"},"data":[0.0,0.0,0.0,0.0,0.0,0.0,0.0,0.0,0.0,0.0,0.0,0.0,0.0,0.0,0.0,0.0,0.0,0.0,0.0,0.0,0.0,0.0,0.0,0.0,0.0,0.0,0.0,0.0,0.0,0.0,0.0,0.0,0.0,0.0,0.0,0.0,0.0,0.0,0.0,0.0,0.0,0.0,0.0,0.0,0.0,0.0,0.0,0.0,0.0,0.0,0.0,0.0,0.0,0.0,0.0,0.0,0.0,0.0,0.0,0.0,0.0,0.0,0.0,0.0,0.0,0.0,0.0,0.0,0.0,0.0,0.0,0.0,0.0,0.0,0.0,0.0,0.0,0.0,0.0,0.0,0.0,0.0,0.0,0.0,0.0,0.0,0.0,0.0,0.0,0.0,0.0,0.0,0.0,0.0,0.0,0.0,0.0,0.0,0.0,0.0,0.0,0.0,0.0,0.0,0.0,0.0,0.0,0.0,0.0,0.0,0.0,0.0,0.0,0.0,0.0,0.0,0.0,0.0,0.0,0.0,0.0,0.0,0.0,0.0,0.0,0.0,0.0,0.0,0.0,0.0,0.0,0.0,0.0,0.0,0.0,0.0,0.0,0.0,0.0,0.0,0.0,0.0,0.0,0.0,0.0,0.0,0.0,0.0,0.0,0.0,0.0,0.0,0.0,0.0,0.0,0.0,0.0,0.0,0.0,0.0,0.0,0.0,0.0,0.0,0.0,0.0,0.0,0.0,0.0,0.0,0.0,0.0,0.0,0.0,0.0,0.0,0.0,0.0,0.0,0.0,0.0,0.0,0.0,0.0,0.0,0.0,0.0,0.0,0.0,0.0,0.0,0.0,0.0,0.0,0.0,0.0,0.0,0.0,0.0,0.0,0.0,0.0,0.0,0.0,0.0,0.0,0.0,0.0,0.0,0.0,0.0,0.0,0.0,0.0,0.0,0.0,0.0,0.0,0.0,0.0,0.0,0.0,0.0,0.0,0.0,0.0,0.0,0.0,0.0,0.0,0.0,0.0,0.0,0.0,0.0,0.0,0.0,0.0,0.0,0.0,0.0,0.0,0.0,0.0,0.0,0.0,0.0,0.0,0.0,0.0,0.0,0.0,0.0,0.0,0.0,0.0,0.0,0.0,0.0,0.0,0.0,0.0,0.0,0.0,0.0,0.0,0.0,0.0,0.0,0.0,0.0,0.0,0.0,0.0,0.0,0.0,0.0,0.0,0.0,0.0,0.0,0.0,0.0,0.0,0.0,0.0,0.0,0.0,0.0,0.0,0.0,0.0,0.0,0.0,0.0,0.0,0.0,0.0,0.0,0.0,0.0,0.0,0.0,0.0,0.0,0.0,0.0,0.0,0.0,0.0,0.0,0.0,0.0,0.0,0.0,0.0,0.0,0.0,0.0,0.0,0.0,0.0,0.0,0.0,0.0,0.0,0.0,0.0,0.0,0.0,0.0,0.0,0.0,0.0,0.0,0.0,0.0,0.0,0.0,0.0,0.0,0.0,0.0,0.0,0.0,0.0,0.0,0.0,0.0,0.0,0.0,0.0,0.0,0.0,0.0,0.0,0.0,0.0,0.0,0.0,0.0,0.0,0.0,0.0,0.0,0.0,0.0,0.0,0.0,0.0,0.0,0.0,0.0,0.0,0.0,0.0,0.0,0.0,0.0,0.0,0.0,0.0,0.0,0.0,0.0,0.0,0.0,0.0,0.0,0.0,0.0,0.0,0.0,0.0,0.0,0.0,0.0,0.0,0.0,0.0,0.0,0.0,0.0,0.0,0.0,0.0,0.0,0.0,0.0,0.0,0.0,0.0,0.0,0.0,0.0,0.0,0.0,0.0,0.0,0.0,0.0,0.0,0.0,0.0,0.0,0.0,0.0,0.0,0.0,0.0,0.0,0.0,0.0,0.0,0.0,0.0,0.0,0.0,0.0,0.0,0.0,0.0,0.0,0.0,0.0,0.0,0.0,0.0,0.0,0.0,0.0,0.0,0.0,0.0,0.0,0.0,0.0,0.0,0.0,0.0,0.0,0.0,0.0,0.0,0.0,0.0,0.0,0.0,0.0,0.0,0.0,0.0,0.0,0.0,0.0,0.0,0.0,0.0,0.0,0.0,0.0,0.0,0.0,0.0,0.0,0.0,0.0,0.0,0.0,0.0,0.0,0.0,0.0,0.0,0.0,0.0,0.0,0.0,0.0,0.0,0.0,0.0,0.0,0.0,0.0,0.0,0.0,0.0,0.0,0.0,0.0,0.0,0.0,0.0,0.0,0.0,0.0,0.0,0.0,0.0,0.0,0.0,0.0,0.0,0.0,0.0,0.0,0.0,0.0,0.0,0.0,0.0,0.0,0.0,0.0,0.0,0.0,0.0,0.0,0.0,0.0,0.0,0.0,0.0,0.0,0.0,0.0,0.0,0.0,0.0,0.0,0.0,0.0,0.0,0.0,0.0,0.0,0.0,0.0,0.0,0.0,0.0,0.0,0.0,0.0,0.0,0.0,0.0,0.0,0.0,0.0,0.0,0.0,0.0,0.0,0.0,0.0,0.0,0.0,0.0,0.0,0.0,0.0,0.0,0.0,0.0,0.0,0.0,0.0,0.0,0.0,0.0,0.0,0.0,0.0,0.0,0.0,0.0,0.0,0.0,0.0,0.0,0.0,0.0,0.0,0.0,0.0,0.0,0.0,0.0,0.0,0.0,0.0,0.0,0.0,0.0,0.0,0.0,0.0,0.0,0.0,0.0,0.0,0.0,0.0,0.0,0.0,0.0,0.0,0.0,0.0,0.0,0.0,0.0,0.0,0.0,0.0,0.0,0.0,0.0,0.0,0.0,0.0,0.0,0.0,0.0,0.0,0.0,0.0,0.0,0.0,0.0,0.0,0.0,0.0,0.0,0.0,0.0,0.0,0.0,0.0,0.0,0.0,0.0,0.0,0.0,0.0,0.0,0.0,0.0,0.0,0.0,0.0,0.0,0.0,0.0,0.0,0.0,0.0,0.0,0.0,0.0,0.0,0.0,0.0,0.0,0.0,0.0,0.0,0.0,0.0,0.0,0.0,0.0,0.0,0.0,0.0,0.0,0.0,0.0,0.0,0.0,0.0,0.0,0.0,0.0,0.0,0.0,0.0,0.0,0.0,0.0,0.0,0.0,0.0,0.0,0.0,0.0,0.0,0.0,0.0,0.0,0.0,0.0,0.0,0.0,0.0,0.0,0.0,0.0,0.0,0.0,0.0,0.0,0.0,0.0,0.0,0.0,0.0,0.0,0.0,0.0,0.0,0.0,0.0,0.0,0.0,0.0,0.0,0.0,0.0,0.0,0.0,0.0,0.0,0.0,0.0,0.0,0.0,0.0,0.0,0.0,0.0,0.0,0.0,0.0,0.0,0.0,0.0,0.0,0.0,0.0,0.0,0.0,0.0,0.0,0.0,0.0,0.0,0.0,0.0,0.0,0.0,0.0,0.0,0.0,0.0,0.0,0.0,0.0,0.0,0.0,0.0,0.0,0.0,0.0,0.0,0.0,0.0,0.0,0.0,0.0,0.0,0.0,0.0,0.0,0.0,0.0,0.0,0.0,0.0,0.0,0.0,0.0,0.0,0.0,0.0,0.0,0.0,0.0,0.0,0.0,0.0,0.0,0.0,0.0,0.0,0.0,0.0,0.0,0.0,0.0,0.0,0.0,0.0,0.0,0.0,0.0,0.0,0.0,0.0,0.0,0.0,0.0,0.0,0.0,0.0,0.0,0.0,0.0,0.0,0.0,0.0,0.0,0.0,0.0,0.0,0.0,0.0,0.0,0.0,0.0,0.0,0.0,0.0,0.0,0.0,0.0,0.0,0.0,0.0,0.0,0.0,0.0,0.0,0.0,0.0,0.0,0.0,0.0,0.0,0.0,0.0,0.0,0.0,0.0,0.0,0.0,0.0,0.0,0.0,0.0,0.0,0.0,0.0,0.0,0.0,0.0,0.0,0.0,0.0,0.0,0.0,0.0,0.0,0.0,0.0,0.0,0.0,0.0,0.0,0.0,0.0,0.0,0.0,0.0,0.0,0.0,0.0,0.0,0.0,0.0,0.0,0.0,0.0,0.0,0.0,0.0,0.0,0.0,0.0,0.0,0.0,0.0,0.0,0.0,0.0,0.0,0.0,0.0,0.0,0.0,0.0,0.0,0.0,0.0,0.0,0.0,0.0,0.0,0.0,0.0,0.0,0.0,0.0,0.0,0.0,0.0,0.0,0.0,0.0,0.0,0.0,0.0,0.0,0.0,0.0,0.0,0.0,0.0,0.0,0.0,0.0,0.0,0.0,0.0,0.0,0.0,0.0,0.0,0.0,0.0,0.0,0.0,0.0,0.0,0.0,0.0,0.0,0.0,0.0,0.0,0.0,0.0,0.0,0.0,0.0,0.0,0.0,0.0,0.0,0.0,0.0,0.0,0.0,0.0,0.0,0.0,0.0,0.0,0.0,0.0,0.0,0.0,0.0,0.0,0.0,0.0,0.0,0.0,0.0,0.0,0.0,0.0,0.0,0.0,0.0,0.0,0.0,0.0,0.0,0.0,0.0,0.0,0.0,0.0,0.0,0.0,0.0,0.0,0.0,0.0,0.0,0.0,0.0,0.0,0.0,0.0,0.0,0.0,0.0,0.0,0.0,0.0,0.0,0.0,0.0,0.0,0.0,0.0,0.0,0.0,0.0,0.0,0.0,0.0,0.0,0.0,0.0,0.0,0.0,0.0,0.0,0.0,0.0,0.0,0.0,0.0,0.0,0.0,0.0,0.0,0.0,0.0,0.0,0.0,0.0,0.0,0.0,0.0,0.0,0.0,0.0,0.0,0.0,0.0,0.0,0.0,0.0,0.0,0.0,0.0,0.0,0.0,0.0,0.0,0.0,0.0,0.0,0.0,0.0,0.0,0.0,0.0,0.0,0.0,0.0,0.0,0.0,0.0,0.0,0.0,0.0,0.0,0.0,0.0,0.0,0.0,0.0,0.0,0.0,0.0,0.0,0.0,0.0,0.0,0.0,0.0,0.0,0.0,0.0,0.0,0.0,0.0,0.0,0.0,0.0,0.0,0.0,0.0,0.0,0.0,0.0,0.0,0.0,0.0,0.0,0.0,0.0,0.0,0.0,0.0,0.0,0.0,0.0,0.0,0.0,0.0,0.0,0.0,0.0,0.0,0.0,0.0,0.0,0.0,0.0,0.0,0.0,0.0,0.0,0.0,0.0,0.0,0.0,0.0,0.0,0.0,0.0,0.0,0.0,0.0,0.0,0.0,0.0,0.0,0.0,0.0,0.0,0.0,0.0,0.0,0.0,0.0,0.0,0.0,0.0,0.0,0.0,0.0,0.0,0.0,0.0,0.0,0.0,0.0,0.0,0.0,0.0,0.0,0.0,0.0,0.0,0.0,0.0,0.0,0.0,0.0,0.0,0.0,0.0,0.0,0.0,0.0,0.0,0.0,0.0,0.0,0.0,0.0,0.0,0.0,0.0,0.0,0.0,0.0,0.0,0.0,0.0,0.0,0.0,0.0,0.0,0.0,0.0,0.0,0.0,0.0,0.0,0.0,0.0,0.0,0.0,0.0,0.0,0.0,0.0,0.0,0.0,0.0,0.0,0.0,0.0,0.0,0.0,0.0,0.0,0.0,0.0,0.0,0.0,0.0,0.0,0.0,0.0,0.0,0.0,0.0,0.0,0.0,0.0,0.0,0.0,0.0,0.0,0.0,0.0,0.0,0.0,0.0,0.0,0.0,0.0,0.0,0.0,0.0,0.0,0.0,0.0,0.0,0.0,0.0,0.0,0.0,0.0,0.0,0.0,0.0,0.0,0.0,0.0,0.0,0.0,0.0,0.0,0.0,0.0,0.0,0.0,0.0,0.0,0.0,0.0,0.0,0.0,0.0,0.0,0.0,0.0,0.0,0.0,0.0,0.0,0.0,0.0,0.0,0.0,0.0,0.0,0.0,0.0,0.0,0.0,0.0,0.0,0.0,0.0,0.0,0.0,0.0,0.0,0.0,0.0,0.0,0.0,0.0,0.0,0.0,0.0,0.0,0.0,0.0,0.0,0.0,0.0,0.0,0.0,0.0,0.0,0.0,0.9917,0.0,0.0,0.0,0.0,0.0,0.0,0.0,0.0,0.0,0.0,0.0,0.0,0.0,0.0,0.0,0.0,0.0,0.0,0.0,0.0,0.0,0.0,0.0,0.0,-0.0858,-0.0903,-0.0884,-0.0883,-0.0869,-0.0834,0.0,0.0,0.0,0.0,0.0,-0.254,-0.2782,-0.3298,-0.4051,-0.4469,-0.5121,-0.5888,-0.5422,-0.5138,-0.5064,0.0,0.0,0.0,0.0,0.0,0.0,0.0,0.0,0.0,0.0,0.0,0.0,0.0,0.0,0.0,0.0,0.0,0.0,0.0,0.0,0.0,0.0,0.0,0.0,0.0,0.0,0.0,0.0,0.0,0.0,0.0,0.0,0.0,0.0,0.0,0.0,0.0,0.0,0.0,0.0,0.0,0.0,0.0,0.0,0.0,0.0,0.0,0.0,0.0,0.0,0.0,0.0,0.0,0.0,0.0,0.0,0.0,0.0,0.0,0.0,0.0,0.0,0.0,0.0,0.0,0.0,0.0,0.0,0.0,0.0,0.0,0.9635,0.0,0.0,0.0,0.0,0.0,0.0,0.0,0.0,0.0,0.0,0.0,0.0,0.0,0.0,0.0,0.0,0.0,0.0,0.0,0.0,0.0,-0.1208,-0.1275,-0.1481,-0.1602,-0.1602,-0.1696,-0.1763,-0.1746,0.0,0.0,0.0,0.0,-0.4138,-0.4227,-0.4663,-0.5216,-0.5864,-0.647,-0.7432,-0.8765,-0.8964,-0.8595,0.0,-0.9057,0.0,0.0,0.0,0.0,0.0,0.0,0.0,0.0,0.0,0.0,0.0,0.0,0.0,0.0,0.0,0.0,0.0,0.0,0.0,0.0,0.0,0.0,0.0,0.0,0.0,0.0,0.0,0.0,0.0,0.0,0.0,0.0,0.0,0.0,0.0,0.0,0.0,0.0,0.0,0.0,0.0,0.0,0.0,0.0,0.0,0.0,0.0,0.0,0.0,0.0,0.0,0.0,0.0,0.0,0.0,0.0,0.0,0.0,0.0,0.0,0.0,0.0,0.0,0.9465,0.9602,0.9731,0.8313,0.7759,0.7953,0.886,0.8969,0.8586,0.0,0.0,0.0,0.0,0.0,0.0,0.0,0.0,0.0,0.0,0.0,0.0,0.0,0.0,0.0,0.0,0.0,0.0,0.0,0.0,-0.1044,-0.1104,-0.1673,-0.2027,-0.2027,-0.2431,-0.2868,-0.3196,0.0,0.0,0.0,-0.404,-0.432,-0.4788,-0.5366,-0.5926,-0.6473,-0.7883,-0.9115,-1.0166,0.0,0.0,0.0,-1.0465,-1.0258,0.0,0.0,0.0,0.0,0.0,0.0,0.0,0.0,0.0,0.0,0.0,0.0,0.0,0.0,0.0,0.0,0.0,0.0,0.0,0.0,0.0,0.0,0.0,0.0,0.0,0.0,0.0,0.0,0.0,0.0,0.0,0.0,0.0,0.0,0.0,0.0,0.0,0.0,0.0,0.0,0.0,0.0,1.6385,1.6533,0.0,0.0,0.0,0.0,0.0,0.0,0.0,0.0,0.0,0.0,0.0,0.0,0.0,1.0031,0.9409,0.9461,0.9194,0.858,0.8798,0.8652,0.8187,0.796,0.7617,0.7272,0.7494,0.0,0.6678,0.6756,0.0,0.0,0.0,0.0,0.0,0.0,0.0,0.0,0.0,0.0,0.0,0.0,0.0,0.0,0.0,0.0,0.0,0.0,0.0,0.0,0.0,-0.2117,-0.2394,-0.2536,-0.2765,-0.307,0.0,0.0,0.0,-0.4917,-0.5702,-0.6249,-0.6467,-0.7191,-0.8036,-0.8905,-1.026,-1.1217,0.0,0.0,0.0,0.0,-1.3031,-1.2748,0.0,0.0,0.0,0.0,0.0,0.0,0.0,0.0,0.0,0.0,0.0,0.0,0.0,0.0,0.0,0.0,0.0,0.0,0.0,0.0,0.0,0.0,0.0,0.0,0.0,0.0,0.0,0.0,0.0,0.0,0.0,0.0,0.0,0.0,0.0,0.0,0.0,0.0,0.0,0.0,0.0,1.5209,1.5951,1.643,1.5882,1.525,0.0,0.0,0.0,0.0,0.0,0.0,0.0,0.0,0.0,1.0103,0.9177,0.8629,0.858,0.8302,0.7823,0.7165,0.7433,0.7379,0.7047,0.6622,0.6465,0.6465,0.5756,0.5283,0.5061,0.5965,0.6197,0.5967,0.0,0.0,0.0,0.0,0.0,0.4827,0.0,0.0,0.0,0.0,0.0,0.0,0.0,0.0,0.0,0.0,0.0,0.0,-0.2281,-0.254,-0.2777,-0.3061,0.0,0.0,0.0,0.0,0.0,-0.6132,-0.7245,-0.7848,-0.7848,-0.8675,-0.9753,-1.104,-1.2057,0.0,0.0,0.0,0.0,0.0,0.0,0.0,0.0,0.0,0.0,0.0,0.0,0.0,0.0,0.0,0.0,0.0,0.0,0.0,0.0,0.0,0.0,0.0,0.0,0.0,0.0,0.0,0.0,0.0,0.0,0.0,0.0,0.0,0.0,0.0,0.0,0.0,0.0,0.0,0.0,0.0,0.0,0.0,0.0,0.0,0.0,0.0,0.0,1.5167,1.5628,1.6213,1.5363,1.4651,0.0,0.0,0.0,0.0,0.0,0.0,1.0509,0.9408,0.883,0.8888,0.7759,0.724,0.7362,0.7015,0.6583,0.6081,0.6239,0.618,0.5964,0.521,0.5054,0.5214,0.4181,0.3744,0.3852,0.516,0.5571,0.5364,0.5076,0.4848,0.4734,0.4448,0.3981,0.345,0.0,0.0,0.0,0.0,0.0,0.0,0.0,0.0,0.0,0.0,0.0,-0.1535,0.0,0.0,0.0,0.0,0.0,0.0,0.0,0.0,0.0,-0.7551,-0.8021,-0.8275,-0.8275,-0.9079,0.0,0.0,0.0,0.0,0.0,0.0,0.0,0.0,0.0,0.0,0.0,0.0,0.0,0.0,0.0,0.0,0.0,0.0,0.0,0.0,0.0,0.0,0.0,0.0,0.0,0.0,0.0,0.0,0.0,0.0,0.0,0.0,0.0,0.0,0.0,0.0,0.0,0.0,0.0,0.0,0.0,0.0,0.0,0.0,0.0,0.0,0.0,0.0,0.0,0.0,0.0,0.0,0.0,1.5771,1.5336,0.0,0.0,0.0,0.0,1.055,1.0316,0.9931,0.9155,0.8626,0.7888,0.695,0.6886,0.6514,0.5932,0.6154,0.61,0.5828,0.5483,0.5156,0.478,0.4168,0.3622,0.3241,0.3186,0.313,0.3186,0.3569,0.3738,0.3747,0.3691,0.3469,0.3193,0.3193,0.2907,0.2454,0.0,0.0,0.0,-0.0768,-0.0774,-0.0742,-0.0661,-0.0589,-0.0706,-0.11,-0.1341,0.0,0.0,0.0,0.0,0.0,0.0,0.0,0.0,0.0,0.0,-0.7422,-0.8503,-0.935,-0.9972,-1.0518,-1.1355,0.0,0.0,0.0,0.0,0.0,0.0,0.0,0.0,0.0,0.0,0.0,0.0,0.0,0.0,0.0,0.0,0.0,0.0,0.0,0.0,0.0,0.0,0.0,0.0,0.0,0.0,0.0,0.0,0.0,0.0,0.0,0.0,0.0,0.0,0.0,0.0,0.0,0.0,0.0,0.0,0.0,0.0,0.0,0.0,0.0,0.0,0.0,0.0,0.0,0.0,0.0,0.0,1.563,1.4507,0.0,1.3144,1.2006,1.0937,0.9953,0.9306,0.8567,0.7617,0.6827,0.6023,0.5358,0.5108,0.4831,0.4425,0.4497,0.4116,0.3335,0.3558,0.3337,0.2839,0.2619,0.2567,0.2681,0.2179,0.1955,0.1956,0.1902,0.2291,0.2901,0.2901,0.2569,0.2124,0.2012,0.1733,0.1399,-0.0431,-0.0504,0.0,-0.059,-0.0673,-0.0681,-0.0529,-0.0532,-0.0692,-0.107,0.0,0.0,0.0,0.0,0.0,0.0,0.0,0.0,0.0,0.0,-0.6984,-0.7486,-0.8832,-0.9988,-1.0901,-1.1201,0.0,0.0,0.0,0.0,0.0,0.0,0.0,0.0,0.0,0.0,0.0,0.0,0.0,0.0,0.0,0.0,-1.5789,0.0,0.0,0.0,0.0,0.0,0.0,0.0,0.0,0.0,0.0,0.0,0.0,0.0,0.0,0.0,0.0,0.0,0.0,0.0,0.0,0.0,0.0,0.0,0.0,0.0,0.0,0.0,0.0,0.0,0.0,0.0,0.0,0.0,0.0,0.0,1.481,1.4835,1.3632,1.2695,1.248,1.1319,1.0174,0.9124,0.8258,0.7287,0.6063,0.5206,0.4511,0.3903,0.3685,0.3519,0.3341,0.3119,0.2621,0.195,0.184,0.1616,0.128,0.106,0.1229,0.1676,0.1005,0.0783,0.0896,0.0616,0.0838,0.1395,0.1788,0.1621,0.1175,0.1119,0.084,0.0449,-0.0224,-0.0333,-0.0384,-0.0384,-0.0507,-0.0572,-0.0498,-0.0503,-0.063,-0.1036,0.0,0.0,0.0,0.0,0.0,0.0,0.0,0.0,0.0,0.0,-0.7732,-0.7918,-0.9055,-1.008,-1.0982,0.0,0.0,0.0,0.0,0.0,0.0,0.0,0.0,0.0,0.0,0.0,0.0,0.0,0.0,0.0,0.0,0.0,-1.6528,0.0,0.0,0.0,0.0,0.0,0.0,0.0,0.0,0.0,0.0,0.0,0.0,0.0,0.0,0.0,0.0,0.0,0.0,0.0,0.0,0.0,0.0,0.0,0.0,0.0,0.0,0.0,0.0,0.0,0.0,0.0,0.0,0.0,1.4487,1.4339,1.3939,1.3412,1.2745,1.1963,1.1065,1.021,0.9228,0.7947,0.7143,0.6009,0.4443,0.3947,0.3393,0.2698,0.2673,0.2667,0.2642,0.2043,0.1728,0.1671,0.0558,0.0056,0.0111,-0.0446,-0.0392,0.0112,-0.028,-0.0224,0.0112,-0.028,-0.0614,-0.0783,0.0392,0.0673,0.0393,0.0561,0.028,-0.0449,0.0025,-0.0025,-0.0049,-0.0049,-0.026,-0.041,-0.0223,-0.0369,-0.0528,0.0,0.0,0.0,0.0,0.0,0.0,0.0,0.0,0.0,0.0,0.0,-0.7382,-0.8502,-0.9248,0.0,0.0,0.0,0.0,0.0,0.0,0.0,0.0,0.0,0.0,0.0,0.0,0.0,0.0,0.0,0.0,0.0,0.0,0.0,-1.6367,0.0,0.0,0.0,0.0,0.0,0.0,0.0,0.0,0.0,0.0,0.0,0.0,0.0,0.0,0.0,0.0,0.0,0.0,0.0,0.0,0.0,0.0,0.0,0.0,0.0,0.0,0.0,0.0,0.0,0.0,0.0,0.0,1.363,1.3762,1.345,1.3047,1.2735,1.1674,1.0736,1.0167,0.911,0.8,0.6876,0.5629,0.4378,0.3231,0.2734,0.2239,0.1642,0.1671,0.1378,0.0849,0.1036,0.0559,-0.067,-0.0391,-0.067,-0.1396,-0.1453,-0.1398,-0.1231,-0.1342,-0.1342,-0.1231,-0.1342,-0.1454,-0.1454,-0.0448,-0.0168,-0.0393,-0.0449,-0.0896,-0.1567,0.0253,0.0181,0.0159,0.0264,0.0028,-0.0058,0.0146,-0.0095,-0.0303,0.0,0.0,0.0,0.0,0.0,0.0,0.0,0.0,0.0,-0.3994,-0.5523,-0.699,0.0,0.0,0.0,0.0,0.0,0.0,0.0,0.0,0.0,0.0,0.0,0.0,0.0,0.0,0.0,0.0,0.0,0.0,0.0,0.0,0.0,-1.5924,-1.5881,-1.595,-1.6001,-1.5695,-1.5687,-1.5738,-1.505,0.0,0.0,0.0,0.0,0.0,0.0,0.0,0.0,0.0,0.0,0.0,0.0,0.0,0.0,0.0,0.0,0.0,0.0,0.0,0.0,0.0,0.0,0.0,0.0,1.3086,1.3022,1.2826,1.2752,1.2521,1.194,1.0947,1.0087,0.9614,0.8435,0.7256,0.6013,0.4703,0.3448,0.2289,0.1847,0.1435,0.1089,0.1094,0.0803,0.006,0.0345,-0.0224,-0.1734,-0.1285,-0.1566,-0.2462,-0.2404,-0.2237,0.0,-0.2293,-0.2237,-0.2127,-0.2293,-0.2348,0.0,0.0,0.0,0.0,0.0,-0.19,-0.24,0.0415,0.0326,0.0339,0.0509,0.0385,0.0338,0.0585,0.0326,0.0068,0.0,0.0,0.0,0.0,0.0,0.0,0.0,0.0,0.0,0.0,0.0,0.0,0.0,0.0,0.0,0.0,0.0,0.0,0.0,0.0,0.0,0.0,0.0,0.0,0.0,0.0,0.0,0.0,0.0,0.0,0.0,0.0,0.0,-1.5285,-1.5226,-1.5106,-1.4984,-1.5359,-1.5548,-1.5517,-1.4782,0.0,0.0,0.0,0.0,0.0,0.0,0.0,0.0,0.0,0.0,0.0,0.0,0.0,0.0,0.0,0.0,0.0,0.0,0.0,0.0,0.0,0.0,0.0,0.0,1.2578,1.2323,1.1977,1.2197,1.208,1.1116,1.0506,0.9829,0.9106,0.8025,0.6784,0.5261,0.4106,0.2952,0.1621,0.0,0.0,0.0,0.0,0.057,-0.0059,0.0,-0.0672,-0.2069,-0.2015,-0.2348,-0.313,-0.313,-0.291,-0.2577,-0.2965,-0.291,-0.2633,-0.3021,-0.3132,-0.3019,-0.2068,-0.179,-0.1958,-0.2347,-0.2676,0.0,0.0595,0.06,0.0726,0.0816,0.0733,0.0708,0.0831,0.0674,0.0424,0.0034,-0.007,0.0,0.0,0.0,0.0,0.0,0.0,0.0,0.0,0.0,0.0,0.0,0.0,0.0,0.0,0.0,0.0,0.0,0.0,0.0,0.0,0.0,0.0,0.0,0.0,0.0,0.0,0.0,0.0,0.0,0.0,0.0,-1.4658,-1.4658,-1.441,-1.4044,-1.4146,-1.4087,-1.3955,-1.4036,-1.4286,-1.4674,-1.5074,0.0,0.0,0.0,0.0,0.0,0.0,0.0,0.0,0.0,0.0,0.0,0.0,0.0,0.0,0.0,0.0,0.0,0.0,0.0,0.0,1.2319,1.2349,1.2224,1.1927,1.1619,1.1217,1.0667,1.0087,0.9302,0.8243,0.7224,0.5973,0.4391,0.3398,0.2402,0.1401,0.1066,0.0,0.0765,0.0571,0.0228,-0.0294,0.0114,-0.0615,-0.24,0.0,0.0,-0.3357,-0.3357,-0.3188,-0.3021,-0.3246,-0.3302,-0.3246,-0.3416,-0.3413,-0.3302,-0.2575,-0.2352,-0.2408,-0.2577,-0.2854,-0.3183,0.1149,0.1061,0.1029,0.0998,0.1087,0.1174,0.1276,0.1115,0.0898,0.0693,0.052,0.0,0.0,0.0,0.0,0.0,0.0,0.0,0.0,0.0,0.0,0.0,0.0,0.0,0.0,0.0,0.0,0.0,0.0,0.0,0.0,0.0,0.0,0.0,0.0,0.0,0.0,0.0,0.0,0.0,0.0,0.0,-1.3179,-1.3302,-1.3153,-1.2901,-1.2775,-1.2832,-1.2945,-1.2793,-1.3133,-1.3618,-1.3797,-1.4474,-1.5536,0.0,0.0,0.0,0.0,0.0,0.0,0.0,0.0,0.0,0.0,0.0,0.0,0.0,0.0,1.2198,1.2361,0.0,1.2644,1.2406,1.2387,1.2224,1.1678,1.1318,1.0972,1.0573,0.9888,0.9086,0.8078,0.7004,0.581,0.4333,0.3289,0.2347,0.1568,0.1289,0.113,0.1263,0.113,0.0902,0.0458,0.1016,0.0335,-0.1619,-0.1173,-0.1564,-0.2629,-0.2854,-0.2742,-0.246,-0.2573,-0.2573,-0.2629,-0.2912,-0.3023,-0.2912,-0.2747,-0.2965,-0.335,-0.3355,-0.3688,-0.4242,0.1785,0.1667,0.1532,0.1365,0.1567,0.1768,0.1844,0.1654,0.1463,0.1332,0.1143,0.0843,0.0385,0.0347,0.0202,0.0,0.0,0.0,0.0,0.0,0.0,0.0,0.0,0.0,0.0,0.0,0.0,0.0,0.0,0.0,0.0,0.0,0.0,0.0,0.0,0.0,0.0,0.0,0.0,0.0,0.0,0.0,-1.1345,-1.1498,-1.167,-1.1791,-1.163,-1.1718,-1.1841,-1.1446,-1.1718,-1.2153,-1.2031,-1.2589,-1.3656,-1.544,-1.601,0.0,0.0,0.0,0.0,0.0,0.0,0.0,0.0,0.0,1.1876,1.2546,1.2758,1.2869,1.2863,1.3027,1.3017,1.2578,1.248,1.2175,1.1427,1.1175,1.0922,1.0462,0.9732,0.8876,0.8019,0.695,0.5706,0.4391,0.34,0.2625,0.1959,0.1681,0.1682,0.1902,0.1958,0.1846,0.1564,0.2069,0.1397,-0.0447,-0.0279,-0.067,-0.1566,-0.1902,-0.1846,-0.1397,-0.1397,-0.1453,-0.1509,-0.1958,-0.2125,-0.2181,-0.2464,-0.3074,-0.3788,-0.3796,-0.4242,-0.4794,0.2349,0.2484,0.252,0.2228,0.2472,0.263,0.2364,0.2342,0.2091,0.1377,0.1621,0.1588,0.0812,0.0961,0.0818,0.0121,0.0,0.0,0.0,0.0,0.0,0.0,0.0,0.0,0.0,0.0,0.0,0.0,0.0,0.0,0.0,0.0,0.0,0.0,0.0,0.0,0.0,0.0,0.0,0.0,0.0,0.0,-0.9549,-0.9439,-1.0089,-1.1121,-1.1094,-1.0657,-1.0118,-1.0225,-1.0167,-1.0166,-1.0956,-1.1863,-1.3075,-1.5456,0.0,-1.675,-1.9001,-1.6534,-1.2106,-0.6969,-0.1097,0.5057,0.0,0.0,1.3806,1.3974,1.4231,1.4299,1.3903,1.3569,1.319,1.2569,1.2382,1.2076,1.1427,1.1175,1.082,1.0154,0.9256,0.8349,0.7481,0.6465,0.5332,0.3959,0.3627,0.3183,0.2464,0.241,0.241,0.241,0.241,0.2462,0.2569,0.2625,0.1953,0.0559,0.0559,0.0168,-0.0559,-0.0614,-0.0335,0.0167,0.0056,-0.0111,-0.0223,-0.0724,-0.0891,-0.0947,-0.134,-0.1786,-0.2341,-0.2961,-0.3186,-0.3294,0.2798,0.3008,0.3214,0.3222,0.3129,0.2967,0.2846,0.2875,0.2724,0.2166,0.2283,0.2099,0.1311,0.1073,0.0845,0.0518,-0.0043,0.0,0.0,0.0,0.0,0.0,0.0,0.0,0.0,0.0,0.0,0.0,0.0,0.0,0.0,0.0,0.0,0.0,0.0,0.0,0.0,0.0,0.0,0.0,0.0,0.0,-0.9727,-0.9398,-0.9459,-0.9674,-0.9816,-0.9771,0.0,0.0,-0.968,-0.9717,-0.9892,-1.0195,-1.0853,-1.2779,-1.318,0.0,-1.7473,-1.5659,-1.1522,0.0,-0.0661,0.5429,1.2308,1.3947,1.4113,1.4371,1.4417,1.4228,1.3598,1.3776,1.3768,0.0,1.289,1.2696,1.1909,1.1619,1.1167,1.0514,0.9614,0.8652,0.754,0.6529,0.5504,0.4512,0.4125,0.3793,0.3411,0.3297,0.3352,0.3461,0.363,0.3738,0.3956,0.3956,0.3616,0.2941,0.2389,0.2,0.1829,0.1278,0.1279,0.1724,0.1667,0.1445,0.1111,0.0778,0.0612,0.0556,-0.0056,-0.0279,-0.039,-0.1896,-0.2734,-0.3178,0.3011,0.3287,0.3555,0.3794,0.3567,0.3316,0.3272,0.3324,0.3214,0.2862,0.2907,0.2739,0.2056,0.1534,0.1173,0.1128,0.0643,0.0237,0.0,0.0,0.0,0.0,0.0,0.0,0.0,0.0,0.0,0.0,0.0,0.0,0.0,0.0,0.0,0.0,0.0,0.0,0.0,0.0,0.0,0.0,0.0,0.0,-0.9113,-0.8812,-0.849,-0.8261,-0.8791,-0.8954,0.0,0.0,-0.8958,-0.9014,-0.8896,-0.8872,-0.9154,-1.0716,-1.1308,-1.2357,-1.6497,-1.3664,0.0,-0.5364,0.1018,0.7844,1.3073,1.4275,1.435,1.4529,1.4446,1.4198,1.3674,1.4061,1.4246,1.3501,1.3399,1.317,1.2442,1.2058,1.1578,1.0922,1.0115,0.9162,0.796,0.6848,0.5828,0.5062,0.4677,0.4401,0.4242,0.4239,0.4346,0.4618,0.4842,0.5117,0.5391,0.5386,0.5269,0.4976,0.4258,0.3926,0.3926,0.3159,0.2998,0.3279,0.3279,0.3111,0.2777,0.2391,0.2228,0.2117,0.1336,0.1171,0.1229,-0.0334,-0.1615,-0.2617,0.2972,0.3283,0.3521,0.359,0.3814,0.3906,0.3712,0.3697,0.3568,0.3214,0.348,0.352,0.3208,0.2627,0.2131,0.1896,0.1033,0.0553,0.0655,-0.0,0.0,0.0,0.0,0.0,0.0,0.0,0.0,0.0,0.0,0.0,0.0,0.0,0.0,0.0,0.0,0.0,0.0,0.0,0.0,0.0,0.0,0.0,-0.6769,-0.6636,-0.6695,-0.7019,-0.8268,0.0,0.0,0.0,-0.7492,-0.7391,-0.8021,-0.8382,0.0,-1.0421,-1.2061,0.0,0.0,0.0,-0.1592,-0.376,0.4656,1.3535,1.3604,1.4368,1.4954,1.4565,1.4656,1.4777,1.4755,1.4541,1.4378,1.4266,1.3768,1.3266,1.2861,1.2403,1.1877,1.1326,1.0618,0.982,0.0,0.7416,0.6244,0.5332,0.5175,0.5014,0.4901,0.5117,0.5391,0.5719,0.5991,0.6263,0.6534,0.6691,0.6455,0.5842,0.6,0.5729,0.5031,0.4886,0.4842,0.4842,0.4842,0.4842,0.4787,0.4174,0.3843,0.3683,0.2903,0.246,0.2127,0.1959,0.0725,-0.089,0.3265,0.3441,0.3703,0.4422,0.4354,0.4293,0.4517,0.4065,0.3715,0.3738,0.3503,0.0,0.0,0.0,0.0,0.0,0.2068,0.1474,0.1302,0.0486,0.0,0.0,0.0,0.0,0.0,0.0,0.0,0.0,0.0,0.0,0.0,0.0,0.0,0.0,0.0,0.0,0.0,0.0,0.0,0.0,0.0,0.0,-0.6747,-0.6111,-0.5575,-0.5255,0.0,0.0,0.0,0.0,-0.6762,-0.6605,-0.6508,0.0,0.0,-0.7937,-0.8751,-0.9416,-1.0318,0.0,-0.3348,0.0572,0.4437,0.8464,1.2932,1.4158,1.4276,1.4031,1.4482,1.4708,1.4002,1.4607,1.5055,1.4467,1.4564,1.4468,1.3721,1.3304,1.2774,1.1918,1.1601,0.0,0.0,0.0,0.0,0.6204,0.61,0.6154,0.6372,0.6529,0.6745,0.7074,0.723,0.7391,0.7599,0.7652,0.7747,0.7947,0.7629,0.7154,0.6568,0.6199,0.6041,0.6041,0.6041,0.6041,0.5987,0.5437,0.5167,0.5062,0.4398,0.3901,0.3514,0.335,0.279,0.1839,0.3224,0.3551,0.3974,0.4614,0.4721,0.0,0.0,0.0,0.0,0.0,0.0,0.0,0.0,0.0,0.0,0.0,0.0,0.2383,0.2172,0.0,0.0,0.0,0.0,0.0,0.0,0.0,0.0,0.0,0.0,0.0,0.0,0.0,0.0,0.0,0.0,0.0,0.0,0.0,0.0,0.0,0.0,0.0,-0.5458,-0.4611,-0.403,0.0,0.0,0.0,0.0,0.0,0.0,0.0,0.0,0.0,0.0,0.0,-0.6281,-0.6283,-0.5886,-0.3887,-0.0863,0.3534,0.6261,0.8941,1.309,1.4125,1.4204,1.4365,1.4796,1.4959,1.4543,1.5182,1.5611,1.5137,1.5255,1.5209,1.4617,1.405,1.3484,1.2735,1.251,1.2008,0.0,0.0,0.0,0.7427,0.7224,0.723,0.7396,0.7658,0.7925,0.809,0.8302,0.8508,0.8659,0.8666,0.8928,0.9354,0.8613,0.8084,0.7771,0.7074,0.675,0.675,0.675,0.675,0.675,0.6376,0.6159,0.6046,0.5504,0.5007,0.4563,0.4405,0.4076,0.3574,0.3018,0.3701,0.4256,0.0,0.0,0.0,0.0,0.0,0.0,0.0,0.0,0.0,0.0,0.0,0.0,0.0,0.0,0.0,0.3131,0.0,0.0,0.0,0.0,0.0,0.0953,0.0897,0.0,0.0,0.0,0.0,0.0,0.0,0.0,0.0,0.0,0.0,0.0,0.0,0.0,0.0,0.0,0.0,-0.3014,-0.2338,0.0,0.0,0.0,0.0,0.0,0.0,0.0,0.0,0.0,0.0,0.0,0.0,-0.4423,-0.4301,-0.3087,0.1476,0.5803,0.5448,1.0076,1.4577,1.4024,1.4236,1.4786,1.5549,1.5561,1.5613,1.6235,0.0,1.599,1.6191,1.577,1.5433,1.5433,1.4617,1.392,0.0,0.0,0.0,0.0,0.0,0.0,0.8992,0.0,0.8131,0.7978,0.8508,0.8883,0.8883,0.9256,0.951,0.9666,0.9792,0.9947,1.0051,0.9152,0.8725,0.8679,0.767,0.7187,0.7187,0.7192,0.7192,0.7139,0.6982,0.6815,0.6588,0.6213,0.5778,0.5332,0.5062,0.4791,0.4405,0.0,0.0,0.0,0.0,0.0,0.0,0.0,0.0,0.0,0.0,0.0,0.0,0.0,0.0,0.0,0.0,0.0,0.0,0.0,0.0,0.0,0.0,0.0,0.0,0.0,0.0,0.0,0.0,0.0,0.0,0.0,0.0,0.0,0.0,0.0,0.0,0.0,0.0,0.0,0.0,0.0,0.0,-0.2483,0.0,0.0,0.0,0.0,0.0,0.0,0.0,0.0,0.0,0.0,0.0776,0.1086,0.0,0.0,0.3301,0.5303,0.7809,1.0112,1.1251,1.264,1.3803,1.3946,1.4672,1.5376,1.5652,1.6545,1.719,1.6827,1.6647,0.0,1.6493,1.6328,0.0,1.5599,1.5028,0.0,1.3967,0.0,1.3025,1.2764,1.2365,0.0,0.0,0.9953,0.9287,0.919,0.9295,0.9614,1.0043,1.0154,1.0403,1.0702,1.0863,1.0913,1.0964,1.0372,1.0108,1.0056,0.9086,0.8679,0.8626,0.8262,0.8049,0.8049,0.7676,0.7456,0.7396,0.6972,0.6707,0.6436,0.6046,0.5778,0.5508,0.0,0.0,0.0,0.0,0.0,0.0,0.0,0.0,0.0,0.0,0.0,0.0,0.0,0.0,0.0,0.0,0.0,0.0,0.0,0.0,0.0,0.0,0.0,0.0,0.0,0.0,0.0,0.0,0.0,0.0,0.0,0.0,0.0,0.0,0.0,0.0,0.0,0.0,0.0,0.0,0.0,0.0,0.0,0.0,0.0,0.0,0.0,0.0,0.0,0.0,0.0,0.3681,0.4384,0.5803,0.7114,0.6573,0.0,0.8594,0.9912,1.1025,1.2162,1.3621,1.4192,1.446,1.4666,1.5721,1.6742,1.7078,1.7928,1.8433,1.797,1.7565,0.0,0.0,0.0,0.0,1.6051,1.5656,1.513,0.0,1.3978,0.0,1.3314,1.3016,1.257,0.0,1.0939,1.0233,0.9984,1.0087,1.0352,1.0769,1.082,1.0972,1.1267,1.1267,1.1377,1.1477,1.0685,1.0364,1.032,0.9413,0.8949,0.8844,0.0,0.8474,0.8374,0.8103,0.7996,0.7889,0.7509,0.7241,0.7031,0.6485,0.6213,0.6,0.0,0.0,0.0,0.0,0.0,0.0,0.0,0.0,0.0,0.6333,0.5984,0.6128,0.7143,0.6559,0.0,0.0,0.0,0.0,0.0,0.0,0.0,0.0,0.0,0.0,0.0,0.0,0.0,0.0,0.0,0.0,0.0,0.0,0.0,0.0,0.0,0.0,0.0,0.0,0.0,0.0,0.0,0.0,0.0,0.0,0.0,0.0,0.0,0.0,0.0,0.0,0.795,0.7058,0.7736,0.9995,1.2226,1.1084,1.1365,1.213,1.2224,1.2551,1.3084,1.4048,1.5015,1.5729,1.5747,1.7021,1.8365,1.9032,0.0,1.9511,1.9362,1.8629,1.7954,1.7529,0.0,1.6833,1.6607,1.625,1.5756,1.504,1.4536,1.4071,1.3515,1.3467,1.3228,1.255,1.1701,1.1057,1.0616,1.082,1.1023,1.1175,1.1326,1.1477,1.1628,1.1528,1.1578,1.1769,1.0787,1.0269,1.0226,0.9361,0.885,0.858,0.0,0.0,0.8427,0.8421,0.8374,0.8215,0.7889,0.7616,0.7348,0.6761,0.6485,0.6317,0.0,0.0,0.0,0.0,0.0,0.0,0.0,0.6526,0.6569,0.7154,0.7359,0.748,0.7616,0.7822,0.0,0.0,0.0,0.0,0.0,0.0,0.0,0.0,0.0,0.0,0.0,0.0,0.0,0.0,0.0,0.0,0.0,0.0,0.0,0.0,0.0,0.0,0.0,0.0,0.0,0.0,0.0,0.0,0.0,0.0,0.0,0.0,0.0,0.0,0.0,0.0,1.0525,0.9554,1.0346,1.141,1.2435,1.281,1.3255,1.3696,1.4046,1.4383,1.4657,1.4682,1.5289,1.5984,1.6483,1.7968,0.0,0.0,2.0504,2.0926,2.0492,1.9403,1.8507,1.824,1.7504,1.696,1.6833,1.6411,1.5896,0.0,1.4892,1.4444,1.3962,0.0,0.0,0.0,0.0,1.2089,1.1217,1.1226,1.1326,1.1578,1.1927,1.2126,1.2175,1.2234,1.2323,1.2382,1.2067,1.1719,1.136,1.0525,0.9917,0.951,0.0,0.0,0.8699,0.8633,0.8573,0.8527,0.8215,0.8109,0.8002,0.7467,0.73,0.7246,0.0,0.0,0.0,0.0,0.0,0.0,0.0,0.6696,0.6994,0.8063,0.8163,0.8228,0.8484,0.8506,0.8415,0.0,0.0,0.0,0.0,0.0,0.0,0.0,0.0,0.0,0.0,0.0,0.0,0.0,0.0,0.0,0.0,0.0,0.0,0.0,0.0,0.0,0.0,0.0,0.0,0.0,0.0,0.0,0.0,0.0,0.0,0.0,0.0,0.0,0.0,0.0,1.2866,1.2772,1.3117,1.3966,1.4831,1.4754,1.5154,1.5537,1.5214,1.5423,1.571,1.5659,1.6196,1.6876,1.7454,0.0,0.0,0.0,2.0938,2.1339,2.0926,1.9884,0.0,1.8902,1.812,1.7475,1.7297,1.6866,0.0,1.5478,1.5197,1.4801,0.0,0.0,0.0,0.0,0.0,1.2725,1.1909,1.1927,1.1977,1.2126,1.2274,1.2431,1.2529,1.248,1.2578,1.2676,1.2283,1.1819,1.1292,1.0685,1.0079,0.9458,0.9211,0.0,0.9008,0.8844,0.8738,0.8692,0.8474,0.8321,0.8168,0.7729,0.7568,0.7467,0.0,0.0,0.0,0.0,0.0,0.0,0.0,0.6774,0.7201,0.8247,0.8343,0.8504,0.903,0.8997,0.8991,0.0,0.0,0.0,0.0,0.0,0.0,0.0,0.0,0.0,0.0,0.0,0.0,0.0,0.0,0.0,0.0,0.0,0.0,0.0,0.0,0.0,0.0,0.0,0.0,0.0,0.0,0.0,0.0,0.0,0.0,0.0,0.0,0.0,0.0,0.0,1.5073,1.5864,1.5896,1.6369,1.6834,1.6252,1.6435,1.6658,1.5913,1.5882,1.612,1.6364,1.7074,1.789,1.8483,2.012,0.0,2.0956,2.1317,2.1582,2.1181,2.033,1.9609,0.0,1.8626,1.7988,1.772,1.7352,1.668,0.0,1.5522,0.0,1.4408,0.0,0.0,0.0,0.0,0.0,1.2461,1.2471,1.248,1.248,1.2529,1.2578,1.2676,1.2627,1.2676,1.2881,1.2323,1.176,1.1225,1.0694,1.0087,0.9413,0.9361,0.0,0.0,0.9061,0.891,0.8804,0.8633,0.8474,0.8268,0.7943,0.7783,0.7681,0.0,0.0,0.0,0.0,0.0,0.0,0.0,0.6467,0.6523,0.7026,0.7564,0.8196,0.8784,0.9522,0.98,0.0,0.0,0.0,0.0,0.0,0.0,0.0,0.0,0.0,0.0,0.0,0.0,0.0,0.0,0.0,0.0,0.0,0.0,0.0,0.0,0.0,0.0,0.0,0.0,0.0,0.0,0.0,0.0,0.0,0.0,0.0,0.0,0.0,0.0,0.0,0.0,1.804,1.8715,1.7606,1.6171,1.6509,0.0,0.0,1.6022,1.5681,1.5499,1.6285,1.7495,1.8712,1.9477,0.0,2.2391,2.2103,2.2248,2.2214,2.1552,2.0781,2.0074,0.0,0.0,1.8187,1.7988,1.7625,1.696,1.5876,0.0,0.0,0.0,0.0,0.0,0.0,0.0,0.0,1.252,1.248,1.248,1.248,1.2627,1.2686,1.2676,1.2832,1.2881,1.2881,1.2725,1.2421,1.1968,1.1158,1.0541,1.0064,0.0,0.0,0.0,0.9008,0.891,0.8804,0.8633,0.8573,0.8521,0.8368,0.8315,0.8321,0.0,0.0,0.0,0.0,0.0,0.0,0.6763,0.6895,0.7147,0.747,0.7576,0.7882,0.8484,0.9172,0.9701,0.0,0.0,0.0,0.0,0.0,0.0,0.0,0.0,0.0,0.0,0.0,0.0,0.0,0.0,0.0,0.0,0.0,0.0,0.0,0.0,0.0,0.0,0.0,0.0,0.0,0.0,0.0,0.0,0.0,0.0,0.0,0.0,0.0,0.0,0.0,0.0,0.0,1.9763,1.9605,0.0,0.0,1.8151,1.7874,1.662,1.6165,1.6249,1.7114,1.8105,1.9134,2.0271,2.1723,2.2721,2.2296,2.2324,2.2313,2.1895,2.115,2.053,0.0,1.9376,1.864,1.8549,1.8222,1.762,1.6522,1.6654,0.0,0.0,0.0,0.0,0.0,0.0,0.0,1.2774,1.2832,1.2881,1.2881,1.2958,1.2987,1.2987,1.3035,1.3094,1.3094,1.2968,1.2715,1.2236,1.181,1.115,1.0415,0.0,0.0,0.0,0.9256,0.9211,0.9159,0.8949,0.8791,0.8692,0.858,0.8421,0.8268,0.0,0.0,0.0,0.0,0.0,0.7295,0.6824,0.6947,0.7208,0.755,0.7583,0.7796,0.8317,0.8971,0.9659,1.0367,0.0,0.0,0.0,0.0,0.0,0.0,0.0,0.0,0.0,0.0,0.0,0.0,0.0,0.0,0.0,0.0,0.0,0.0,0.0,0.0,0.0,0.0,0.0,0.0,0.0,0.0,0.0,0.0,0.0,0.0,0.0,0.0,0.0,0.0,0.0,0.0,0.0,0.0,0.0,0.0,2.0009,1.9793,1.8061,1.7484,1.7575,1.8429,1.9159,2.0037,2.1417,2.2593,2.3234,2.2743,2.2669,2.2529,2.2181,2.1477,2.0958,0.0,2.001,1.9371,1.9205,1.9044,1.8518,0.0,0.0,0.0,0.0,0.0,0.0,0.0,0.0,0.0,0.0,1.3354,1.3316,1.3027,1.3142,1.317,1.3132,1.3132,1.3132,1.3132,1.3065,1.2861,1.253,1.2264,1.171,1.1032,0.0,0.0,0.0,0.9517,0.9361,0.9263,0.9061,0.891,0.8804,0.8692,0.8533,0.8381,0.0,0.0,0.0,0.0,0.0,0.0,0.6658,0.6368,0.6309,0.6846,0.7367,0.7878,0.8337,0.9158,0.98,1.0094,0.0,0.0,0.0,0.0,0.0,0.0,0.0,0.0,0.0,0.0,0.0,0.0,0.0,0.0,0.0,0.0,0.0,0.0,0.0,0.0,0.0,0.0,0.0,0.0,0.0,0.0,0.0,0.0,0.0,0.0,0.0,0.0,0.0,0.0,0.0,0.0,0.0,2.2929,2.3295,0.0,2.1431,2.1143,2.0526,1.9778,1.9376,2.0176,2.0839,2.1662,2.3132,2.3886,2.4155,2.378,2.3473,2.3074,2.2439,2.179,2.1261,2.0844,2.0722,2.048,1.9854,2.0005,1.9798,0.0,0.0,0.0,0.0,0.0,0.0,0.0,0.0,0.0,0.0,1.4118,1.381,1.2929,1.3084,1.3084,1.2929,1.3027,1.3027,1.2881,1.2881,1.2881,1.2881,1.2323,1.2076,0.0,0.0,0.0,0.0,0.9614,0.9263,0.9008,0.9008,0.891,0.8804,0.8804,0.8804,0.8752,0.0,0.0,0.0,0.0,0.0,0.0,0.0,0.706,0.7321,0.7214,0.7544,0.7995,0.8343,0.9158,0.9719,0.9813,0.0,0.0,0.0,0.0,0.0,0.0,0.0,0.0,0.0,0.0,0.0,0.0,0.0,0.0,0.0,0.0,0.0,0.0,0.0,0.0,0.0,0.0,0.0,0.0,0.0,0.0,0.0,0.0,0.0,0.0,0.0,0.0,0.0,0.0,0.0,0.0,0.0,0.0,0.0,2.3996,2.3531,2.2825,2.1612,2.1147,2.1033,2.1245,2.1803,2.2528,2.3322,2.405,2.4407,2.3821,2.3455,2.3105,2.2712,2.1924,2.1438,2.1761,0.0,0.0,0.0,0.0,0.0,1.8846,0.0,0.0,0.0,0.0,0.0,0.0,0.0,0.0,0.0,1.4082,1.3894,1.3286,1.3372,1.342,1.3392,1.3334,1.3286,1.3238,1.3113,1.3065,1.3084,1.2774,0.0,0.0,0.0,0.0,0.0,1.0293,1.0035,0.9888,0.9465,0.9263,0.9211,0.9008,0.8857,0.8804,0.0,0.0,0.0,0.0,0.0,0.0,0.0,0.7045,0.7349,0.7157,0.7629,0.8026,0.8196,0.9185,0.987,0.9868,0.0,0.0,0.0,0.0,0.0,0.0,0.0,0.0,0.0,0.0,0.0,0.0,0.0,0.0,0.0,0.0,0.0,0.0,0.0,0.0,0.0,0.0,0.0,0.0,0.0,0.0,1.7424,0.0,0.0,0.0,0.0,0.0,0.0,0.0,0.0,0.0,0.0,0.0,0.0,0.0,2.4827,2.4276,2.303,2.2732,2.2749,2.2634,2.2931,2.3381,2.3798,2.4264,2.4424,2.3881,2.3455,2.3105,2.2935,2.2022,2.1535,2.2183,2.1728,0.0,0.0,0.0,0.0,1.9395,0.0,0.0,0.0,0.0,0.0,0.0,0.0,0.0,0.0,1.4674,1.4479,1.38,1.3658,1.3563,1.3467,1.342,1.3362,1.3314,1.319,1.3142,1.3218,1.3094,0.0,0.0,0.0,0.0,0.0,1.0702,1.0344,1.0233,0.9621,0.9361,0.9316,0.9159,0.9008,0.8857,0.0,0.0,0.0,0.0,0.0,0.0,0.0,0.0,0.6568,0.6855,0.7587,0.8065,0.8016,0.9314,1.0241,1.0221,0.0,0.0,0.0,0.0,0.0,0.0,0.0,0.0,0.0,0.0,0.0,0.0,0.8883,0.9145,0.9666,0.0,0.0,0.0,0.0,0.0,0.0,0.0,0.0,0.0,1.7424,1.8328,0.0,0.0,0.0,0.0,0.0,0.0,0.0,0.0,0.0,0.0,0.0,0.0,0.0,0.0,0.0,0.0,0.0,2.4492,2.4444,2.4244,2.4157,2.4194,2.4542,2.4508,0.0,2.3979,2.3473,2.3109,2.3179,2.2186,2.1632,2.2312,0.0,0.0,0.0,2.2395,0.0,0.0,0.0,0.0,0.0,0.0,0.0,0.0,0.0,0.0,0.0,1.5712,1.54,1.4466,1.3952,1.3515,1.3218,1.3314,1.3314,1.3208,1.3218,1.3218,1.3218,1.3218,0.0,0.0,0.0,0.0,0.0,1.0905,1.0336,1.0167,0.9614,0.9361,0.9211,0.9211,0.9159,0.9008,0.0,0.0,0.0,0.0,0.0,0.0,0.0,0.0,0.0,0.0,0.8133,0.9005,0.9177,1.0558,1.147,0.0,0.0,0.0,0.0,0.0,0.0,0.0,0.0,0.0,0.0,0.0,0.0,0.9406,0.9406,0.9658,1.0064,1.0064,0.0,0.0,0.0,0.0,0.0,0.0,0.0,0.0,1.931,1.9817,0.0,0.0,0.0,0.0,2.2253,2.2485,0.0,0.0,0.0,0.0,0.0,0.0,0.0,0.0,2.6073,2.5703,2.6227,0.0,2.5278,2.5135,2.5087,2.5024,0.0,2.4654,2.4458,2.4117,2.3548,2.3281,2.3857,2.2904,2.2458,2.3719,0.0,0.0,2.2703,0.0,0.0,0.0,0.0,0.0,0.0,0.0,0.0,0.0,0.0,0.0,0.0,1.5712,1.5534,1.4971,1.4466,1.3999,1.3515,1.342,1.3362,1.3362,1.3266,1.3218,1.3218,1.3218,0.0,0.0,0.0,0.0,1.2026,1.1309,1.0744,1.0293,0.9769,0.951,0.951,0.9413,0.9309,0.9309,0.0,0.0,0.0,0.0,0.0,0.0,0.0,0.0,0.0,0.0,0.0,0.0,0.0,0.0,0.0,0.0,0.0,0.0,0.0,0.0,0.0,0.0,0.0,0.0,0.0,0.0,0.0,0.0,0.0,1.0474,0.0,0.0,0.0,0.0,0.0,0.0,0.0,0.0,0.0,0.0,2.0797,0.0,0.0,0.0,0.0,0.0,2.2702,2.2589,0.0,2.226,2.2892,2.3732,0.0,0.0,0.0,0.0,2.6564,2.6308,2.6814,2.6583,2.6143,2.5952,2.588,2.5768,2.5385,2.4872,2.4391,2.4154,2.3566,2.3327,2.4059,2.3262,2.2899,0.0,2.3907,0.0,0.0,0.0,0.0,0.0,0.0,0.0,0.0,0.0,0.0,0.0,0.0,0.0,0.0,1.6076,1.5888,1.5445,1.496,1.4466,1.3952,1.3658,1.3515,1.3515,1.342,1.3362,1.3314,1.3314,0.0,0.0,0.0,0.0,1.2382,1.156,1.1006,1.0702,0.9925,0.9614,0.9614,0.951,0.9458,0.9413,0.0,0.0,0.0,0.0,0.0,0.0,0.0,0.0,0.0,0.0,0.0,0.0,0.0,0.0,0.0,0.0,0.0,0.0,0.0,0.0,0.0,0.0,0.0,0.0,0.0,0.0,0.0,0.0,0.0,0.0,0.0,0.0,0.0,0.0,0.0,0.0,0.0,0.0,0.0,0.0,2.2075,0.0,0.0,0.0,0.0,0.0,0.0,0.0,0.0,2.2062,2.2795,2.3717,2.3941,0.0,0.0,0.0,0.0,0.0,2.7005,2.7059,2.6922,2.6431,2.6381,2.6294,2.5807,0.0,0.0,0.0,0.0,2.3397,2.4209,2.3595,0.0,0.0,0.0,0.0,2.2203,0.0,0.0,0.0,0.0,0.0,0.0,0.0,0.0,0.0,0.0,0.0,0.0,1.6479,1.6337,1.592,1.5445,1.5006,1.4605,1.3941,1.3573,1.3573,1.3573,1.3515,1.3372,1.3372,1.3286,0.0,0.0,0.0,1.2676,1.176,1.1209,1.0998,1.0079,0.9666,0.9614,0.9614,0.951,0.9413,0.0,0.0,0.0,0.0,0.0,0.0,0.0,0.0,0.0,0.0,0.0,0.0,0.0,0.0,0.0,0.0,0.0,0.0,0.0,0.0,0.0,0.0,0.0,0.0,0.0,0.0,0.0,0.0,0.0,0.0,1.2752,1.2596,1.3942,0.0,0.0,0.0,0.0,0.0,0.0,2.286,2.3298,0.0,0.0,0.0,0.0,0.0,0.0,0.0,0.0,2.0815,2.1738,2.3118,2.3169,0.0,0.0,0.0,0.0,0.0,2.7522,2.7794,2.7306,2.5861,2.5985,2.619,2.5054,2.4568,0.0,0.0,0.0,0.0,0.0,2.4509,2.433,0.0,0.0,0.0,0.0,0.0,0.0,0.0,0.0,0.0,0.0,0.0,0.0,0.0,0.0,0.0,0.0,0.0,1.6466,1.638,1.5932,1.5656,1.5567,1.4258,1.3515,1.3409,1.3409,1.3362,1.3218,1.3218,1.319,0.0,0.0,1.2783,1.2224,1.2026,1.141,1.0506,1.0344,0.9984,0.9614,0.9614,0.9562,0.9562,0.0,0.0,0.0,0.0,0.0,0.0,0.0,0.0,0.0,0.0,0.0,0.0,0.0,0.0,0.0,0.0,0.0,0.0,0.0,0.0,0.0,0.0,0.0,0.0,0.0,0.0,0.0,0.0,0.0,1.2627,1.3203,1.4222,1.5996,1.8317,0.0,0.0,0.0,0.0,0.0,2.3566,0.0,0.0,0.0,0.0,0.0,0.0,0.0,0.0,0.0,0.0,2.1515,2.295,2.3026,0.0,0.0,0.0,0.0,0.0,2.7201,2.7651,2.7576,2.6181,2.6778,2.7457,2.6634,2.5968,0.0,0.0,0.0,0.0,0.0,0.0,2.4929,2.5244,0.0,0.0,0.0,0.0,0.0,0.0,0.0,0.0,0.0,0.0,0.0,0.0,0.0,0.0,0.0,0.0,1.6522,1.6522,1.6064,1.5788,1.5788,1.4903,1.4269,1.3941,1.3658,1.342,1.3314,1.3218,1.3142,1.3085,0.0,1.2832,1.2529,1.2224,1.1769,1.1267,1.0659,1.0241,0.9984,0.9718,0.9614,0.9614,0.0,0.0,0.0,0.0,0.0,0.0,0.0,0.0,0.0,0.0,0.0,0.0,0.0,0.0,0.0,0.0,0.0,0.0,0.0,0.0,0.0,0.0,0.0,0.0,0.0,0.0,0.0,1.2409,1.2637,1.31,1.376,1.5962,1.8014,0.0,0.0,0.0,0.0,0.0,0.0,2.3768,0.0,0.0,0.0,0.0,0.0,0.0,0.0,0.0,0.0,0.0,0.0,0.0,0.0,0.0,0.0,2.6044,2.6248,2.6254,2.6442,2.704,2.7402,2.6515,2.7246,2.8077,2.7713,2.6896,0.0,0.0,0.0,0.0,0.0,2.5805,0.0,2.4799,0.0,0.0,0.0,0.0,0.0,0.0,0.0,0.0,0.0,0.0,0.0,0.0,0.0,0.0,0.0,0.0,1.6522,1.6522,1.6151,1.5964,1.5964,1.5501,1.5006,1.4512,1.3988,1.3658,1.3552,1.3314,1.3142,1.3085,1.2978,1.2929,1.2881,1.248,1.2224,1.2026,1.1158,1.0659,1.0352,0.9925,0.9718,0.9614,0.0,0.0,0.0,0.0,0.0,0.0,0.0,0.0,0.0,0.0,0.0,0.0,0.0,0.0,0.0,0.0,0.0,0.0,0.0,0.0,0.0,0.0,0.0,0.0,0.0,1.224,1.2205,1.239,1.1434,1.2228,1.4654,1.6875,1.9076,2.116,0.0,0.0,0.0,0.0,0.0,2.3535,2.4694,0.0,0.0,0.0,0.0,0.0,0.0,0.0,0.0,0.0,0.0,0.0,0.0,0.0,2.3437,2.4258,2.4483,2.4637,2.5381,2.5996,2.6402,2.6333,2.6428,2.655,2.6517,2.5928,0.0,2.5774,0.0,0.0,0.0,2.5983,2.5301,0.0,0.0,0.0,0.0,0.0,0.0,0.0,0.0,0.0,0.0,0.0,0.0,0.0,0.0,0.0,0.0,0.0,0.0,1.6522,1.6466,1.6436,1.6436,1.5976,1.5433,1.4858,1.4362,1.4071,1.3931,1.3457,1.3142,1.3085,1.3085,1.3027,1.2881,1.2881,1.2529,1.2076,1.2026,1.1309,1.0403,1.0352,1.0035,0.9614,0.0,0.0,0.0,0.0,0.0,0.0,0.0,0.0,0.0,0.0,0.0,0.0,0.0,0.0,0.0,0.0,0.0,0.0,0.0,0.0,0.0,0.0,0.0,1.5138,1.4398,1.3547,1.2765,1.2095,1.2406,1.4181,1.7335,1.8515,0.0,0.0,0.0,0.0,0.0,0.0,0.0,0.0,2.4938,2.5386,0.0,0.0,0.0,0.0,0.0,0.0,0.0,0.0,2.1079,2.1948,0.0,2.2871,2.3251,2.4057,2.4272,2.4305,2.4605,2.5149,2.5734,2.6187,2.585,0.0,0.0,2.6881,2.6763,2.7112,2.7,0.0,0.0,0.0,0.0,0.0,0.0,0.0,0.0,0.0,0.0,0.0,0.0,0.0,0.0,0.0,0.0,0.0,0.0,0.0,0.0,0.0,0.0,1.6522,1.6522,1.6522,1.6522,1.6337,1.6107,1.5888,1.5142,1.4593,1.4222,1.3931,1.3563,1.3142,1.3123,1.3027,1.2881,1.2881,1.2578,1.2026,1.1318,1.0753,1.0403,1.0403,1.0241,1.0087,0.0,0.0,0.0,0.0,0.0,0.0,0.0,0.0,0.0,0.0,0.0,0.0,0.0,0.0,0.0,0.0,0.0,0.0,0.0,0.0,0.0,0.0,0.0,1.5875,1.567,1.4796,1.3914,1.3043,1.4027,1.5968,1.8768,0.0,0.0,0.0,0.0,0.0,0.0,0.0,0.0,0.0,2.471,2.5299,0.0,0.0,0.0,0.0,0.0,0.0,0.0,0.0,2.0932,2.1539,0.0,2.2342,2.2468,2.3277,2.3859,2.4282,2.4455,2.5053,2.5718,2.611,0.0,0.0,2.6557,2.6763,2.6862,2.7439,2.7338,0.0,0.0,0.0,0.0,0.0,0.0,0.0,0.0,0.0,0.0,0.0,0.0,0.0,0.0,0.0,0.0,0.0,0.0,0.0,0.0,0.0,0.0,0.0,1.6522,1.6522,1.6522,1.6522,1.6522,1.6479,1.5856,1.5277,1.4823,1.4536,1.4071,1.3457,1.3344,1.3172,1.2881,1.2881,1.2676,1.2274,1.1309,1.0804,1.0651,1.0454,1.0293,1.0138,0.0,0.0,0.0,0.0,0.0,0.0,0.0,0.0,0.0,0.0,0.0,0.0,0.0,0.0,0.0,0.0,0.0,0.0,0.0,0.0,0.0,0.0,0.0,1.6281,1.583,1.5846,1.5732,1.5489,1.6166,1.7156,1.8449,0.0,0.0,0.0,0.0,0.0,0.0,0.0,0.0,0.0,2.392,2.4807,2.5393,0.0,0.0,0.0,0.0,0.0,0.0,0.0,2.0605,2.0605,0.0,0.0,0.0,2.1584,2.2991,2.4436,2.5024,2.5806,2.64,2.6071,0.0,0.0,2.5411,2.5147,2.533,2.6372,0.0,2.5993,0.0,0.0,0.0,0.0,0.0,0.0,0.0,0.0,0.0,0.0,0.0,0.0,0.0,0.0,0.0,0.0,0.0,0.0,0.0,0.0,0.0,0.0,1.6522,1.6522,1.6522,1.6522,1.6522,1.6522,1.6522,1.625,1.5788,1.5164,1.4582,1.4025,1.3858,1.344,1.2929,1.2881,1.2881,1.2832,1.2274,1.1719,1.115,1.06,1.0087,0.9614,0.0,0.0,0.0,0.0,0.0,0.0,0.0,0.0,0.0,0.0,0.0,0.0,0.0,0.0,0.0,0.0,0.0,0.0,0.0,0.0,0.0,0.0,0.0,0.0,0.0,0.0,1.8237,1.6354,1.6395,1.7612,0.0,0.0,0.0,2.1492,0.0,0.0,0.0,0.0,0.0,0.0,0.0,2.3983,2.4569,0.0,0.0,0.0,0.0,0.0,0.0,0.0,0.0,0.0,2.1504,0.0,0.0,2.26,2.3431,2.4331,2.4463,2.4954,2.5425,2.5316,0.0,0.0,0.0,2.5346,0.0,0.0,0.0,0.0,0.0,0.0,0.0,0.0,0.0,0.0,0.0,0.0,0.0,0.0,0.0,0.0,0.0,0.0,0.0,0.0,0.0,0.0,0.0,0.0,0.0,0.0,1.6989,1.6808,1.6522,1.6522,1.6522,1.6522,1.6522,1.6207,1.5623,1.549,1.4994,1.4305,1.3952,1.3621,1.3334,1.2618,1.2323,1.2274,1.1719,1.161,1.1769,1.1158,1.0846,1.0685,0.0,0.0,0.0,0.0,0.0,0.0,0.0,0.0,0.0,0.0,0.0,0.0,0.0,0.0,0.0,0.0,0.0,0.0,0.0,0.0,0.0,0.0,0.0,0.0,0.0,1.9921,1.9804,0.0,0.0,0.0,0.0,0.0,0.0,2.0892,0.0,2.0722,0.0,0.0,0.0,0.0,0.0,2.2771,2.3686,0.0,0.0,0.0,0.0,0.0,0.0,0.0,0.0,0.0,2.2422,0.0,2.3241,2.3452,2.4105,2.4827,2.502,2.5337,2.5595,2.5408,2.5254,2.508,2.4856,0.0,0.0,0.0,0.0,0.0,0.0,0.0,0.0,0.0,0.0,0.0,0.0,0.0,0.0,0.0,0.0,0.0,0.0,0.0,0.0,0.0,0.0,0.0,0.0,0.0,0.0,0.0,1.7434,1.731,1.7005,1.7005,1.7005,1.7005,1.685,1.6552,1.6139,1.5944,1.5501,1.4812,1.4269,1.3847,1.3573,1.2939,1.2618,1.2382,1.1769,1.1769,1.2026,1.141,1.1057,1.0854,0.0,0.0,0.551,0.5785,0.0,0.0,0.0,0.0,0.0,0.0,0.0,1.0601,0.0,0.0,0.0,1.3293,0.0,0.0,0.0,0.0,0.0,0.0,0.0,0.0,0.0,0.0,0.0,0.0,0.0,0.0,0.0,0.0,2.0136,2.0184,0.0,2.0234,0.0,0.0,0.0,0.0,2.0772,2.1441,2.2785,2.1959,0.0,0.0,0.0,0.0,0.0,0.0,0.0,0.0,2.3223,2.3359,2.3651,2.4248,2.4983,2.5738,2.6292,2.6442,2.6351,2.5921,2.5872,0.0,2.5649,2.5056,2.4545,2.454,0.0,0.0,0.0,0.0,0.0,0.0,0.0,0.0,0.0,0.0,0.0,0.0,0.0,0.0,0.0,0.0,0.0,0.0,0.0,0.0,0.0,0.0,0.0,0.0,1.7868,1.7828,1.7787,1.7747,1.7747,0.0,1.7381,1.7133,1.7034,1.6479,1.5901,1.5287,1.4571,1.3978,1.3525,1.3525,1.3296,1.2832,1.2382,1.2175,1.2076,1.151,1.0956,1.0549,0.0,0.0,0.6185,0.6266,0.0,0.0,0.0,0.0,0.9039,1.0128,1.0408,1.1073,1.2567,1.3026,0.0,1.4519,1.5299,0.0,0.0,0.0,0.0,0.0,0.0,0.0,0.0,0.0,0.0,0.0,0.0,0.0,0.0,0.0,0.0,1.9289,0.0,1.9281,0.0,0.0,0.0,2.0585,2.0353,2.0953,2.1884,2.0963,2.1551,0.0,0.0,0.0,0.0,0.0,0.0,0.0,2.334,2.4531,2.6074,2.5551,2.5928,2.6559,2.6687,2.6073,0.0,2.5181,2.4982,2.4827,2.4777,2.4468,2.4156,2.4006,0.0,0.0,0.0,0.0,0.0,0.0,0.0,0.0,0.0,0.0,0.0,0.0,0.0,0.0,0.0,0.0,0.0,0.0,0.0,0.0,0.0,0.0,0.0,1.8664,1.8447,1.8187,1.7787,1.7327,1.7327,0.0,1.7248,1.7183,1.7585,1.6765,1.5756,1.4641,1.4025,1.3478,1.3065,1.3065,1.2968,1.2881,1.2774,1.2735,1.2676,1.2126,1.1819,1.1619,0.0,0.0,0.0,0.0,0.0,0.0,0.0,0.0,0.9879,1.0428,1.0971,1.1701,1.2801,1.3314,0.0,0.0,1.5599,1.5768,0.0,0.0,0.0,0.0,0.0,0.0,0.0,0.0,0.0,0.0,0.0,0.0,0.0,0.0,0.0,1.9388,0.0,1.9424,0.0,0.0,0.0,2.0079,1.9316,1.9824,2.0972,2.0482,2.0933,2.1818,2.1803,0.0,0.0,0.0,0.0,0.0,0.0,0.0,2.6367,2.6296,2.6259,2.6303,2.6657,2.6017,0.0,2.5049,0.0,2.4689,2.4689,2.4422,2.4174,2.4043,0.0,0.0,0.0,0.0,0.0,0.0,0.0,0.0,0.0,0.0,0.0,0.0,0.0,0.0,0.0,0.0,0.0,0.0,0.0,0.0,0.0,2.003,1.9617,1.8933,1.8681,1.8243,1.7636,1.7267,1.7348,1.7963,1.7339,1.7219,1.7475,1.6892,1.5964,1.488,1.449,1.3894,1.3248,1.3248,1.3113,1.2881,1.2881,1.2881,1.2832,1.2274,1.1918,1.156,0.0,0.0,0.0,0.0,0.0,0.0,0.0,0.0,0.0,1.0774,1.1743,1.2543,1.2905,1.3543,1.4378,0.0,0.0,0.0,1.604,0.0,0.0,0.0,0.0,0.0,0.0,0.0,0.0,0.0,0.0,0.0,0.0,0.0,0.0,1.9568,0.0,0.0,0.0,0.0,1.879,1.9879,1.8587,1.8943,2.0275,2.0269,2.0405,2.0711,2.1496,2.245,2.3428,2.4159,0.0,0.0,0.0,0.0,2.6054,2.6727,2.6505,2.6175,2.6784,2.628,2.5517,2.5171,2.4987,0.0,2.4902,2.464,2.4416,0.0,0.0,0.0,0.0,0.0,0.0,0.0,0.0,0.0,0.0,0.0,0.0,0.0,0.0,0.0,0.0,0.0,0.0,0.0,0.0,0.0,2.0663,2.042,1.9927,1.9076,1.8669,1.8201,1.7584,1.725,1.7442,1.8062,1.7543,1.7242,1.7179,1.7008,1.6398,1.5344,1.5096,1.4501,1.3705,1.361,1.3382,1.3017,1.2929,1.2881,1.2832,1.2382,1.1868,1.1259,0.0,0.0,0.0,0.0,0.0,0.0,0.0,0.0,0.0,0.0,1.2675,1.3512,1.4248,1.5088,1.5633,1.5749,1.6233,1.633,0.0,0.0,0.0,0.0,0.0,0.0,0.0,0.0,0.0,0.0,0.0,0.0,0.0,0.0,0.0,1.8643,0.0,0.0,0.0,0.0,1.9613,1.988,1.962,1.976,2.0142,2.0125,2.0674,2.1466,2.1653,2.2806,2.4248,2.4367,2.4978,0.0,0.0,0.0,0.0,2.6953,2.7396,2.7867,2.7975,0.0,2.6159,0.0,2.4987,2.4902,0.0,0.0,2.479,0.0,0.0,0.0,0.0,0.0,0.0,0.0,0.0,0.0,0.0,0.0,0.0,0.0,0.0,0.0,0.0,0.0,0.0,0.0,0.0,0.0,2.1615,2.0492,1.983,1.9672,1.8575,1.7964,1.7842,1.7067,1.6984,1.7585,1.7691,1.7492,1.7045,1.7411,1.6896,1.57,1.4801,1.4351,1.4165,1.3752,1.3573,1.3478,1.3065,1.2881,1.2881,1.2832,1.2421,1.1868,0.0,0.0,0.0,0.0,0.0,0.0,0.0,0.0,0.0,0.0,0.0,1.5072,1.5664,1.5797,1.602,1.6488,1.5952,0.0,0.0,0.0,0.0,0.0,0.0,0.0,0.0,0.0,0.0,0.0,0.0,0.0,0.0,1.7912,1.7906,0.0,0.0,0.0,0.0,0.0,0.0,1.9645,1.9238,1.9715,2.0608,0.0,2.0704,2.155,2.1657,0.0,2.3702,2.4217,2.4972,2.5699,2.5703,0.0,0.0,0.0,2.7245,2.7513,2.7479,2.743,2.7062,0.0,2.5637,2.5832,2.5351,0.0,0.0,0.0,0.0,0.0,0.0,0.0,0.0,0.0,0.0,0.0,0.0,0.0,0.0,0.0,0.0,0.0,0.0,0.0,0.0,0.0,0.0,2.1123,2.1123,2.0561,1.9819,1.8885,1.8163,1.7542,1.7011,1.6501,1.6442,1.6828,1.7287,1.7391,1.7088,1.7192,1.6695,1.5788,1.5231,1.4744,1.4258,1.38,1.3621,1.3573,1.3065,1.2881,1.2881,1.2578,1.2274,1.1977,0.0,0.0,0.0,0.0,0.0,0.0,0.0,0.0,0.0,0.0,0.0,1.6328,1.6784,0.0,0.0,0.0,1.5487,0.0,0.0,0.0,0.0,0.0,0.0,0.0,0.0,0.0,0.0,0.0,0.0,0.0,1.8248,1.7593,1.7631,0.0,1.8594,0.0,0.0,0.0,0.0,1.9405,1.9122,1.9826,2.1016,2.0747,2.1101,2.1786,0.0,0.0,0.0,0.0,0.0,0.0,0.0,0.0,0.0,0.0,0.0,2.7283,0.0,0.0,2.8033,2.6525,2.6612,2.6932,0.0,0.0,0.0,0.0,0.0,0.0,0.0,0.0,0.0,0.0,0.0,0.0,0.0,0.0,0.0,0.0,0.0,0.0,0.0,0.0,0.0,0.0,0.0,2.0629,2.0629,2.0327,1.9584,1.8355,1.7786,1.7183,1.6474,1.6219,1.6067,1.6074,1.6749,1.7018,1.6991,1.6916,1.6664,1.6182,1.5896,1.541,1.4744,1.4212,1.3894,1.3705,1.3248,1.3017,1.2832,1.2421,1.2224,1.1977,0.0,0.0,0.0,0.0,0.0,0.0,0.0,0.0,0.0,0.0,0.0,1.6787,1.739,1.7152,1.6649,1.5929,1.5099,0.0,0.0,0.0,0.0,0.0,0.0,0.0,0.0,0.0,0.0,0.0,0.0,0.0,1.6799,1.6774,1.6484,1.6114,1.7135,1.8056,1.8825,0.0,0.0,1.928,2.0079,2.0596,2.1006,2.1792,2.2274,2.2545,0.0,0.0,0.0,0.0,0.0,0.0,0.0,0.0,2.5703,0.0,0.0,0.0,0.0,2.8621,0.0,2.8103,2.7891,0.0,0.0,0.0,0.0,0.0,0.0,0.0,0.0,0.0,0.0,0.0,0.0,0.0,0.0,0.0,0.0,0.0,0.0,0.0,0.0,0.0,0.0,0.0,0.0,2.0673,2.0673,1.9606,1.8954,1.887,1.7658,1.7,1.6968,1.6501,1.5996,1.5447,1.6045,1.636,1.6385,1.6913,1.7232,1.7269,1.657,1.6225,1.6139,1.5367,1.4731,1.4212,1.3752,1.3296,1.2881,1.2881,1.2529,1.2076,0.0,0.0,0.0,0.0,0.0,0.0,0.0,0.0,0.0,0.0,0.0,0.0,0.0,1.7825,1.7156,1.627,1.4903,0.0,0.0,0.0,0.0,0.0,0.0,0.0,0.0,0.0,0.0,0.0,0.0,1.6909,1.7148,1.7142,1.6891,1.6447,1.7077,1.7595,1.8004,1.8574,0.0,0.0,2.0154,2.1074,0.0,2.2214,2.2627,2.3267,0.0,0.0,0.0,0.0,0.0,0.0,0.0,2.5702,2.5792,2.6314,2.7289,2.8197,0.0,0.0,0.0,2.7785,2.8144,2.8671,2.7583,0.0,0.0,0.0,0.0,0.0,0.0,0.0,0.0,0.0,0.0,0.0,0.0,0.0,0.0,0.0,0.0,0.0,0.0,0.0,0.0,0.0,0.0,0.0,2.0026,1.9463,1.8853,1.82,1.7746,1.7337,1.7018,1.6659,1.6313,1.5981,1.6124,1.6262,1.6514,1.703,1.7354,1.7518,1.7451,1.7131,1.6595,1.5788,1.5287,1.505,1.4025,1.3478,1.3296,1.3017,1.2783,1.2578,0.0,0.0,0.0,-0.3817,0.0,-0.1945,0.1455,0.5929,0.0,0.0,0.0,0.0,0.0,0.0,0.0,0.0,0.0,0.0,0.0,0.0,0.0,0.0,0.0,0.0,0.0,0.0,0.0,0.0,0.0,0.0,0.0,1.6831,1.6611,1.6108,1.6784,1.7143,0.0,0.0,0.0,1.9477,0.0,0.0,2.2447,0.0,2.3322,0.0,0.0,0.0,0.0,0.0,0.0,0.0,0.0,2.5681,2.5768,2.6275,2.724,2.8124,2.8135,0.0,0.0,0.0,0.0,2.9185,2.8333,0.0,0.0,0.0,0.0,0.0,0.0,0.0,0.0,0.0,0.0,0.0,0.0,0.0,0.0,0.0,0.0,0.0,0.0,0.0,0.0,0.0,0.0,0.0,1.9458,1.9157,1.8633,1.7828,1.7811,1.7589,1.7142,1.6866,1.6633,1.6421,1.6246,1.6302,1.662,1.7161,1.7588,1.7833,1.8079,1.7747,1.6989,1.617,1.572,1.5499,1.4514,1.3941,1.3573,1.3286,1.3055,1.2832,-1.3906,-1.3935,-1.3006,-1.013,-0.9777,-0.8521,-0.4403,0.0733,0.4947,0.0,0.0,0.0,0.0,0.0,0.0,0.0,0.0,0.0,0.0,0.0,0.0,0.0,0.0,0.0,0.0,0.0,0.0,0.0,0.0,0.0,0.0,0.0,1.5572,1.4956,1.6115,1.6695,1.6938,0.0,1.8222,1.8419,0.0,2.1267,2.1658,0.0,0.0,0.0,2.4708,2.4956,0.0,2.5297,0.0,0.0,0.0,2.5661,2.5613,2.5554,2.6713,2.7995,0.0,0.0,0.0,0.0,0.0,0.0,0.0,0.0,0.0,0.0,0.0,0.0,0.0,0.0,0.0,0.0,0.0,0.0,0.0,0.0,0.0,0.0,0.0,0.0,0.0,0.0,0.0,0.0,0.0,2.0101,1.9104,1.8697,1.8304,1.7833,1.7811,1.7698,1.7408,1.7142,1.6901,1.6722,1.6448,1.643,1.6652,1.7371,1.7863,1.822,1.8469,1.8133,1.7393,1.6655,1.6039,1.5632,1.5389,1.4617,1.3658,1.3779,1.342,1.2929,-1.614,-1.6445,-1.573,-1.2771,-1.2378,-1.1442,-0.8399,-0.1727,0.319,0.0,0.0,0.0,0.0,0.0,0.0,0.0,0.0,0.0,0.0,0.0,0.0,0.0,0.0,0.0,0.0,0.0,0.0,0.0,0.0,0.0,0.0,0.0,0.0,0.0,1.6386,1.6633,1.6387,1.7517,0.0,0.0,1.9809,2.1078,0.0,0.0,0.0,0.0,0.0,2.4831,2.5034,0.0,2.534,2.5407,0.0,0.0,0.0,2.641,2.7133,2.7978,2.7933,0.0,0.0,0.0,0.0,0.0,0.0,0.0,0.0,0.0,0.0,0.0,0.0,0.0,0.0,0.0,0.0,0.0,0.0,0.0,0.0,0.0,0.0,0.0,0.0,0.0,0.0,0.0,2.2046,2.0993,2.012,1.9074,1.8445,1.8325,1.7988,1.7749,1.7681,1.7408,1.7264,1.7199,1.7076,1.6972,1.6918,1.749,1.7899,1.8065,1.8241,1.8304,1.8226,1.7421,1.6892,1.6466,1.5876,1.5299,1.4801,1.4514,1.4061,1.3552,-1.7831,-1.8702,-1.8795,-1.7052,-1.6998,-1.65,-1.4485,-0.8036,-0.3284,0.0,0.0,0.0,0.0,0.0,0.0,0.0,0.0,0.0,0.0,0.0,0.0,1.1388,1.177,1.2321,0.0,0.0,0.0,0.0,0.0,0.0,0.0,0.0,0.0,0.0,1.6443,1.655,1.6338,1.7179,0.0,0.0,1.9258,0.0,0.0,2.2303,2.2932,0.0,0.0,0.0,2.4845,2.5,2.5186,0.0,0.0,2.591,2.634,2.623,2.6792,0.0,0.0,0.0,0.0,0.0,0.0,0.0,0.0,2.797,0.0,0.0,0.0,0.0,0.0,0.0,0.0,0.0,0.0,0.0,0.0,0.0,0.0,0.0,0.0,0.0,0.0,0.0,0.0,2.3835,2.3011,2.1984,2.064,1.9791,1.9147,1.8734,1.8328,1.8142,1.8208,1.7777,1.7618,1.7693,1.7462,1.7272,1.7183,1.7694,1.794,1.7973,1.8353,1.8461,1.8398,1.7997,1.7475,1.6833,1.6293,1.5756,1.5266,1.5073,1.4514,1.3815,0.0,-2.0735,-2.1697,-2.1963,-2.2273,-2.2128,-2.097,-1.5673,-1.1597,0.0,0.0,0.0,0.0,0.0,0.0,0.0,0.0,0.0,0.0,0.0,1.0972,1.1029,1.1381,1.1878,1.2535,0.0,0.0,0.0,0.0,0.0,0.0,0.0,0.0,0.0,1.6258,1.6421,1.6405,1.6773,0.0,1.7345,1.8546,1.924,0.0,0.0,2.2153,0.0,2.3593,2.421,2.4598,2.4659,2.5007,0.0,0.0,2.5655,2.5738,2.5657,2.6151,0.0,2.6533,2.6895,0.0,0.0,0.0,0.0,2.7353,2.7003,0.0,0.0,0.0,0.0,0.0,0.0,0.0,0.0,0.0,0.0,0.0,0.0,0.0,0.0,0.0,0.0,0.0,2.6958,2.6197,2.4368,2.3974,2.2954,2.0994,2.0745,2.0223,1.9193,1.8859,1.8729,1.8789,1.8205,1.7971,1.8132,1.7693,1.7472,1.7465,1.7836,1.7979,1.7946,1.8562,1.8597,1.8264,1.8437,1.7908,1.696,1.6693,1.6107,1.5478,1.5522,1.4835,1.3909,-2.2043,-2.248,-2.2874,-2.4178,-2.4148,-2.3478,-2.2165,-1.6886,-1.3023,0.0,0.0,0.0,0.0,0.0,0.0,0.0,0.0,0.0,0.0,0.0,1.0774,1.0084,1.015,1.0433,1.1026,1.1234,0.0,0.0,0.0,0.0,0.0,0.0,0.0,0.0,1.5666,1.5824,1.5809,1.6184,0.0,1.6427,1.7156,0.0,2.0671,1.987,2.0592,2.2118,2.2679,2.3315,2.3984,0.0,2.4946,2.5248,0.0,0.0,2.6622,2.6568,0.0,2.6738,2.6491,2.6006,2.5704,2.6148,0.0,0.0,2.6086,2.5985,2.5966,0.0,0.0,0.0,0.0,0.0,0.0,0.0,0.0,0.0,0.0,0.0,0.0,0.0,0.0,0.0,0.0,2.7886,2.7409,2.6326,2.4778,2.3348,2.2136,2.1881,2.1291,2.0244,1.9989,1.9525,1.8825,1.8506,1.8385,1.8408,1.8117,1.7878,1.7721,1.7541,1.7689,1.8082,1.813,1.8311,1.853,1.8573,1.8187,1.7516,1.7199,1.6879,1.6642,1.6367,1.5623,1.4663,-2.2508,-2.3182,-2.3785,-2.4986,-2.5039,-2.4479,-2.3274,-2.0082,0.0,0.0,0.0,0.0,0.0,0.0,0.0,0.0,0.0,0.0,0.0,0.0,0.326,0.2597,0.3155,0.36,0.3849,0.4224,0.0,0.0,0.0,0.0,0.0,0.0,0.0,0.0,0.0,1.5127,1.569,0.0,1.5874,1.6335,1.6797,0.0,1.9033,1.8792,1.941,2.0506,2.1247,2.2207,2.3275,2.4168,2.4712,0.0,0.0,2.5707,2.6245,0.0,2.6149,2.6091,2.5742,2.5329,2.5044,2.5217,0.0,0.0,0.0,0.0,2.5211,2.566,0.0,0.0,0.0,0.0,0.0,0.0,0.0,0.0,0.0,0.0,0.0,0.0,0.0,0.0,0.0,2.8769,2.8211,2.6894,2.59,2.4737,2.3323,2.3058,2.2325,2.0947,2.0532,1.9961,1.9162,1.8825,1.8678,1.8753,1.8545,1.8348,1.8142,1.7849,1.7716,1.778,1.8035,1.8206,1.8323,1.8623,1.8642,1.8369,1.7449,1.7047,1.6951,1.6595,1.58,1.4903,-2.2577,-2.3458,-2.4319,-2.5625,-2.567,-2.5269,-2.4495,-2.3298,0.0,0.0,0.0,0.0,0.0,0.0,0.0,0.0,0.0,0.0,0.0,0.0,0.0,-0.4884,-0.3905,-0.3386,-0.3386,-0.2946,-0.0546,0.0,0.0,0.0,0.0,0.0,0.0,0.0,0.0,0.0,0.0,0.0,0.0,1.6167,0.0,1.6801,1.7023,1.7704,1.8228,1.8725,1.9945,2.119,2.247,2.3579,0.0,2.4733,2.4955,2.5246,0.0,0.0,0.0,0.0,0.0,0.0,0.0,0.0,0.0,2.4575,0.0,0.0,0.0,2.5366,0.0,0.0,0.0,0.0,0.0,0.0,0.0,0.0,0.0,0.0,0.0,0.0,0.0,0.0,0.0,2.9379,2.8761,2.7397,2.6977,2.6136,2.4699,2.4302,2.3419,2.1826,2.1339,2.0663,1.9759,1.9317,1.9057,1.8998,1.886,1.8715,1.8544,1.8273,1.7941,1.7559,1.8112,1.8334,1.8285,1.8722,1.9086,1.9214,1.7706,1.7118,1.7076,1.6595,1.5856,1.504,-2.3745,-2.3618,-2.4193,-2.734,-2.6607,-2.5706,-2.6053,-2.4632,0.0,0.0,0.0,0.0,0.0,0.0,0.0,0.0,0.0,0.0,-0.5208,0.0,0.0,-0.5583,-0.5218,-0.5076,-0.5208,-0.4565,-0.3645,0.0,0.0,0.0,0.0,0.0,0.9029,1.3954,1.3976,0.0,0.0,0.0,1.4669,0.0,1.5433,1.6083,0.0,1.6209,1.6589,1.7641,1.9532,2.0679,2.146,0.0,2.3476,2.4061,0.0,2.4755,2.517,0.0,0.0,0.0,0.0,0.0,0.0,0.0,2.4861,0.0,0.0,0.0,2.4402,2.4391,0.0,0.0,0.0,0.0,0.0,0.0,0.0,0.0,0.0,0.0,0.0,0.0,0.0,0.0,0.0,0.0,2.906,2.9107,2.7565,2.6582,2.6509,2.5737,2.4757,2.3556,2.3341,2.2421,2.0662,2.0307,1.9757,1.8998,1.886,1.8789,1.8752,1.8491,1.8255,1.804,1.8464,1.8807,1.9058,1.9013,1.9363,1.9748,1.8106,1.7557,1.7625,1.6808,1.6151,1.5611,-2.3383,-2.4121,-2.5208,-2.7104,-2.7261,-2.7004,-2.6676,-2.5335,0.0,0.0,0.0,0.0,0.0,0.0,0.0,0.0,0.0,-1.67,0.0,0.0,0.0,-1.4522,-1.359,-1.3099,-1.3164,-1.234,-1.0359,-0.7164,-0.7618,0.0,0.0,0.0,0.6341,0.9661,1.2026,0.0,1.5435,0.0,1.4352,0.0,0.0,0.0,0.0,1.5338,1.5815,1.6523,1.8029,1.8936,1.963,0.0,2.203,0.0,0.0,0.0,0.0,0.0,0.0,0.0,0.0,0.0,0.0,0.0,0.0,0.0,2.4803,0.0,2.4542,0.0,0.0,0.0,0.0,0.0,0.0,0.0,0.0,0.0,0.0,0.0,0.0,0.0,0.0,0.0,0.0,0.0,0.0,0.0,0.0,2.7618,2.6911,2.6466,2.5577,2.4077,2.3826,2.3057,2.1687,2.1026,2.0455,1.9982,1.9476,1.9143,1.9028,1.8824,1.857,1.8293,1.8481,1.8699,1.8906,1.8797,1.9091,1.9507,1.847,1.7948,1.772,1.7144,1.6454,1.57,-2.3373,0.0,-2.5939,-2.6777,-2.7442,-2.7511,-2.6565,-2.5518,-2.444,0.0,0.0,0.0,-2.2571,-2.2624,0.0,0.0,-2.2007,-2.1601,0.0,0.0,-2.1494,-2.1496,-2.0241,0.0,0.0,-1.8766,-1.6587,-1.2906,-1.3364,0.0,0.0,0.0,0.0,0.6052,0.0,1.3197,1.504,0.0,1.3847,1.3951,1.4613,1.4462,1.3952,1.4727,1.5134,1.5426,1.6413,1.7065,1.7713,1.9285,2.0391,0.0,2.2201,0.0,0.0,0.0,0.0,0.0,2.497,0.0,0.0,0.0,0.0,0.0,0.0,0.0,0.0,0.0,0.0,0.0,0.0,0.0,0.0,0.0,0.0,0.0,0.0,0.0,0.0,0.0,0.0,0.0,0.0,0.0,0.0,0.0,0.0,0.0,2.7647,2.711,2.6242,2.4955,2.4409,2.3694,2.2721,2.1777,2.1143,2.073,1.9876,1.9397,1.9234,1.9127,1.8877,1.851,1.8565,1.8808,1.9164,1.8936,1.9254,1.9797,1.9227,1.8574,1.7854,1.7393,1.668,1.5932,-2.4336,-2.5024,0.0,0.0,0.0,-2.659,-2.5611,-2.5194,-2.4911,0.0,0.0,0.0,0.0,0.0,0.0,0.0,0.0,-2.3767,-2.2978,0.0,-2.2959,-2.303,-2.2116,-2.1552,0.0,-2.1257,-2.1028,-2.0741,-2.0499,-1.7957,0.0,0.0,0.0,0.0,0.0,1.1876,1.2806,1.2839,1.3048,1.339,1.3863,1.4034,1.4026,0.0,1.4323,1.4394,1.4921,0.0,0.0,1.7311,1.861,0.0,0.0,0.0,0.0,0.0,0.0,0.0,0.0,0.0,0.0,2.5105,0.0,0.0,0.0,0.0,2.5272,0.0,0.0,0.0,0.0,0.0,0.0,0.0,0.0,0.0,0.0,0.0,0.0,0.0,0.0,0.0,0.0,0.0,0.0,0.0,0.0,0.0,2.9386,2.7817,2.6841,2.6711,2.564,2.4643,2.3755,2.2684,2.169,2.0792,1.9922,1.9434,1.9289,1.9289,1.9115,1.8789,1.8789,1.9389,2.0295,1.9721,2.0172,2.1178,2.0553,1.9468,1.8104,1.7449,1.6892,1.6349,0.0,0.0,0.0,0.0,0.0,-2.8096,-2.6488,-2.563,0.0,0.0,0.0,0.0,0.0,-2.4316,-2.4352,0.0,0.0,-2.4292,-2.4064,-2.3982,0.0,0.0,0.0,-2.259,0.0,0.0,-2.2281,-2.2164,-2.2028,-2.0781,0.0,0.0,0.0,0.0,0.0,0.8982,0.0,0.0,0.0,0.0,0.0,1.3761,1.3961,0.0,0.0,1.3656,1.3924,1.4024,0.0,1.5235,1.6123,1.6954,1.7773,1.8819,1.9866,2.09,2.1348,0.0,0.0,0.0,2.348,2.3887,0.0,0.0,0.0,0.0,0.0,0.0,0.0,0.0,0.0,0.0,0.0,0.0,0.0,0.0,0.0,0.0,0.0,0.0,0.0,0.0,0.0,0.0,0.0,0.0,0.0,0.0,0.0,2.8397,2.7462,2.6817,2.5812,2.5072,2.4602,2.375,2.2798,2.1709,2.088,2.0121,1.9434,1.935,1.918,1.893,1.893,1.9285,1.9851,1.9555,1.9865,2.0532,2.026,1.9346,1.8168,1.7959,1.7258,1.6392,-2.5685,0.0,0.0,0.0,0.0,0.0,0.0,0.0,0.0,0.0,-2.4872,0.0,-2.4561,0.0,-2.4564,0.0,-2.4613,-2.4629,-2.4678,-2.4604,0.0,-2.4741,-2.4004,0.0,0.0,0.0,-2.3417,-2.3381,-2.3121,-2.2707,0.0,0.0,0.0,0.0,0.0,0.3563,0.8533,0.0,1.0554,0.0,0.0,1.304,0.0,0.0,1.3079,1.2749,0.0,1.2731,1.2659,1.3493,1.4189,1.4876,1.5647,1.6579,1.7542,1.8663,1.9192,1.9651,2.0771,2.1348,0.0,2.2219,2.2745,0.0,2.3938,0.0,0.0,0.0,0.0,0.0,0.0,0.0,0.0,0.0,0.0,0.0,0.0,0.0,0.0,0.0,0.0,0.0,0.0,0.0,2.891,3.0008,0.0,0.0,0.0,0.0,2.7925,2.732,2.6085,2.534,2.5178,2.4379,2.3422,2.2319,2.1528,2.0618,1.9632,1.9481,1.9295,1.9125,1.9355,1.9666,2.0,2.0208,2.0525,2.0891,2.083,2.0012,1.8852,1.8387,1.7382,1.6163,0.0,0.0,0.0,0.0,-2.5744,0.0,0.0,0.0,-2.5422,0.0,-2.5222,-2.5115,-2.4842,-2.4818,-2.4818,-2.4818,-2.4818,0.0,-2.4818,-2.4818,0.0,0.0,-2.4814,-2.4422,-2.3777,0.0,0.0,0.0,-2.4097,-2.3899,0.0,0.0,0.0,0.0,-0.9326,0.0,0.0325,0.141,0.5375,1.0853,1.1,1.1089,1.108,1.108,0.0,1.0935,1.1216,1.1144,1.0952,1.1451,1.227,1.3082,1.3203,1.4179,1.5434,1.626,1.7026,1.7877,1.8913,1.9593,2.0003,2.0223,0.0,0.0,0.0,0.0,2.3171,0.0,0.0,0.0,0.0,0.0,0.0,0.0,0.0,0.0,0.0,0.0,0.0,0.0,0.0,0.0,0.0,2.6975,2.7937,2.9877,2.991,0.0,0.0,0.0,2.8222,2.8205,2.647,2.554,2.5496,2.4609,2.3655,2.2642,2.1845,2.0919,1.9943,1.9743,1.9553,1.9387,2.0074,2.0508,2.081,2.1569,2.2029,2.2192,2.2192,2.1362,1.9986,1.8679,1.7164,1.5744,-2.6537,-2.7362,-2.7891,0.0,-2.7039,-2.632,0.0,0.0,0.0,0.0,-2.5303,-2.5253,-2.5175,-2.5084,-2.5012,-2.5012,-2.5012,0.0,0.0,0.0,0.0,-2.5145,-2.4896,-2.4793,-2.4817,-2.5422,0.0,-2.5485,0.0,0.0,-2.3179,0.0,0.0,0.0,0.0,0.0,-0.6194,-0.4618,-0.2825,-0.0999,-0.0961,-0.1192,0.0,0.0,-0.1593,-0.0968,0.4251,0.5701,0.4646,0.1543,0.3285,0.6116,0.2458,0.6942,1.2978,0.9993,1.2006,1.5384,1.6335,1.7262,1.8044,1.8485,1.9263,2.009,0.0,0.0,0.0,0.0,0.0,0.0,0.0,0.0,0.0,0.0,0.0,0.0,0.0,0.0,0.0,0.0,0.0,0.0,2.4939,2.6595,2.7991,2.8713,2.9677,0.0,0.0,0.0,0.0,2.8134,2.7043,2.6126,2.5426,2.52,2.4561,2.3563,2.2709,2.172,2.064,2.0551,2.0329,2.0094,2.102,2.1472,2.1587,2.1756,2.1969,2.2164,2.1969,2.0879,1.9235,1.8154,1.7133,1.6151,-2.7421,0.0,0.0,-2.8258,0.0,0.0,-2.6741,0.0,0.0,-2.5977,-2.563,0.0,-2.5303,-2.5234,-2.5182,-2.5182,-2.5182,0.0,-2.5241,0.0,0.0,-2.5283,-2.513,-2.5141,-2.5274,-2.5625,0.0,-2.5582,0.0,0.0,-2.3775,0.0,0.0,0.0,0.0,-1.6786,-1.2386,-0.8231,-0.6314,-0.607,-0.607,0.0,0.0,-0.6072,-0.6058,-0.594,-0.3554,-0.1679,-0.0382,-0.0722,-0.0063,0.0404,-0.2525,0.2255,0.8054,0.3622,0.7598,1.3106,1.1643,1.3365,1.5695,1.6256,1.6859,1.7599,1.8569,1.9002,1.9515,0.0,0.0,0.0,0.0,0.0,0.0,0.0,0.0,0.0,0.0,0.0,0.0,0.0,0.0,0.0,2.4213,2.6099,2.7691,2.8464,2.9166,0.0,0.0,0.0,0.0,2.8159,2.7266,2.638,2.5506,2.5482,2.5005,2.4063,2.3612,2.2842,2.1854,2.1723,2.1563,2.139,2.2133,2.2409,2.2353,2.2593,2.2682,2.2626,2.1807,2.0346,1.8569,1.7853,1.5215,1.1867,0.0,0.0,0.0,0.0,0.0,0.0,0.0,-2.7012,0.0,-2.6712,0.0,-2.539,-2.5313,-2.5303,-2.5293,-2.5293,0.0,-2.5293,-2.5303,-2.5303,-2.5332,-2.5389,-2.5387,-2.5393,-2.5398,-2.5352,0.0,0.0,0.0,0.0,0.0,0.0,0.0,0.0,0.0,0.0,0.0,-1.1946,-0.924,0.0,-0.9217,-0.9205,-0.9096,-0.8345,-0.8151,-0.8582,-1.111,-0.926,-0.5026,-0.1344,-0.2097,-0.4719,-0.5569,-0.1852,0.1983,-0.2625,0.3277,1.0457,0.6529,0.9393,1.3557,1.403,1.4274,1.4718,1.6098,1.6882,1.7613,1.8692,1.976,2.0662,0.0,0.0,0.0,0.0,0.0,0.0,0.0,0.0,0.0,0.0,0.0,0.0,0.0,2.5729,2.7194,2.8308,2.8461,0.0,0.0,0.0,0.0,2.8223,2.7398,0.0,2.5577,0.0,2.5211,2.4436,2.4415,2.3998,2.3217,2.3037,2.2907,2.2849,2.3271,2.3313,2.3098,2.3595,2.3548,2.2981,2.1341,1.963,1.7924,1.6573,1.1351,0.495,0.0,0.0,0.0,0.0,0.0,-2.9606,-3.0334,-2.831,-2.6714,-2.6849,-2.6074,-2.5471,-2.5393,-2.5274,-2.5222,-2.5222,-2.5222,0.0,0.0,0.0,0.0,-2.5313,-2.5322,-2.5341,-2.5397,-2.5385,-2.5293,0.0,-2.5156,-2.5057,0.0,0.0,0.0,0.0,0.0,0.0,-2.3157,-2.2117,0.0,-2.1488,-2.1488,-2.1404,-2.1235,-2.1072,-2.0241,-1.8722,-1.5483,-1.2787,-1.1216,-1.4063,-1.2659,-1.0452,-1.4829,-0.9689,-0.3039,-0.8087,-0.2157,0.5873,0.5068,0.8912,1.32,1.3281,1.3802,1.4351,1.4876,1.5314,1.5979,1.7273,1.7707,1.8283,1.962,0.0,0.0,0.0,0.0,0.0,0.0,0.0,0.0,0.0,0.0,0.0,0.0,0.0,2.6764,2.6294,0.0,0.0,0.0,0.0,0.0,0.0,0.0,0.0,0.0,0.0,0.0,2.5113,2.4626,2.4235,2.3914,2.3838,2.3681,2.3564,2.4063,2.4174,2.3968,2.385,2.3018,2.163,1.9461,1.8413,1.7265,1.0527,0.3584,-0.175,0.0,0.0,0.0,0.0,0.0,0.0,0.0,-2.9391,0.0,-2.7632,-2.6384,-2.5543,-2.5512,-2.5414,-2.5357,-2.5357,-2.5331,-2.5332,-2.5351,-2.5351,-2.536,-2.5406,-2.5393,0.0,-2.5445,-2.549,-2.5437,-2.5301,-2.5274,-2.5177,0.0,0.0,0.0,-2.6001,0.0,-2.5672,0.0,0.0,0.0,-2.4599,-2.4599,-2.453,-2.4408,-2.3981,-2.307,-2.1652,-1.8985,-1.7151,-1.5973,-1.5615,-1.5308,-1.5499,-1.8074,-1.3567,-0.8301,-1.3389,-0.7551,0.003,-0.2583,0.2448,0.7888,0.5676,0.7598,0.998,0.9682,1.0365,1.1801,1.4479,1.563,1.6632,1.8127,1.9717,0.0,0.0,0.0,0.0,0.0,0.0,0.0,0.0,0.0,0.0,0.0,0.0,0.0,0.0,0.0,0.0,0.0,0.0,0.0,0.0,0.0,0.0,0.0,0.0,0.0,2.5504,2.5104,2.4878,2.4762,2.4629,2.4491,2.4381,2.4549,2.4555,2.4288,2.2132,1.9297,1.6197,1.4955,1.492,1.4616,0.6848,0.0507,-0.4301,0.0,-3.2944,0.0,0.0,-3.1426,0.0,-3.0813,-3.0111,-2.9251,-2.8312,-2.6832,-2.5809,-2.563,-2.5549,-2.5518,-2.5518,-2.5464,-2.5434,-2.5449,-2.5449,-2.5476,-2.5529,-2.5518,-2.5512,-2.5499,-2.5562,-2.5562,0.0,0.0,0.0,0.0,0.0,-2.6224,-2.6132,0.0,0.0,0.0,0.0,-2.4771,-2.4704,-2.4704,-2.4673,-2.4554,-2.3917,-2.3135,-2.2283,-2.1456,-2.0634,-1.9346,-1.5307,-1.6138,-1.8895,-1.8998,-1.6072,-1.3381,-1.7366,-1.2023,-0.5696,-0.9625,-0.4193,0.174,-0.1564,0.114,0.4462,0.3909,0.4744,0.6503,0.9649,1.202,1.4278,1.6728,1.8331,0.0,0.0,0.0,0.0,0.0,0.0,0.0,0.0,0.0,0.0,0.0,0.0,0.0,0.0,0.0,0.0,0.0,0.0,0.0,0.0,0.0,2.7223,2.5693,0.0,2.5479,0.0,2.5385,2.5343,2.5333,2.5163,2.5052,2.4985,2.4797,2.4222,2.3147,1.9016,1.498,1.1361,1.0878,1.0815,1.0081,0.2706,-0.2674,-0.7307,0.0,0.0,0.0,0.0,0.0,0.0,0.0,-3.0121,-2.9255,-2.833,-2.7379,-2.6485,-2.5688,-2.5586,-2.5581,-2.5581,-2.5576,-2.5576,-2.5576,-2.5576,-2.5576,-2.5595,-2.5581,-2.5565,-2.5499,-2.5568,-2.5531,0.0,0.0,0.0,0.0,0.0,-2.645,-2.6249,0.0,0.0,0.0,-2.5168,-2.5168,-2.5049,-2.5049,-2.4904,-2.4693,-2.4618,-2.4035,-2.3157,-2.2301,-2.1461,-2.0602,-1.9416,-1.9044,-1.9077,-1.9166,-1.8574,-1.799,-1.8459,-1.4605,-1.0235,-1.0534,-0.6656,-0.2547,-0.2723,-0.1621,-0.0462,-0.0296,0.0147,0.0691,0.1356,0.4986,0.9765,1.5449,1.6586,1.7301,0.0,0.0,0.0,0.0,0.0,0.0,0.0,0.0,0.0,0.0,0.0,0.0,0.0,0.0,0.0,0.0,0.0,0.0,2.7851,0.0,2.7222,2.5975,2.5541,0.0,2.4879,2.5051,2.5125,2.5127,2.5112,2.5052,2.4985,2.4797,2.2697,1.9071,1.4195,1.1776,1.1017,0.9841,0.7052,0.2834,-0.4253,-0.9705,-1.4502,0.0,0.0,0.0,0.0,0.0,0.0,0.0,-3.0527,-3.0012,-2.9152,-2.7839,-2.6627,-2.5762,-2.5625,-2.5609,-2.5609,-2.5561,-2.5565,-2.559,-2.5595,-2.5595,-2.561,-2.561,-2.5581,-2.5565,-2.5593,-2.5562,0.0,0.0,0.0,0.0,0.0,0.0,0.0,0.0,-2.539,-2.5293,-2.535,-2.5313,-2.5222,-2.5171,-2.5096,-2.4993,-2.4993,-2.4473,-2.365,-2.2764,-2.1909,-2.1054,-2.0085,-1.9553,-1.9283,-1.9305,-1.9031,-1.8734,-1.8771,-1.7119,-1.5265,-1.5237,-1.1513,-0.8268,-1.0951,-0.8633,-0.5866,-0.6428,-0.578,-0.4347,-0.19,0.0558,0.3948,0.9432,1.0888,1.2756,0.0,0.0,0.0,0.0,0.0,0.0,0.0,0.0,2.5667,0.0,0.0,0.0,0.0,0.0,2.683,2.7087,0.0,0.0,2.8378,0.0,2.7257,2.6129,2.545,2.5079,2.4985,2.4939,2.492,2.4927,2.4791,2.4688,2.4498,2.2259,1.9132,1.5314,1.0984,0.7869,0.5671,0.4803,0.2919,-0.016,-0.7458,-1.1779,-1.5062,-3.5866,0.0,-3.3301,0.0,-3.1898,-3.0768,-3.0768,-3.0796,-3.0507,-2.9679,-2.85,-2.7305,-2.6195,-2.5807,-2.5639,-2.5639,-2.5593,-2.5576,-2.5624,-2.5624,-2.5628,-2.5636,-2.564,0.0,-2.5604,-2.5605,-2.5595,-2.56,-2.5531,0.0,0.0,-2.5517,0.0,0.0,-2.5546,-2.5562,-2.5536,-2.5485,-2.543,-2.5374,-2.5348,-2.5283,-2.5254,-2.5254,-2.4878,-2.4224,-2.3351,-2.2661,-2.1943,-2.0686,-2.0113,-1.9862,-1.9555,-1.9209,-1.8947,-1.893,-1.8679,-1.8368,-1.827,-1.5643,-1.3648,-1.6715,-1.4252,-1.1218,-1.1808,-1.1163,-0.9285,-0.5139,-0.3788,-0.179,0.334,0.6009,0.9048,1.3931,0.0,0.0,0.0,0.0,0.0,0.0,2.4265,2.5576,2.6621,0.0,0.0,0.0,0.0,2.7358,2.7213,0.0,0.0,0.0,0.0,0.0,0.0,2.5311,2.4941,2.4927,2.478,2.4535,2.4139,2.2833,2.2256,2.2046,1.759,1.4217,1.1398,0.6383,0.2684,0.0,-0.1614,-0.354,-0.6081,-1.1361,-1.4713,-1.7433,-3.5801,-3.4439,-3.3291,-3.3291,-3.1855,-3.0701,-3.0701,-3.0751,-3.0487,-2.9628,-2.948,-2.8842,-2.7171,-2.6214,-2.5707,-2.5707,-2.5707,-2.5707,-2.5707,-2.5707,-2.5707,0.0,0.0,-2.5679,-2.5593,-2.5593,-2.5609,-2.5601,0.0,0.0,-2.5493,-2.5499,-2.5498,-2.5499,-2.5498,-2.5549,-2.5599,-2.56,-2.5605,-2.5605,-2.5605,-2.5525,-2.5401,-2.5401,-2.5274,-2.4981,-2.4159,-2.3883,-2.3605,-2.1942,-2.1297,-2.0975,-1.9854,-1.9405,-1.9259,-1.9064,-1.8913,-1.8696,-1.8232,-1.8255,-1.8235,-1.7555,-1.6998,-1.6416,-1.5687,-1.5524,-1.4182,-0.9493,-0.8566,-0.7066,-0.1944,0.3056,0.7045,0.8971,0.0,0.0,0.0,0.0,0.0,0.0,2.3253,2.4726,2.6792,0.0,0.0,0.0,0.0,0.0,0.0,0.0,0.0,2.6348,2.6323,0.0,2.5707,2.5103,2.4704,2.4517,2.45,2.3875,2.2582,1.8682,1.7042,1.6924,1.0597,0.7788,0.7188,-0.0522,-0.4038,-0.5009,-0.9003,-1.3152,-1.6931,-1.699,-1.9855,-2.3691,-3.5779,-3.489,-3.3952,-3.3393,-3.2396,-3.1456,-3.0859,-3.0784,-3.0699,-3.043,-2.9901,-2.9372,-2.8826,-2.7453,-2.6585,0.0,-2.6032,-2.5703,0.0,-2.5703,-2.5703,-2.5707,-2.6273,-2.6583,-2.6559,-2.7142,-2.7156,-2.6542,0.0,0.0,0.0,-2.5636,-2.5642,-2.5642,-2.5648,-2.5652,-2.5676,-2.5615,-2.559,-2.5598,-2.5593,-2.5571,-2.5543,-2.5543,-2.5499,-2.5323,-2.4432,-2.4099,-2.3937,-2.2747,-2.2326,-2.221,-2.1644,-2.0549,-1.9405,-1.924,-1.8998,-1.8771,-1.8624,-1.8471,-1.8328,-1.8065,-1.7657,-1.725,-1.7014,-1.6678,-1.5915,-1.4095,-1.3882,-1.2416,-0.7184,-0.2091,0.2995,0.8161,1.3442,0.0,0.0,0.0,0.0,0.0,2.391,2.5782,0.0,2.714,0.0,0.0,0.0,0.0,0.0,0.0,0.0,0.0,2.6727,0.0,2.5689,2.4955,2.4136,2.3214,2.325,2.1645,1.859,1.5599,1.4197,1.3714,0.7766,0.5133,0.4608,-0.1992,-0.4786,-0.5144,-0.6613,-1.0523,-1.526,-1.526,-1.8686,-2.3378,-3.5708,-3.5053,-3.434,-3.3841,-3.2844,-3.1928,-3.1367,-3.1011,-3.081,-3.0799,-3.0351,-3.0058,-3.0058,-2.8806,0.0,-2.7054,-2.6501,-2.6047,-2.5715,-2.6015,-2.6179,-2.6145,-2.6989,-2.746,-2.7441,0.0,0.0,-2.6995,-2.6671,-2.6227,-2.5697,-2.5694,-2.5698,-2.5703,-2.5703,-2.5703,-2.5703,-2.5662,-2.5644,-2.5636,-2.5632,-2.5621,-2.5595,-2.56,-2.5571,-2.5488,-2.4904,-2.4697,-2.4542,-2.362,-2.3328,-2.3225,-2.2645,-2.1649,-2.0571,-2.0018,-1.9449,-1.8964,-1.8825,-1.8698,-1.8548,-1.8351,-1.8146,-1.7893,-1.7658,-1.7191,-1.6712,-1.6436,-1.6501,-1.5564,-1.2182,-0.7637,-0.2113,0.4916,1.0209,1.4742,1.8464,0.0,0.0,0.0,0.0,0.0,0.0,2.6632,0.0,0.0,0.0,0.0,0.0,0.0,0.0,2.7211,2.6167,0.0,2.4569,2.4056,2.2714,2.0559,1.9108,1.6713,1.3447,1.0267,0.8333,0.721,0.2587,0.0575,0.0096,-0.517,-0.7598,-0.8212,-0.9919,-1.3051,-1.6597,-1.6597,-1.912,-2.2574,-3.5607,-3.5047,0.0,0.0,-3.3256,0.0,-3.2192,-3.1451,-3.0888,-3.0888,-3.0839,-3.08,-3.08,-3.0137,-2.9004,-2.734,0.0,0.0,0.0,-2.6648,-2.7067,-2.6992,-2.783,-2.8289,-2.8296,-2.8355,-2.7948,-2.7071,-2.6149,-2.5693,-2.5703,-2.5703,-2.5703,-2.5703,-2.5703,-2.5703,-2.5703,-2.5699,-2.5707,-2.5697,-2.57,-2.5666,-2.5617,-2.5605,-2.5561,-2.5515,-2.551,-2.551,-2.5382,-2.458,-2.43,-2.4107,-2.3093,-2.2736,-2.2462,-2.1255,-2.023,-1.9405,-1.9038,-1.9054,-1.9053,-1.8508,-1.8489,-1.843,-1.7732,-1.7216,-1.6841,-1.6815,-1.6815,-1.6779,-1.6591,-1.2898,-0.7607,-0.0589,0.4576,1.011,1.6959,0.0,0.0,0.0,0.0,0.0,0.0,2.5568,2.6215,0.0,0.0,0.0,0.0,0.0,2.589,2.5178,2.4827,2.4019,2.2723,2.2459,2.0367,1.6513,1.2593,0.9547,0.7308,0.3147,0.0252,-0.1536,-0.4234,-0.5356,-0.5645,-0.9636,-1.193,-1.3302,-1.7109,-1.9171,-2.0002,-2.0035,-2.0687,-2.1553,0.0,0.0,-3.5146,-3.4536,-3.4192,-3.3779,-3.3117,-3.2322,-3.1799,-3.1799,-3.1218,-3.0792,-3.0792,-3.0621,-3.0097,-2.9062,-2.8378,-2.7907,-2.7693,-2.7832,-2.7929,-2.7969,-2.8743,-2.9186,-2.9189,-2.9832,-2.9432,-2.7913,-2.6426,-2.5697,-2.5705,-2.5704,-2.5697,-2.5707,-2.5707,-2.5694,-2.5694,-2.5709,-2.5691,-2.5698,-2.5702,-2.5683,-2.5673,-2.5679,-2.5672,-2.5645,-2.5598,-2.5585,-2.5537,-2.529,-2.5161,-2.5045,-2.4697,-2.4085,-2.3293,-2.219,-2.1629,-2.1198,-2.0388,-2.006,-1.9794,-1.9144,-1.8843,-1.8452,-1.7641,-1.7519,-1.7408,-1.6825,-1.6901,-1.7062,-1.718,-1.3186,-0.9262,-0.734,0.1341,0.8594,1.0685,1.6263,0.0,0.0,2.2191,2.3711,2.3962,2.5018,2.5659,0.0,0.0,0.0,0.0,0.0,2.5318,2.5848,2.4136,2.3056,2.27,1.9902,1.5719,1.0215,0.6447,0.3305,0.0664,-0.2192,-0.3896,-0.4677,-0.696,-0.792,-0.8165,-1.1508,-1.301,-1.3439,-1.4996,-1.663,-1.8078,-1.8401,-1.9588,-2.111,-3.554,-3.5593,-3.5454,-3.502,-3.47,-3.4361,-3.3874,-3.2775,-3.2026,-3.2042,-3.1305,-3.0768,-3.0799,-3.081,-3.0618,-3.0187,-2.9355,-2.869,-2.8319,-2.8632,-2.8844,-2.8844,-2.9645,-3.0076,-3.0056,-3.0505,-2.9927,-2.82,-2.7282,-2.6431,-2.5659,-2.6054,-2.604,-2.5649,-2.5656,-2.5658,-2.5654,-2.5644,-2.5672,-2.5697,-2.5699,-2.5703,-2.5702,-2.5703,-2.5701,-2.5709,-2.5657,-2.5645,-2.5648,-2.5561,-2.5517,-2.5459,-2.533,-2.4937,-2.4394,-2.3727,-2.2884,-2.2046,-2.1402,-2.1131,-2.0814,-1.9879,-1.9183,-1.8566,-1.8023,-1.7932,-1.7929,-1.7902,-1.7913,-1.8021,-1.8394,-1.6432,-1.3676,-1.0354,-0.4825,0.123,0.744,1.2121,0.0,1.8957,2.0809,2.1835,2.1882,2.3239,2.4083,2.3946,0.0,0.0,2.2399,2.2233,2.3185,2.5393,2.2587,2.0755,2.0196,1.3877,0.9003,0.5535,0.1551,-0.1756,-0.4347,-0.5514,-0.6833,-0.8268,-0.946,-1.0101,-1.0455,-1.2132,-1.3273,-1.3996,-1.4654,-1.6009,-1.7624,-1.8068,-1.914,-2.0509,-3.5493,-3.554,-3.5585,-3.5585,-3.503,-3.4589,-3.4589,-3.3161,-3.2103,-3.2174,-3.1315,-3.0711,-3.0765,-3.0768,-3.0768,-3.0768,-3.009,-2.9375,-2.871,-2.9373,-2.9757,-2.9693,-3.042,-3.0769,-3.0728,-3.0575,-2.9819,-2.8375,-2.8248,-2.7359,-2.5812,-2.6541,-2.6415,-2.5583,-2.5595,-2.5595,-2.5605,-2.5609,-2.5637,-2.5681,-2.5699,-2.5702,-2.5703,-2.5703,-2.5703,-2.5696,-2.5696,-2.5689,-2.5696,-2.5621,-2.56,-2.5576,-2.5456,-2.5412,-2.5369,-2.5187,-2.4052,-2.2754,-2.2356,-2.2167,-2.1779,-2.0679,-1.9758,-1.9091,-1.8917,-1.8682,-1.871,-1.9359,-1.9315,-1.9331,-1.9858,-2.0323,-1.8675,-1.2749,-1.1601,-0.7623,0.349,0.0,1.0588,1.6199,1.836,1.9435,1.9612,2.1159,2.2091,2.1915,2.3019,2.2285,0.0,1.8527,1.9771,2.2936,1.9712,1.6962,1.5012,0.7046,0.2405,0.1017,-0.2597,-0.5668,-0.8158,-0.7949,-0.9144,-1.1427,-1.1427,-1.1678,-1.2126,-1.2353,-1.3311,-1.4665,-1.5316,-1.6481,-1.7868,-1.8369,-1.9111,-1.9982,-3.5493,-3.552,-3.5515,-3.5515,-3.5454,-3.5416,-3.5416,-3.3983,-3.2947,-3.299,-3.1603,-3.062,-3.0626,-3.0626,-3.0626,-3.0626,-3.0502,-3.0414,-3.0415,-3.0543,-3.0615,-3.0606,-3.0728,-3.0799,-3.0774,-3.0015,-2.9474,-2.9215,-2.8485,-2.7605,-2.6609,-2.6752,-2.6347,-2.5515,-2.5577,-2.5607,-2.5599,-2.5667,-2.5652,-2.5629,-2.5685,-2.5696,-2.5701,-2.5696,-2.57,-2.5703,-2.5703,-2.5703,-2.5702,-2.5691,-2.5648,-2.5589,-2.5515,-2.5446,-2.5382,-2.5293,-2.5081,-2.4648,-2.3701,-2.2912,-2.2163,-2.1478,-2.1225,-2.1062,-2.0695,-2.0548,-2.0455,-2.0327,-2.0356,-2.0547,-2.0975,-2.1071,-2.0738,-1.9652,-1.5216,-1.1083,-0.879,0.0,0.8925,0.9859,1.5722,1.9702,1.9682,2.0272,2.0618,2.0525,1.9043,1.7917,1.7373,1.5471,1.4661,1.5287,1.3751,1.0313,0.4909,0.3852,0.0206,-0.6019,-0.6173,-0.7826,-1.0704,-1.0661,-1.1133,-1.1977,-1.1977,-1.2026,-1.2215,-1.3632,-1.4356,-1.4756,-1.6318,-1.7284,-1.7908,-1.8636,-1.9236,-1.9814,-3.5289,-3.5398,-3.5493,-3.546,-3.5463,-3.5483,-3.5496,-3.4441,-3.3503,-3.3083,-3.1961,-3.1032,-3.0595,-3.0545,-3.0571,-3.0598,-3.0571,-3.0581,-3.0697,-3.0691,-3.0701,-3.0735,-3.0745,-3.0739,-3.0739,-3.0331,-2.9872,-2.9407,-2.9473,-2.8813,-2.7498,-2.7501,-2.7017,-2.613,-2.5723,-2.5809,-2.623,-2.5774,-2.5853,-2.6208,-2.5814,-2.5654,-2.5659,-2.5685,-2.5697,-2.5703,-2.5703,-2.5703,-2.5702,-2.5699,-2.5672,-2.5637,-2.5531,-2.5488,-2.5441,-2.5418,-2.5284,-2.5038,-2.453,-2.374,-2.2951,-2.2606,-2.2224,-2.1856,-2.1604,-2.1462,-2.1478,-2.1877,-2.1767,-2.1829,-2.2527,-2.2516,-2.2331,-2.201,-1.9657,0.0,0.0,-0.6825,-0.1704,0.1642,0.5041,0.7046,0.6928,1.1045,1.3161,1.1792,1.2773,1.2085,0.8934,0.5587,0.3306,0.231,0.5874,0.5526,0.0683,-0.161,-0.4532,-0.8062,-0.8676,-0.979,-1.1318,-1.1466,-1.1566,-1.1719,-1.2638,-1.2928,-1.2909,-1.4079,-1.4903,-1.5407,-1.6476,-1.7531,-1.8535,-1.9089,-1.9722,-2.0379,-3.5053,-3.5223,-3.5369,-3.532,-3.5335,-3.5383,-3.5364,-3.464,-3.3848,-3.3262,-3.2293,-3.1422,-3.083,-3.0568,-3.0481,-3.0528,-3.049,-3.047,-3.0524,-3.0524,-3.0579,-3.0661,-3.0671,-3.0646,-3.0646,-3.0639,-3.0288,-2.9637,-3.03,-2.9865,-2.8373,-2.836,-2.7763,-2.6691,-2.6265,-2.6347,-2.6752,-2.6306,-2.6489,-2.7031,-2.6223,-2.5905,-2.589,-2.572,-2.5685,-2.5679,-2.5677,-2.5682,-2.5703,-2.5702,-2.5702,-2.568,-2.5584,-2.5543,-2.555,-2.5512,-2.5303,-2.508,-2.5043,-2.4518,-2.3954,-2.3742,-2.321,-2.2707,-2.2604,-2.2495,-2.2613,-2.3321,-2.3179,-2.3139,-2.386,-2.3838,-2.3542,-2.2987,0.0,0.0,0.0,-1.397,-1.1306,-0.647,-0.473,-0.3922,-0.4037,0.1568,0.4444,0.2652,0.4911,0.444,0.0,-0.3349,-0.5609,-0.6656,-0.085,0.0584,-0.2987,-0.6285,-0.837,-0.9343,-1.0351,-1.1057,-1.1592,-1.1809,-1.1957,-1.212,-1.3439,-1.3871,-1.3726,-1.4539,-1.5306,-1.5947,-1.6519,-1.7652,-1.9037,-1.9441,-2.0158,-2.099,-3.4812,-3.4944,-3.5034,-3.5034,-3.5168,-3.5315,-3.5315,-3.4576,-3.4021,-3.4007,-3.2541,-3.1525,-3.1513,-3.0797,-3.0318,-3.0318,-3.0316,-3.0316,-3.0311,-3.0316,-3.0402,-3.0603,-3.0554,-3.0519,-3.0519,-3.0453,-3.0384,-3.0326,-3.0384,-3.0018,-2.9214,-2.9148,-2.8287,-2.6819,-2.752,-2.7406,-2.6768,-2.7572,-2.7954,-2.7918,-2.7129,-2.6804,-2.6714,-2.5906,-2.5604,-2.5619,-2.5613,-2.5651,-2.5693,-2.5702,-2.5703,-2.5703,-2.5687,-2.5696,-2.5665,-2.5546,-2.5439,-2.5337,-2.5135,-2.5137,-2.5069,-2.4695,-2.4463,-2.4335,-2.4316,-2.4251,-2.4217,-2.4309,-2.4375,-2.4492,-2.461,-2.4463,-2.4234,-2.3866,0.0,0.0,-2.2832,-1.7639,-1.3783,-1.343,-0.7937,-0.4176,-0.4178,-0.3749,-0.3376,-0.3126,-0.4895,-0.5987,-0.5998,-0.6449,-0.606,-0.4561,-0.4219,-0.5631,-0.9047,-0.8114,-0.917,-1.2173,-1.099,-1.1149,-1.2406,-1.2445,-1.3155,-1.4345,-1.4482,-1.4528,-1.4585,-1.5452,-1.586,-1.599,-1.6824,-1.7907,-1.9022,-1.9396,-2.0234,-2.1309,-3.4564,-3.4591,-3.4655,-3.4735,-3.4715,-3.4715,-3.4851,-3.4697,-3.4369,-3.3853,-3.3363,-3.2851,-3.2335,-3.1991,-3.1814,-3.1842,-3.1364,-3.1057,-3.1103,-3.0567,-3.0309,-3.0472,-3.049,-3.0498,-3.0501,-3.0482,-3.0433,-3.0402,-3.0402,-3.0248,-2.9959,-2.9357,-2.8758,-2.8161,-2.7951,-2.7981,-2.8173,-2.8067,-2.8354,-2.8767,-2.7961,-2.7627,-2.7491,-2.6656,-2.6348,-2.6276,-2.5731,-2.5589,-2.5642,-2.5634,-2.5666,-2.5698,-2.5703,-2.5702,-2.5699,-2.5642,-2.5603,-2.5559,-2.5383,-2.5345,-2.5329,-2.5166,-2.5086,-2.5045,-2.4998,-2.4905,-2.486,-2.4953,-2.4872,-2.4842,-2.4972,-2.4911,-2.475,-2.4501,0.0,-2.4614,-2.4298,-2.2235,-2.0768,-2.0774,-1.8715,-1.7284,-1.7285,-1.3279,-1.1173,-1.2413,-1.1502,-1.1439,-1.273,-1.375,-1.3705,-1.2398,-1.088,-0.9734,-0.8912,-1.0417,-1.1826,-1.3062,-1.2531,-1.2792,-1.3814,-1.4369,-1.4608,-1.4665,-1.5728,-1.5903,-1.5452,-1.6361,-1.6685,-1.674,-1.706,-1.8039,-1.9324,-1.9453,-2.0405,-2.1757,-3.3934,-3.3925,-3.3904,-3.3752,-3.3671,-3.3746,-3.4137,-3.409,-3.3904,-3.3545,-3.3447,-3.308,-3.2224,-3.2162,-3.2114,-3.1897,-3.1408,-3.1111,-3.1153,-3.0552,-3.0241,-3.0325,-3.0383,-3.0404,-3.0419,-3.0419,-3.0378,-3.0344,-3.0344,-3.0344,-3.0344,-2.9697,-2.9238,-2.9001,-2.8675,-2.8706,-2.8994,-2.8758,-2.9022,-2.9535,-2.8732,-2.841,-2.8313,-2.7496,-2.7019,-2.6709,-2.6101,-2.5754,-2.5604,-2.558,-2.5609,-2.5679,-2.5676,-2.5682,-2.5703,-2.5701,-2.57,-2.5676,-2.5584,-2.5527,-2.5473,-2.543,-2.5387,-2.5398,-2.533,-2.5255,-2.5236,-2.5346,-2.5225,-2.513,-2.5236,-2.5236,-2.5178,-2.5041,-2.5101,-2.5111,-2.5004,-2.5013,-2.5009,-2.5018,-2.523,-2.5312,-2.5212,-2.0696,-1.8313,-1.9615,-1.7679,-1.6641,-1.7144,-1.7913,-1.7702,-1.635,-1.4913,-1.2959,-1.0368,-1.2368,-1.3643,-1.4193,-1.3914,-1.4228,-1.5038,-1.5628,-1.5716,-1.5496,-1.6685,-1.6866,-1.6361,-1.6964,-1.7282,-1.7393,-1.7393,-1.8288,-1.9555,-1.9718,-2.0745,-2.2178,-3.2863,-3.2865,-3.2748,-3.1953,-3.1984,-3.237,-3.3177,-3.2614,-3.237,-3.3195,-3.2593,-3.1785,-3.0997,-3.1033,-3.0781,-2.9983,-3.0094,-3.0194,-3.0204,-3.0204,-3.0199,-3.0207,-3.0199,-3.0204,-3.0204,-3.0204,-3.0204,-3.0204,-3.0204,-3.0221,-3.0304,-3.024,-2.9761,-2.9044,-2.9767,-2.9617,-2.8872,-2.9726,-3.0171,-3.0217,-2.9417,-2.9186,-2.9205,-2.8347,-2.752,-2.6805,-2.6738,-2.6223,-2.5599,-2.5523,-2.5542,-2.5605,-2.5595,-2.5641,-2.57,-2.57,-2.57,-2.5698,-2.5705,-2.5701,-2.5639,-2.5446,-2.5395,-2.5395,-2.5395,-2.5395,-2.5414,-2.5495,-2.5498,-2.5478,-2.5418,-2.5466,-2.5504,-2.5504,-2.5389,-2.5366,-2.5563,-2.5422,-2.5356,-2.5473,-2.5498,-2.5364,-2.502,-2.4941,-2.4553,-2.3764,-2.3694,-2.213,-1.8617,-1.7716,-1.6363,-1.4301,-1.5339,-1.5496,-1.4619,-1.382,-1.4228,-1.5903,-1.5038,-1.5083,-1.5903,-1.5903,-1.6373,-1.7199,-1.7199,-1.7199,-1.7199,-1.7199,-1.7434,-1.7801,-1.7801,-1.8549,-1.9666,-2.0147,-2.1242,-2.2573,-3.3296,-3.3395,-3.3497,-3.3257,-3.2798,-3.2532,-3.2767,-3.2288,-3.1992,-3.2213,-3.2156,-3.2013,-3.1768,-3.177,-3.1714,-3.145,-3.0977,-3.0428,-2.9823,-2.9786,-2.9786,-2.9767,-3.0049,-3.0142,-3.0003,-3.0128,-3.0128,-2.9988,-3.0128,-3.0185,-3.0157,-3.0049,-2.9855,-2.9558,-2.9855,-2.9817,-2.9589,-2.9952,-3.0117,-3.0138,-2.9895,-2.9832,-2.9781,-2.9002,-2.817,-2.7372,-2.6824,-2.6169,-2.5531,-2.5452,-2.5473,-2.5537,-2.5582,-2.5606,-2.5642,-2.5696,-2.5698,-2.57,-2.5703,-2.5703,-2.5699,-2.5636,-2.5617,-2.5589,-2.5493,-2.5468,-2.5482,-2.5498,-2.5492,-2.551,-2.5546,-2.5513,-2.5513,-2.5558,-2.5497,-2.5449,-2.5468,-2.5371,-2.5247,-2.5098,-2.5031,-2.4933,-2.4736,-2.4369,-2.4041,-2.3787,-2.3129,-2.1765,-1.9561,-1.9233,-1.8375,-1.6777,-1.6494,-1.6378,-1.6416,-1.5596,-1.5407,-1.5903,-1.5628,-1.5947,-1.6824,-1.6824,-1.6964,-1.7199,-1.7199,-1.7199,-1.724,-1.7516,-1.7963,-1.8494,-1.8353,-1.9425,-2.1069,-2.106,-2.2059,-2.3539,-3.2798,-3.2936,-3.304,-3.2703,-3.2352,-3.2228,-3.2559,-3.1789,-3.1279,-3.1594,-3.147,-3.1222,-3.0905,-3.1231,-3.1329,-3.103,-3.0621,-3.0152,-2.9626,-2.9608,-2.9608,-2.9608,-2.982,-2.9905,-2.9769,-2.9905,-2.9905,-2.9769,-2.9905,-2.9988,-3.0022,-2.9855,-2.9805,-2.9841,-2.9842,-2.9806,-2.9842,-2.9921,-2.9981,-3.0007,-3.0007,-3.0056,-3.0042,-2.9589,-2.8715,-2.7599,-2.7129,-2.6274,-2.5367,-2.5293,-2.5352,-2.5473,-2.5537,-2.5585,-2.5605,-2.5648,-2.5681,-2.5691,-2.5701,-2.5702,-2.5683,-2.5663,-2.5679,-2.5687,-2.5593,-2.559,-2.5584,-2.5574,-2.559,-2.5577,-2.5603,-2.557,-2.5535,-2.5525,-2.5436,-2.5375,-2.5352,-2.5204,-2.5041,-2.4878,-2.4734,-2.4561,-2.4354,-2.3768,-2.3243,-2.2864,-2.191,-2.0863,-1.9728,-1.9294,-1.8593,-1.7585,-1.7105,-1.6938,-1.7199,-1.6685,-1.6403,-1.6403,-1.6403,-1.6685,-1.7199,-1.7199,-1.7282,-1.7434,-1.7434,-1.7691,-1.8098,-1.8344,-1.8934,-1.9725,-1.9601,-2.0475,-2.1857,-2.2061,-2.2946,-2.4161,-3.1823,-3.1924,-3.1924,-3.1191,-3.1255,-3.1657,-3.2407,-3.1242,-3.0528,-3.1268,-3.0736,-3.0026,-2.9287,-3.0028,-3.029,-2.9551,-2.9584,-2.9645,-2.9645,-2.9589,-2.9551,-2.9551,-2.9551,-2.9551,-2.9551,-2.9589,-2.9589,-2.957,-2.9589,-2.9681,-2.9855,-2.9662,-2.9662,-2.9803,-2.9719,-2.9664,-2.9664,-2.9683,-2.9773,-2.9872,-2.9872,-2.995,-3.0066,-3.008,-2.9088,-2.7662,-2.7546,-2.6562,-2.5286,-2.5145,-2.5225,-2.5387,-2.5473,-2.5532,-2.557,-2.5593,-2.5619,-2.5685,-2.5677,-2.568,-2.5677,-2.5601,-2.5638,-2.5683,-2.5683,-2.5702,-2.5701,-2.57,-2.5702,-2.5663,-2.5602,-2.5602,-2.554,-2.5412,-2.5278,-2.5206,-2.526,-2.4984,-2.4762,-2.4738,-2.4501,-2.4223,-2.3866,-2.3191,-2.2393,-2.1453,-2.0539,-1.9813,-1.9286,-1.8454,-1.7747,-1.7282,-1.724,-1.724,-1.7199,-1.724,-1.724,-1.7199,-1.7199,-1.7199,-1.7199,-1.724,-1.7475,-1.7828,-1.7868,-1.8452,-1.9415,-1.9399,-2.0163,-2.1278,-2.1201,-2.161,-2.2278,-2.3084,-2.3858,-2.4619,-3.2258,-3.2435,-3.2585,-3.2424,-3.1918,-3.1637,-3.1799,-3.1227,-3.0803,-3.0984,-3.1111,-3.1072,-3.0889,-3.1066,-3.1127,-3.0967,-3.0401,-3.0079,-3.0079,-2.9466,-2.9115,-2.9115,-2.9115,-2.9115,-2.9115,-2.9435,-2.9532,-2.9375,-2.9532,-2.957,-2.9513,-2.9454,-2.9375,-2.9277,-2.9414,-2.9471,-2.9491,-2.9626,-2.9719,-2.9738,-2.9738,-2.9755,-2.9808,-2.9905,-2.9292,-2.8305,-2.778,-2.6924,-2.5977,-2.5375,-2.516,-2.5205,-2.5371,-2.5432,-2.5453,-2.551,-2.5532,-2.5542,-2.5532,-2.5532,-2.5532,-2.5537,-2.5532,-2.5563,-2.5607,-2.5661,-2.5703,-2.5701,-2.5663,-2.5629,-2.5603,-2.557,-2.5489,-2.5415,-2.5194,-2.5033,-2.4992,-2.4728,-2.4491,-2.4283,-2.4099,-2.3824,-2.3405,-2.2883,-2.2186,-2.1243,-2.1212,-2.0635,-1.9229,-1.9192,-1.8727,-1.7707,-1.7679,-1.7516,-1.7199,-1.7639,-1.7693,-1.735,-1.7253,-1.7253,-1.735,-1.757,-1.7747,-1.7948,-1.8305,-1.8945,-1.9724,-1.9478,-2.047,-2.2088,-2.1315,-2.2122,-2.3744,-2.4047,-2.464,-2.5387,-3.2091,-3.2335,-3.2553,-3.2553,-3.2346,-3.2157,-3.2157,-3.1637,-3.1236,-3.1236,-3.1055,-3.093,-3.093,-3.093,-3.093,-3.093,-3.0675,-3.0516,-3.0516,-3.0302,-3.0136,-3.0136,-3.0136,-2.9971,-2.9586,-2.9798,-2.9659,-2.916,-2.927,-2.9312,-2.9312,-2.9267,-2.9228,-2.9191,-2.9251,-2.9251,-2.9272,-2.9472,-2.955,-2.9569,-2.9664,-2.9701,-2.972,-2.9773,-2.9261,-2.8452,-2.8102,-2.7199,-2.6119,-2.5793,-2.5399,-2.5075,-2.5133,-2.5177,-2.5226,-2.534,-2.5386,-2.5421,-2.5473,-2.5504,-2.5492,-2.546,-2.548,-2.5515,-2.5546,-2.5574,-2.559,-2.5601,-2.558,-2.555,-2.5547,-2.5473,-2.5379,-2.528,-2.5098,-2.491,-2.4769,-2.4551,-2.4302,-2.3999,-2.3753,-2.3312,-2.2556,-2.2265,-2.1625,-2.0452,-2.0601,-2.0112,-1.8655,-1.8808,-1.8525,-1.7666,-1.7679,-1.7625,-1.7612,-1.7921,-1.8205,-1.8494,-1.8044,-1.7908,-1.8028,-1.8108,-1.8537,-1.9145,-1.9051,-1.9861,-2.1292,-2.0467,-2.1398,-2.3164,-2.2328,-2.2928,-2.4313,-2.4761,-2.5415,-2.6123,-3.18,-3.202,-3.2214,-3.2214,-3.2419,-3.2651,-3.2651,-3.2101,-3.1724,-3.1724,-3.1186,-3.0808,-3.0808,-3.0808,-3.0808,-3.0808,-3.0948,-3.1018,-3.1018,-3.1156,-3.1239,-3.1239,-3.1265,-3.0998,-3.0338,-3.0241,-2.9824,-2.8994,-2.8994,-2.9026,-2.9123,-2.9048,-2.9093,-2.9188,-2.9104,-2.906,-2.9082,-2.927,-2.9353,-2.9353,-2.9531,-2.9589,-2.9589,-2.9645,-2.9214,-2.8558,-2.8446,-2.7448,-2.6211,-2.6346,-2.5939,-2.5356,-2.5319,-2.5361,-2.5397,-2.5365,-2.5409,-2.547,-2.5432,-2.546,-2.5453,-2.5406,-2.5418,-2.5467,-2.5467,-2.5486,-2.5504,-2.5504,-2.5492,-2.548,-2.5473,-2.5363,-2.5226,-2.5096,-2.4936,-2.476,-2.4528,-2.4321,-2.4077,-2.3753,-2.3394,-2.2841,-2.1919,-2.1685,-2.107,-1.9934,-1.9793,-1.9288,-1.8187,-1.824,-1.8042,-1.7516,-1.7516,-1.7666,-1.7987,-1.8176,-1.8707,-1.9629,-1.9166,-1.9006,-1.9055,-1.8931,-1.9503,-2.0561,-1.9842,-2.0873,-2.297,-2.1614,-2.2293,-2.4131,-2.3442,-2.3621,-2.4385,-2.5198,-2.6016,-2.6691,-3.18,-3.1837,-3.1856,-3.1856,-3.1893,-3.1929,-3.1929,-3.2092,-3.2194,-3.2194,-3.237,-3.2491,-3.2491,-3.2491,-3.2491,-3.2491,-3.1867,-3.1523,-3.1523,-3.091,-3.0545,-3.0545,-3.082,-3.0921,-3.0812,-3.0417,-2.9824,-2.8994,-2.8929,-2.8905,-2.8858,-2.8785,-2.8718,-2.8694,-2.8863,-2.8934,-2.8934,-2.9079,-2.9148,-2.9148,-2.9169,-2.9191,-2.9191,-2.9373,-2.9358,-2.9191,-2.8596,-2.779,-2.6968,-2.71,-2.7005,-2.6825,-2.6949,-2.6976,-2.6854,-2.6181,-2.606,-2.6018,-2.5343,-2.5244,-2.5322,-2.5313,-2.5322,-2.5331,-2.5331,-2.541,-2.5504,-2.5504,-2.5453,-2.5403,-2.5403,-2.5254,-2.5099,-2.5019,-2.476,-2.4459,-2.4211,-2.3941,-2.3671,-2.3399,-2.2968,-2.2651,-2.25,-2.1516,-2.0895,-2.0829,-2.0131,-1.939,-1.8745,-1.865,-1.8288,-1.7516,-1.7516,-1.7516,-1.7585,-1.8577,-1.9127,-1.9293,-2.0046,-2.0439,-2.0493,-2.0132,-2.0494,-2.1302,-2.0419,-2.1247,-2.3154,-2.1802,-2.2448,-2.4199,-2.3523,-2.3702,-2.4385,-2.5198,-2.6016,-2.6691,-3.18,-3.18,-3.18,-3.18,-3.18,-3.18,-3.18,-3.1929,-3.202,-3.202,-3.2144,-3.2231,-3.2231,-3.2231,-3.2231,-3.2231,-3.2086,-3.1991,-3.1991,-3.1831,-3.1729,-3.1729,-3.1882,-3.1745,-3.1285,-3.1284,-3.0539,-2.9053,-2.8943,-2.8858,-2.8743,-2.8718,-2.8644,-2.8612,-2.8687,-2.8737,-2.8743,-2.8915,-2.8984,-2.8989,-2.906,-2.9086,-2.9126,-2.9209,-2.9293,-2.9395,-2.9195,-2.8558,-2.7828,-2.7899,-2.7545,-2.7099,-2.7133,-2.7114,-2.702,-2.6728,-2.6771,-2.6852,-2.6556,-2.6274,-2.6004,-2.5921,-2.5608,-2.5253,-2.5115,-2.5175,-2.5301,-2.5363,-2.5365,-2.5321,-2.5245,-2.5168,-2.5032,-2.4752,-2.4607,-2.4373,-2.3999,-2.3798,-2.354,-2.306,-2.2527,-2.2169,-2.2101,-2.143,-2.0846,-2.0416,-2.0108,-1.9615,-1.8907,-1.8907,-1.8679,-1.8068,-1.8068,-1.8206,-1.8563,-1.9072,-1.974,-2.0585,-2.1041,-2.1238,-2.1219,-2.0724,-2.1064,-2.2043,-2.0896,-2.1545,-2.3334,-2.1918,-2.2486,-2.4241,-2.3563,-2.3966,-2.4973,-2.4917,-2.565,-2.664]}]]